Date StartTime U_cm/s V_cm/s W_cm/s Ustd_cm/s Vstd_cm/s Wstd_cm/s Uvar_(cm/s)^2 Vvar_(cm/s)^2 Wvar_(cm/s)^2 KE_(m/s)^2 TurbulentKE_(m/s)^2 HorizWindSpeed_cm/s FrictionSpeec_cm/s DragCoef SpeedOfSound_m/s SonicTemperature_C Pressure_mb 
01/02/2014  00:00:00      -94.593      -31.099       -4.559       20.301       17.711        9.133      412.123      313.685       83.410        0.537        0.040       99.574        9.424        0.009      332.349        0.953      868.004
01/02/2014  00:01:00      -82.555      -30.326       -0.023       16.851       13.608       11.318      283.950      185.179      128.096        0.417        0.030       87.949       10.837        0.015      332.344        0.946      868.007
01/02/2014  00:02:00      -74.089       -6.729       -8.857        9.993       10.181        7.258       99.868      103.651       52.681        0.293        0.013       74.394        3.281        0.002      332.355        0.962      868.007
01/02/2014  00:03:00      -26.310       -9.626       -2.245       14.844        7.792        8.431      220.359       60.710       71.087        0.057        0.018       28.015        8.994        0.103      332.393        1.027      867.997
01/02/2014  00:04:00      -35.993      -15.047        3.924        8.289        9.519        8.830       68.701       90.615       77.978        0.089        0.012       39.012        2.114        0.003      332.430        1.088      867.975
01/02/2014  00:05:00      -51.457      -20.407       -5.687       14.296       11.522        7.736      204.363      132.768       59.845        0.175        0.020       55.356        6.599        0.014      332.444        1.111      867.953
01/02/2014  00:06:00      -70.887      -12.095       -8.233        8.201        8.995        7.817       67.255       80.918       61.102        0.272        0.010       71.912        1.406        0.000      332.390        1.020      867.940
01/02/2014  00:07:00      -86.276      -27.426       -9.274       11.377        6.548        5.743      129.439       42.875       32.985        0.424        0.010       90.530        3.584        0.002      332.339        0.936      867.940
01/02/2014  00:08:00     -102.857      -20.715      -11.533       20.795       10.864       10.971      432.450      118.016      120.359        0.591        0.034      104.923       11.928        0.013      332.360        0.972      867.936
01/02/2014  00:09:00      -95.090      -27.522      -10.344       22.856       14.591       13.786      522.384      212.911      190.063        0.542        0.046       98.993       14.136        0.020      332.381        1.006      867.931
01/02/2014  00:10:00     -113.100      -21.411      -12.991       17.307       13.351       10.295      299.548      178.248      105.997        0.700        0.029      115.109        9.186        0.006      332.301        0.875      867.926
01/02/2014  00:11:00     -112.295      -24.127      -10.705       12.947       10.067        9.272      167.625      101.341       85.963        0.683        0.018      114.858        6.499        0.003      332.290        0.855      867.915
01/02/2014  00:12:00     -103.938      -16.333      -13.581       17.323       16.348       13.028      300.100      267.244      169.718        0.600        0.037      105.214       11.915        0.013      332.241        0.777      867.902
01/02/2014  00:13:00     -117.230      -21.003      -11.864       24.783       14.261       13.836      614.216      203.364      191.441        0.767        0.050      119.096       10.207        0.007      332.191        0.695      867.898
01/02/2014  00:14:00     -123.476      -33.311      -14.747       11.852        9.437        7.204      140.476       89.055       51.903        0.843        0.014      127.890        4.024        0.001      332.174        0.668      867.906
01/02/2014  00:15:00     -106.353      -35.679      -16.214        8.973        8.327        8.718       80.519       69.343       75.998        0.654        0.011      112.178        4.769        0.002      332.115        0.568      867.907
01/02/2014  00:16:00     -102.690      -24.435      -14.004       14.092       18.948       10.290      198.588      359.021      105.887        0.600        0.033      105.557        7.357        0.005      332.120        0.577      867.908
01/02/2014  00:17:00     -121.320      -15.416      -18.591       18.192       13.925       14.123      330.959      193.919      199.451        0.801        0.036      122.296        9.225        0.006      332.116        0.570      867.904
01/02/2014  00:18:00      -88.111      -15.107      -11.005       25.942       17.570       14.815      672.984      308.696      219.473        0.466        0.060       89.396       12.855        0.021      332.078        0.506      867.907
01/02/2014  00:19:00     -100.560      -15.351      -14.326       29.163       24.968       15.240      850.509      623.385      232.244        0.613        0.085      101.724       13.506        0.018      332.050        0.460      867.902
01/02/2014  00:20:00      -93.173      -13.851       -8.347       20.488       16.794       15.691      419.777      282.042      246.195        0.495        0.047       94.196       12.198        0.017      332.037        0.439      867.904
01/02/2014  00:21:00      -72.858      -17.911       -6.307       15.546       14.074       13.171      241.685      198.067      173.472        0.314        0.031       75.027       11.083        0.022      332.060        0.478      867.914
01/02/2014  00:22:00      -88.528        4.678      -14.576       12.830       16.011       11.129      164.605      256.354      123.865        0.431        0.027       88.651        9.258        0.011      332.105        0.551      867.915
01/02/2014  00:23:00      -72.760       -0.942      -14.096       15.099       10.268       13.110      227.977      105.430      171.870        0.300        0.025       72.766        9.264        0.016      332.114        0.567      867.925
01/02/2014  00:24:00      -74.037        2.047       -8.621       10.938        5.849        6.495      119.644       34.213       42.183        0.288        0.010       74.065        4.519        0.004      332.191        0.694      867.929
01/02/2014  00:25:00      -70.090      -13.752      -12.432        9.211        8.765        6.001       84.843       76.820       36.018        0.273        0.010       71.426        3.861        0.003      332.121        0.578      867.922
01/02/2014  00:26:00      -86.396      -17.472       -7.087       13.281       12.213        6.368      176.387      149.164       40.557        0.409        0.018       88.145        4.876        0.003      332.105        0.551      867.913
01/02/2014  00:27:00      -71.551      -19.276      -10.902       20.295       15.805       13.586      411.907      249.811      184.582        0.323        0.042       74.102       11.262        0.023      332.074        0.500      867.903
01/02/2014  00:28:00      -81.430      -17.384       -9.360       14.254       13.898       11.920      203.166      193.145      142.087        0.378        0.027       83.265        7.057        0.007      332.055        0.469      867.891
01/02/2014  00:29:00      -84.201      -10.515      -10.974       16.612       15.735       10.093      275.961      247.576      101.859        0.397        0.031       84.855        7.140        0.007      332.034        0.435      867.885
01/02/2014  00:30:00      -96.467      -11.891      -12.122        9.891       12.819        8.877       97.824      164.335       78.794        0.497        0.017       97.198        7.200        0.005      332.033        0.433      867.883
01/02/2014  00:31:00      -85.354      -25.568      -13.333       11.618       12.284        7.637      134.968      150.907       58.325        0.423        0.017       89.101        5.008        0.003      332.000        0.378      867.876
01/02/2014  00:32:00      -94.593      -10.953      -12.834       14.262       15.521        8.838      203.395      240.911       78.118        0.488        0.026       95.225        7.272        0.006      331.969        0.326      867.879
01/02/2014  00:33:00      -91.751      -20.662      -21.706       19.658       15.723       12.137      386.436      247.210      147.305        0.505        0.039       94.049       11.849        0.016      331.980        0.344      867.878
01/02/2014  00:34:00      -75.376      -19.989      -14.765       24.135       20.882       17.464      582.479      436.049      304.986        0.381        0.066       77.982       16.743        0.046      331.915        0.238      867.887
01/02/2014  00:35:00      -98.882      -20.693      -16.581       21.461       19.854       15.276      460.577      394.200      233.342        0.578        0.054      101.024       13.009        0.017      331.912        0.233      867.888
01/02/2014  00:36:00      -84.484      -30.883      -16.141       19.740       24.614       14.353      389.662      605.851      206.019        0.478        0.060       89.951       11.168        0.015      331.913        0.236      867.884
01/02/2014  00:37:00      -95.837      -36.309       -9.322       22.189       21.906       12.996      492.356      479.858      168.891        0.587        0.057      102.484        6.235        0.004      331.900        0.213      867.890
01/02/2014  00:38:00      -91.046      -18.034       -4.074       29.688       24.261       18.896      881.349      588.614      357.055        0.523        0.091       92.815       17.610        0.036      331.837        0.110      867.894
01/02/2014  00:39:00      -97.588      -15.569       -6.732       24.179       26.760       15.602      584.646      716.079      243.423        0.568        0.077       98.822        7.652        0.006      331.866        0.157      867.891
01/02/2014  00:40:00      -92.528      -33.674       -5.909       20.289       24.957       17.127      411.641      622.842      293.318        0.553        0.066       98.465        8.007        0.007      331.909        0.229      867.872
01/02/2014  00:41:00     -114.998      -42.083      -10.961       27.642       25.216       15.413      764.104      635.838      237.563        0.838        0.082      122.457       13.230        0.012      331.889        0.195      867.863
01/02/2014  00:42:00     -123.697      -53.118      -11.630       22.296       21.519       15.684      497.114      463.082      245.987        0.973        0.060      134.620       12.404        0.008      331.873        0.168      867.847
01/02/2014  00:43:00     -103.535      -44.783       -9.764       19.108       25.177       16.604      365.130      633.903      275.708        0.705        0.064      112.806       11.260        0.010      331.928        0.260      867.830
01/02/2014  00:44:00     -113.344      -21.723      -15.176       19.202       21.127       17.484      368.717      446.344      305.702        0.733        0.056      115.407       11.475        0.010      331.890        0.196      867.806
01/02/2014  00:45:00      -82.274      -51.350      -12.466       18.071       21.896       14.371      326.549      479.430      206.522        0.529        0.051       96.983       12.711        0.017      331.935        0.272      867.792
01/02/2014  00:46:00     -116.579      -14.477      -14.925       33.430       24.801       19.764     1117.550      615.079      390.609        0.807        0.106      117.474       11.832        0.010      331.945        0.287      867.790
01/02/2014  00:47:00     -125.285      -17.690       -7.301       41.600       31.848       22.117     1730.574     1014.307      489.165        0.965        0.162      126.528       20.810        0.027      331.911        0.231      867.779
01/02/2014  00:48:00     -100.437      -32.416       -9.011       25.051       27.660       19.458      627.539      765.069      378.598        0.650        0.089      105.538       16.542        0.025      331.875        0.172      867.774
01/02/2014  00:49:00      -83.448      -23.034       -9.517       27.914       21.045       14.668      779.185      442.899      215.154        0.451        0.072       86.569       13.074        0.023      331.853        0.135      867.789
01/02/2014  00:50:00      -80.323      -27.056       -3.885       24.382       23.967       14.911      594.504      574.412      222.330        0.429        0.070       84.757        9.607        0.013      331.870        0.163      867.793
01/02/2014  00:51:00      -95.611      -37.439      -18.952       25.340       23.590       12.939      642.102      556.495      167.412        0.613        0.068      102.679       10.842        0.011      331.846        0.124      867.795
01/02/2014  00:52:00      -83.289      -65.974      -13.663       16.050       23.130       15.889      257.594      534.980      252.462        0.626        0.052      106.253       10.361        0.010      331.928        0.258      867.792
01/02/2014  00:53:00      -50.749      -39.031       -5.421       44.298       29.074       25.295     1962.279      845.295      639.858        0.379        0.172       64.023       28.165        0.194      331.952        0.301      867.798
01/02/2014  00:54:00      -70.456      -14.387        0.701       18.146       26.669       15.558      329.275      711.215      242.061        0.323        0.064       71.910       12.154        0.029      331.981        0.347      867.808
01/02/2014  00:55:00      -78.657      -37.908      -18.105       29.011       26.558       17.298      841.654      705.349      299.212        0.490        0.092       87.315       10.962        0.016      331.991        0.364      867.814
01/02/2014  00:56:00     -104.206      -40.637      -15.261       31.138       21.265       12.561      969.553      452.220      157.780        0.716        0.079      111.849        7.339        0.004      331.950        0.294      867.812
01/02/2014  00:57:00     -104.282      -26.818       -8.413       26.330       25.305       16.838      693.285      640.363      283.511        0.664        0.081      107.675       15.973        0.022      331.915        0.238      867.817
01/02/2014  00:58:00     -104.920      -21.839       -9.186       19.536       19.225       13.246      381.663      369.615      175.449        0.625        0.046      107.169        7.862        0.005      331.894        0.204      867.823
01/02/2014  00:59:00     -107.506      -26.914       -8.229       34.904       24.534       14.738     1218.292      601.922      217.196        0.719        0.102      110.824       15.919        0.021      331.898        0.210      867.807
01/02/2014  01:00:00     -107.857      -48.236      -13.001       23.138       23.566       11.287      535.375      555.351      127.391        0.767        0.061      118.152        4.460        0.001      331.894        0.203      867.797
01/02/2014  01:01:00      -70.907      -63.418      -12.416       22.530       20.227       15.474      507.585      409.139      239.453        0.518        0.058       95.130       13.366        0.020      331.902        0.216      867.788
01/02/2014  01:02:00      -87.141      -22.354      -17.712       20.907       19.364       13.095      437.092      374.983      171.470        0.470        0.049       89.962       12.555        0.019      331.955        0.303      867.783
01/02/2014  01:03:00     -109.287      -37.621      -14.643       21.975       24.953       19.040      482.909      622.648      362.513        0.752        0.073      115.581       13.841        0.014      331.929        0.260      867.773
01/02/2014  01:04:00     -127.783      -39.980       -9.285       32.295       26.251       19.123     1042.983      689.141      365.670        1.006        0.105      133.891       15.840        0.014      331.876        0.175      867.766
01/02/2014  01:05:00      -69.680      -27.960       -6.568       46.292       38.467       22.074     2142.972     1479.678      487.255        0.489        0.205       75.081       15.088        0.040      331.918        0.243      867.771
01/02/2014  01:06:00      -23.641      -22.663        8.722       43.798       28.557       21.293     1918.305      815.496      453.398        0.217        0.159       32.749       24.944        0.580      331.927        0.257      867.781
01/02/2014  01:07:00      -23.126      -29.514        2.276       39.630       27.793       20.552     1570.524      772.440      422.369        0.209        0.138       37.495       20.801        0.308      331.958        0.308      867.791
01/02/2014  01:08:00      -77.325      -14.667       -3.982       32.545       42.595       19.175     1059.160     1814.313      367.699        0.473        0.162       78.704       12.951        0.027      331.942        0.282      867.800
01/02/2014  01:09:00      -75.377      -10.516       -0.391       33.962       26.109       19.183     1153.436      681.691      367.977        0.400        0.110       76.107       16.827        0.049      331.919        0.246      867.805
01/02/2014  01:10:00     -115.039      -37.714       -3.880       36.793       32.055       13.892     1353.737     1027.542      192.978        0.862        0.129      121.063       13.428        0.012      331.926        0.254      867.813
01/02/2014  01:11:00      -84.237      -25.762        4.619       48.236       41.955       22.805     2326.706     1760.231      520.062        0.619        0.230       88.089       19.146        0.047      331.886        0.191      867.824
01/02/2014  01:12:00     -111.490      -39.635      -10.894       27.905       30.122       21.215      778.688      907.362      450.069        0.813        0.107      118.326       17.128        0.021      331.871        0.167      867.844
01/02/2014  01:13:00      -71.145      -53.303       -7.058       31.283       27.344       20.200      978.637      747.713      408.033        0.504        0.107       88.898       12.911        0.021      331.895        0.206      867.852
01/02/2014  01:14:00      -75.692      -51.289      -13.108       47.319       31.861       21.856     2239.057     1015.109      477.665        0.613        0.187       91.432       13.500        0.022      331.850        0.132      867.854
01/02/2014  01:15:00      -72.207      -45.672       -9.701       31.450       27.850       18.092      989.101      775.642      327.316        0.474        0.105       85.439       12.115        0.020      331.842        0.117      867.863
01/02/2014  01:16:00      -52.144      -35.091        2.869       36.485       25.461       20.014     1331.147      648.276      400.545        0.317        0.119       62.852       19.066        0.092      331.835        0.106      867.869
01/02/2014  01:17:00     -102.103      -49.138      -10.100       30.856       22.927       12.779      952.090      525.668      163.313        0.729        0.082      113.312       14.363        0.016      331.829        0.096      867.879
01/02/2014  01:18:00     -140.512      -46.882      -11.670       27.505       13.761       13.017      756.524      189.361      169.445        1.160        0.056      148.127       10.604        0.005      331.852        0.135      867.880
01/02/2014  01:19:00     -147.419      -24.010      -18.841       13.912       15.665       10.478      193.556      245.392      109.779        1.161        0.027      149.362        5.480        0.001      331.841        0.117      867.880
01/02/2014  01:20:00     -119.199      -19.875       -8.353       29.699       17.657       19.097      882.051      311.766      364.705        0.812        0.078      120.844       14.438        0.014      331.916        0.239      867.879
01/02/2014  01:21:00     -126.942      -47.098       -8.758       16.416       16.250       10.812      269.487      264.055      116.897        0.953        0.033      135.397        8.000        0.003      331.881        0.182      867.881
01/02/2014  01:22:00     -119.523      -37.891      -12.557       17.886       19.281       13.309      319.910      371.762      177.119        0.837        0.043      125.385        8.942        0.005      331.845        0.125      867.890
01/02/2014  01:23:00     -116.971      -47.282       -7.680       15.618       21.674        9.962      243.919      469.764       99.246        0.839        0.041      126.166        7.514        0.004      331.853        0.135      867.905
01/02/2014  01:24:00     -117.131      -32.317      -10.273       13.907       16.950       10.189      193.397      287.311      103.825        0.773        0.029      121.508        7.456        0.004      331.836        0.108      867.910
01/02/2014  01:25:00      -86.492      -52.072      -12.179       21.991       19.425       12.099      483.594      377.338      146.375        0.567        0.050      100.957        5.291        0.003      331.871        0.167      867.906
01/02/2014  01:26:00     -102.506      -38.288      -11.630       17.504       12.243        9.136      306.380      149.895       83.459        0.632        0.027      109.423        3.199        0.001      331.797        0.044      867.905
01/02/2014  01:27:00     -102.008      -57.115      -20.231       14.084       13.362       10.329      198.355      178.549      106.682        0.728        0.024      116.909        5.622        0.002      331.815        0.074      867.915
01/02/2014  01:28:00     -108.674      -62.062      -14.417       17.025       17.833       17.381      289.845      318.028      302.106        0.839        0.045      125.147       11.193        0.008      331.868        0.160      867.919
01/02/2014  01:29:00      -94.898      -55.732      -14.789       29.008       22.871       15.073      841.490      523.084      227.188        0.696        0.080      110.053        8.313        0.006      331.849        0.129      867.922
01/02/2014  01:30:00      -74.170      -53.689      -12.477       32.036       27.839       14.854     1026.274      775.030      220.642        0.528        0.101       91.562       12.273        0.018      331.829        0.096      867.915
01/02/2014  01:31:00      -97.511      -63.319       -5.905       22.602       18.212       10.935      510.870      331.677      119.571        0.726        0.048      116.265        8.400        0.005      331.853        0.137      867.904
01/02/2014  01:32:00      -88.728      -52.004      -10.530       12.544       11.048        7.256      157.355      122.051       52.646        0.551        0.017      102.845        3.782        0.001      331.862        0.152      867.909
01/02/2014  01:33:00      -99.934      -53.159       -9.382       11.653       12.785        9.458      135.803      163.452       89.449        0.664        0.019      113.193        5.412        0.002      331.827        0.093      867.901
01/02/2014  01:34:00     -114.109      -41.675      -11.303       10.725       16.192       10.960      115.022      262.171      120.122        0.769        0.025      121.481        3.363        0.001      331.800        0.049      867.892
01/02/2014  01:35:00     -111.633      -55.819      -10.787       25.489       13.210       12.815      649.699      174.516      164.218        0.834        0.049      124.811       11.627        0.009      331.797        0.041      867.884
01/02/2014  01:36:00     -126.474      -52.312      -13.355       11.311       11.823        9.555      127.930      139.793       91.296        0.963        0.018      136.865        5.643        0.002      331.806        0.058      867.877
01/02/2014  01:37:00     -127.168      -36.144      -16.036       10.395       15.472        9.526      108.061      239.390       90.753        0.909        0.022      132.205        4.807        0.001      331.798        0.045      867.872
01/02/2014  01:38:00     -110.103      -44.920      -12.844       17.214       16.629       11.910      296.330      276.533      141.851        0.751        0.036      118.913        5.437        0.002      331.809        0.064      867.881
01/02/2014  01:39:00     -100.489      -45.069      -10.253       12.051       14.299        9.691      145.230      204.458       93.907        0.634        0.022      110.133        5.363        0.002      331.807        0.061      867.894
01/02/2014  01:40:00     -130.508      -32.819      -17.201       13.948       13.306        8.178      194.551      177.049       66.881        0.942        0.022      134.571        6.168        0.002      331.806        0.059      867.910
01/02/2014  01:41:00     -120.272      -43.858      -12.137       23.630       19.260       13.950      558.391      370.942      194.592        0.883        0.056      128.019       10.679        0.007      331.786        0.025      867.916
01/02/2014  01:42:00     -130.152      -31.066       -5.475       26.429       17.717       13.492      698.504      313.902      182.029        0.956        0.060      133.808       11.311        0.007      331.716       -0.090      867.925
01/02/2014  01:43:00      -84.871      -21.376       -9.329       17.642       15.793       13.541      311.223      249.408      183.349        0.425        0.037       87.521        9.985        0.013      331.690       -0.131      867.936
01/02/2014  01:44:00     -101.474      -32.971       -9.347       13.149       14.702       11.836      172.900      216.159      140.100        0.600        0.026      106.696        8.066        0.006      331.754       -0.025      867.934
01/02/2014  01:45:00     -101.074      -32.593      -11.063       16.154       12.913        9.696      260.938      166.742       94.003        0.596        0.026      106.199        6.771        0.004      331.761       -0.016      867.925
01/02/2014  01:46:00      -89.857      -34.914       -4.686       16.828       15.825        7.928      283.188      250.438       62.849        0.496        0.030       96.401        9.387        0.009      331.749       -0.036      867.921
01/02/2014  01:47:00      -95.384      -29.786       -5.946       15.805       18.122       11.994      249.812      328.399      143.845        0.537        0.036       99.927       10.159        0.010      331.730       -0.067      867.923
01/02/2014  01:48:00     -102.974      -26.753       -3.835       24.335       15.200       14.076      592.180      231.038      198.121        0.618        0.051      106.393       12.224        0.013      331.752       -0.031      867.928
01/02/2014  01:49:00     -112.656      -41.757       -7.600       14.085       14.906        8.993      198.376      222.183       80.874        0.750        0.025      120.146        4.373        0.001      331.724       -0.076      867.926
01/02/2014  01:50:00     -127.950      -54.026      -10.480       10.961       11.868        7.650      120.138      140.848       58.523        0.986        0.016      138.889        2.792        0.000      331.712       -0.095      867.945
01/02/2014  01:51:00     -111.610      -64.407       -8.014       21.329       18.051       11.847      454.930      325.852      140.357        0.880        0.046      128.861        9.009        0.005      331.691       -0.131      867.969
01/02/2014  01:52:00     -138.903      -58.209       -9.552       19.722       15.436       15.274      388.947      238.260      233.304        1.182        0.043      150.607       12.595        0.007      331.679       -0.150      867.980
01/02/2014  01:53:00     -120.544      -62.066      -10.373       20.782       22.932       15.055      431.874      525.884      226.657        0.984        0.059      135.585       10.287        0.006      331.683       -0.141      867.986
01/02/2014  01:54:00     -134.370      -49.737       -5.882       18.030       23.686       13.099      325.072      561.004      171.590        1.081        0.053      143.280        9.568        0.004      331.702       -0.114      867.985
01/02/2014  01:55:00     -124.395      -31.222       -1.872       34.674       20.584       15.865     1202.317      423.699      251.691        0.916        0.094      128.254       14.229        0.012      331.652       -0.193      867.992
01/02/2014  01:56:00      -96.177      -31.052        1.752       39.399       30.109       16.917     1552.254      906.524      286.176        0.648        0.137      101.065       16.645        0.027      331.634       -0.224      868.001
01/02/2014  01:57:00     -133.690      -43.998       -1.837       26.234       22.557       15.686      688.213      508.823      246.052        1.063        0.072      140.743       13.968        0.010      331.677       -0.153      868.009
01/02/2014  01:58:00     -106.262      -46.371        2.007       30.582       22.458       14.888      935.277      504.339      221.645        0.755        0.083      115.939        9.557        0.007      331.673       -0.160      868.024
01/02/2014  01:59:00      -97.898      -45.150       -6.938       17.375       15.118       13.579      301.894      228.563      184.394        0.619        0.036      107.808        9.380        0.008      331.627       -0.236      868.035
01/02/2014  02:00:00      -90.936      -35.806      -13.169       21.050       22.230       13.875      443.109      494.172      192.510        0.543        0.056       97.732       12.121        0.015      331.635       -0.221      868.043
01/02/2014  02:01:00      -96.455      -28.288       -7.934       17.182       14.979       11.187      295.237      224.359      125.156        0.541        0.032      100.518        9.474        0.009      331.601       -0.279      868.054
01/02/2014  02:02:00      -93.744      -27.918      -10.686       16.496       17.917       12.351      272.102      321.007      152.537        0.521        0.037       97.812        7.703        0.006      331.582       -0.311      868.065
01/02/2014  02:03:00      -76.100      -41.351       -7.995       20.181       14.291       15.144      407.264      204.231      229.354        0.420        0.042       86.609       12.347        0.020      331.575       -0.322      868.082
01/02/2014  02:04:00      -81.165      -33.181      -11.822       13.422       18.847       14.129      180.146      355.207      199.621        0.428        0.037       87.685       10.220        0.014      331.584       -0.308      868.093
01/02/2014  02:05:00      -92.557      -44.356      -19.399       13.825       20.969       11.013      191.140      439.682      121.287        0.583        0.038      102.636       10.373        0.010      331.600       -0.280      868.108
01/02/2014  02:06:00      -79.405      -24.770      -11.232       28.224       20.828       15.470      796.569      433.826      239.332        0.426        0.073       83.179       13.754        0.027      331.544       -0.373      868.107
01/02/2014  02:07:00     -107.216      -25.847      -19.022       12.709       12.627       11.470      161.519      159.449      131.565        0.649        0.023      110.288        6.658        0.004      331.518       -0.414      868.114
01/02/2014  02:08:00     -103.274      -34.093      -16.074       17.460       13.735       11.439      304.843      188.642      130.859        0.636        0.031      108.756        8.308        0.006      331.537       -0.385      868.126
01/02/2014  02:09:00     -104.864      -30.641      -14.180        9.644        9.198        7.380       93.007       84.612       54.471        0.618        0.012      109.249        4.432        0.002      331.505       -0.436      868.129
01/02/2014  02:10:00     -115.011      -22.269      -20.590       11.808       12.065        7.410      139.436      145.558       54.913        0.724        0.017      117.147        4.202        0.001      331.516       -0.419      868.135
01/02/2014  02:11:00     -108.678      -26.463      -15.731       17.055       13.149       10.308      290.884      172.886      106.263        0.666        0.029      111.854        7.957        0.005      331.489       -0.464      868.122
01/02/2014  02:12:00      -99.505      -30.604      -14.378       23.349       18.093       11.295      545.169      327.366      127.578        0.602        0.050      104.105        8.478        0.007      331.374       -0.652      868.127
01/02/2014  02:13:00     -102.384      -19.568      -15.487       19.463       17.333       13.700      378.821      300.439      187.680        0.599        0.043      104.237       13.120        0.016      331.356       -0.682      868.126
01/02/2014  02:14:00      -92.751      -23.439      -12.433       17.454       13.515       12.650      304.628      182.652      160.035        0.498        0.032       95.666        9.714        0.010      331.324       -0.735      868.127
01/02/2014  02:15:00     -106.342      -20.868      -20.207       20.704       19.525       15.718      428.654      381.209      247.045        0.660        0.053      108.370       15.283        0.020      331.332       -0.721      868.132
01/02/2014  02:16:00      -94.851      -31.363      -15.896       17.641       20.181       14.713      311.198      407.260      216.474        0.558        0.047       99.901        9.187        0.008      331.331       -0.721      868.123
01/02/2014  02:17:00     -102.376      -29.001      -14.153       21.728       15.967       15.495      472.091      254.942      240.091        0.624        0.048      106.404       14.713        0.019      331.333       -0.720      868.121
01/02/2014  02:18:00     -101.057      -43.072      -18.758       18.506       22.415       18.985      342.455      502.445      360.433        0.681        0.060      109.853       15.922        0.021      331.374       -0.653      868.129
01/02/2014  02:19:00      -91.428      -39.279      -10.500       20.063       18.566       10.432      402.508      344.701      108.835        0.543        0.043       99.508        6.237        0.004      331.396       -0.616      868.142
01/02/2014  02:20:00     -123.663      -17.352      -18.359       25.132       19.493       16.733      631.608      379.968      279.995        0.861        0.065      124.874       15.862        0.016      331.328       -0.728      868.154
01/02/2014  02:21:00     -126.751      -21.356      -20.596       20.042       22.212       11.901      401.682      493.386      141.640        0.899        0.052      128.537        9.729        0.006      331.324       -0.734      868.150
01/02/2014  02:22:00     -116.583      -34.199      -14.562       24.839       27.834       15.096      616.963      774.707      227.879        0.830        0.081      121.495       12.835        0.011      331.298       -0.776      868.155
01/02/2014  02:23:00      -82.167      -23.182       -2.574       31.815       30.242       21.312     1012.197      914.556      454.206        0.484        0.119       85.374       16.507        0.037      331.325       -0.733      868.158
01/02/2014  02:24:00      -75.072      -24.926        3.809       45.825       24.791       19.955     2099.901      614.586      398.220        0.469        0.156       79.102       22.236        0.079      331.345       -0.699      868.150
01/02/2014  02:25:00      -82.312      -11.660      -11.637       24.757       24.465       12.258      612.902      598.527      150.259        0.420        0.068       83.134        8.543        0.011      331.374       -0.652      868.134
01/02/2014  02:26:00      -75.436      -21.476      -17.548       15.592       20.435       12.062      243.101      417.602      145.486        0.363        0.040       78.433        7.398        0.009      331.503       -0.440      868.116
01/02/2014  02:27:00      -93.723      -13.648      -15.803       15.701       14.151       10.192      246.506      200.245      103.879        0.489        0.028       94.711        5.682        0.004      331.487       -0.467      868.108
01/02/2014  02:28:00      -95.853      -31.836      -16.326       22.933       23.198       17.312      525.930      538.150      299.707        0.592        0.068      101.002       18.387        0.033      331.430       -0.559      868.108
01/02/2014  02:29:00     -105.057      -41.011      -17.198       29.285       22.220       17.244      857.594      493.719      297.370        0.733        0.082      112.778       13.890        0.015      331.369       -0.659      868.110
01/02/2014  02:30:00     -110.225      -53.552      -14.336       21.754       27.406       20.162      473.244      751.114      406.494        0.843        0.082      122.546        9.119        0.006      331.349       -0.694      868.108
01/02/2014  02:31:00      -92.608      -38.299      -15.928       31.092       24.725       13.850      966.731      611.339      191.814        0.603        0.088      100.215        7.691        0.006      331.344       -0.702      868.104
01/02/2014  02:32:00      -98.892      -24.061      -11.527       18.976       21.316       18.499      360.095      454.351      342.203        0.582        0.058      101.777       12.770        0.016      331.254       -0.848      868.110
01/02/2014  02:33:00      -79.323      -22.193      -11.324       26.974       25.571       19.174      727.603      653.856      367.640        0.433        0.087       82.369       16.728        0.041      331.339       -0.709      868.112
01/02/2014  02:34:00      -73.645      -38.810      -19.199       32.490       22.680       20.320     1055.599      514.388      412.917        0.464        0.099       83.245       18.446        0.049      331.387       -0.632      868.105
01/02/2014  02:35:00      -80.201      -37.708      -19.324       30.571       24.752       16.088      934.558      612.638      258.840        0.502        0.090       88.624       17.376        0.038      331.406       -0.599      868.092
01/02/2014  02:36:00      -76.463      -46.130      -15.743       20.094       19.228       14.968      403.761      369.721      224.044        0.461        0.050       89.300       11.586        0.017      331.327       -0.729      868.078
01/02/2014  02:37:00      -83.128      -42.088      -15.399       22.482       28.716       16.378      505.446      824.588      268.239        0.526        0.080       93.175       10.820        0.013      331.278       -0.809      868.077
01/02/2014  02:38:00     -100.529      -30.435      -14.530       37.324       26.955       15.988     1393.102      726.552      255.629        0.681        0.119      105.035        7.696        0.005      331.296       -0.780      868.078
01/02/2014  02:39:00     -122.235      -30.398       -8.993       29.855       23.566       19.412      891.339      555.372      376.810        0.888        0.091      125.958       11.495        0.008      331.318       -0.743      868.064
01/02/2014  02:40:00      -80.388      -14.276        3.449       29.035       23.750       24.590      843.005      564.050      604.685        0.434        0.101       81.646       19.108        0.055      331.278       -0.809      868.036
01/02/2014  02:41:00      -77.903      -28.223      -11.016       23.944       21.057       16.444      573.296      443.415      270.405        0.414        0.064       82.858       12.796        0.024      331.386       -0.632      868.010
01/02/2014  02:42:00     -118.215      -19.154      -11.568       24.607       20.124       14.136      605.493      404.964      199.825        0.784        0.061      119.757       10.818        0.008      331.330       -0.724      867.983
01/02/2014  02:43:00      -97.606      -38.016      -16.538       17.986       24.186       14.718      323.493      584.963      216.607        0.619        0.056      104.748        9.973        0.009      331.342       -0.703      867.971
01/02/2014  02:44:00     -122.410      -52.276      -14.282       24.075       24.166       15.197      579.609      583.982      230.938        0.966        0.070      133.105       12.815        0.009      331.313       -0.752      867.967
01/02/2014  02:45:00     -132.343      -65.111      -14.561       27.579       26.167       16.742      760.613      684.736      280.291        1.185        0.086      147.493        8.541        0.003      331.331       -0.722      867.961
01/02/2014  02:46:00     -145.098      -29.962      -12.326       23.298       27.049       13.820      542.802      731.675      191.003        1.178        0.073      148.159       11.162        0.006      331.303       -0.767      867.956
01/02/2014  02:47:00      -76.412      -14.260      -10.818       13.393       16.486       13.051      179.372      271.785      170.316        0.339        0.031       77.731        8.490        0.012      331.347       -0.696      867.934
01/02/2014  02:48:00      -72.948       -6.691      -13.431       11.846       12.969        8.852      140.334      168.186       78.353        0.297        0.019       73.254        7.459        0.010      331.343       -0.702      867.925
01/02/2014  02:49:00      -72.568      -28.557      -11.211       11.006       16.195        8.196      121.136      262.276       67.175        0.333        0.023       77.985        2.892        0.001      331.404       -0.604      867.920
01/02/2014  02:50:00     -120.025      -48.653      -19.104       24.940       19.049       13.072      622.021      362.876      170.886        0.915        0.058      129.512       10.346        0.006      331.370       -0.659      867.927
01/02/2014  02:51:00     -142.493      -71.346      -17.361       27.321       22.200       16.778      746.452      492.847      281.505        1.361        0.076      159.356        3.117        0.000      331.312       -0.752      867.935
01/02/2014  02:52:00     -102.441      -73.286      -15.205       42.244       27.927       21.962     1784.539      779.930      482.315        0.957        0.152      125.956        5.085        0.002      331.257       -0.843      867.943
01/02/2014  02:53:00      -90.107      -52.534       -7.422       27.326       22.859       16.582      746.725      522.543      274.965        0.624        0.077      104.303       17.171        0.027      331.341       -0.706      867.940
01/02/2014  02:54:00      -70.419      -28.064       -5.923       13.890       14.975        9.524      192.931      224.253       90.711        0.314        0.025       75.805        6.542        0.007      331.370       -0.659      867.937
01/02/2014  02:55:00      -82.566      -39.615      -10.620       16.266       14.308       11.084      264.571      204.715      122.847        0.455        0.030       91.578        9.301        0.010      331.404       -0.602      867.952
01/02/2014  02:56:00      -96.555      -53.249       -9.095       13.351       14.443       10.758      178.262      208.588      115.734        0.637        0.025      110.265        6.896        0.004      331.362       -0.672      867.954
01/02/2014  02:57:00      -49.814      -54.801        1.511       26.835       26.123       15.637      720.119      682.410      244.500        0.357        0.082       74.058       13.026        0.031      331.369       -0.659      867.938
01/02/2014  02:58:00      -65.176      -46.758       -1.954       18.281       14.480        9.966      334.198      209.684       99.319        0.354        0.032       80.214        8.420        0.011      331.452       -0.524      867.915
01/02/2014  02:59:00      -68.416      -34.337       -6.748       15.692        7.939        5.689      246.248       63.027       32.370        0.312        0.017       76.549        2.802        0.001      331.480       -0.478      867.903
01/02/2014  03:00:00      -66.313      -26.660       -1.479       16.550       11.857       11.369      273.915      140.593      129.253        0.283        0.027       71.472       11.065        0.024      331.461       -0.509      867.907
01/02/2014  03:01:00      -55.995      -30.953        0.350       26.903       16.615       12.172      723.761      276.072      148.156        0.262        0.057       63.981       15.543        0.059      331.423       -0.571      867.926
01/02/2014  03:02:00      -86.966      -28.265       -6.669       11.490       15.215        8.339      132.021      231.495       69.544        0.442        0.022       91.444        5.559        0.004      331.447       -0.533      867.938
01/02/2014  03:03:00      -91.943      -21.426       -5.244       15.754       12.660       10.609      248.187      160.280      112.554        0.473        0.026       94.407        7.713        0.007      331.445       -0.536      867.951
01/02/2014  03:04:00      -91.819      -11.532       -9.945       18.686       16.161       12.171      349.180      261.165      148.124        0.471        0.038       92.541       10.178        0.012      331.304       -0.767      867.960
01/02/2014  03:05:00      -87.203       -2.070       -6.164       29.352       13.036       16.161      861.562      169.942      261.194        0.447        0.065       87.228       17.259        0.039      331.325       -0.732      867.954
01/02/2014  03:06:00      -85.881        0.071      -11.767       16.783       12.202       10.804      281.658      148.891      116.732        0.403        0.027       85.881        8.822        0.011      331.402       -0.606      867.942
01/02/2014  03:07:00      -69.341      -11.984       -9.172       21.926       15.714       15.030      480.756      246.922      225.891        0.299        0.048       70.369       15.070        0.046      331.340       -0.708      867.926
01/02/2014  03:08:00      -63.384      -14.716       -3.869       12.855       11.638       11.977      165.260      135.438      143.452        0.235        0.022       65.070        9.173        0.020      331.273       -0.816      867.911
01/02/2014  03:09:00      -52.697      -15.541       -7.187       10.460       11.900        9.615      109.411      141.619       92.452        0.171        0.017       54.940        4.193        0.006      331.258       -0.842      867.898
01/02/2014  03:10:00      -55.475      -12.187       -6.152       10.565        8.385        7.464      111.628       70.303       55.717        0.175        0.012       56.798        4.679        0.007      331.265       -0.831      867.882
01/02/2014  03:11:00      -41.539      -10.384       -8.877        7.607        8.283        4.994       57.861       68.602       24.942        0.103        0.008       42.818        4.441        0.011      331.419       -0.579      867.881
01/02/2014  03:12:00      -58.875      -18.580      -12.186       11.747       11.134        9.158      137.986      123.962       83.862        0.215        0.017       61.737        8.189        0.018      331.315       -0.749      867.882
01/02/2014  03:13:00     -103.669      -33.293      -17.612       19.441       14.224       12.011      377.966      202.312      144.255        0.645        0.036      108.884        8.096        0.006      331.082       -1.132      867.897
01/02/2014  03:14:00     -102.255       -9.099      -10.509       19.568       19.207       13.803      382.922      368.908      190.513        0.580        0.047      102.659       10.138        0.010      330.975       -1.310      867.917
01/02/2014  03:15:00      -95.096       -1.078      -11.206       23.104       16.443       15.321      533.804      270.361      234.726        0.510        0.052       95.103       10.123        0.011      331.010       -1.251      867.921
01/02/2014  03:16:00      -69.961      -16.300      -17.343       10.881       11.944        8.071      118.395      142.654       65.148        0.289        0.016       71.835        4.712        0.004      331.015       -1.243      867.932
01/02/2014  03:17:00      -83.880      -20.701      -15.374       13.019       13.518       13.627      169.498      182.736      185.694        0.412        0.027       86.397        7.043        0.007      331.030       -1.219      867.927
01/02/2014  03:18:00      -71.788      -18.373       -6.330       24.999       24.595       19.293      624.937      604.937      372.230        0.357        0.080       74.102       15.922        0.046      330.975       -1.309      867.920
01/02/2014  03:19:00      -63.646      -17.641      -12.550       21.041       17.127       16.017      442.741      293.348      256.536        0.276        0.050       66.046       15.280        0.054      331.050       -1.186      867.898
01/02/2014  03:20:00      -16.200       -1.814       -9.189       21.710       19.413        9.034      471.342      376.856       81.614        0.064        0.046       16.301        7.553        0.215      331.351       -0.691      867.867
01/02/2014  03:21:00      -10.680        8.954        0.934        9.186       10.406        8.181       84.383      108.282       66.930        0.023        0.013       13.937        3.770        0.073      331.576       -0.320      867.857
01/02/2014  03:22:00      -18.393        1.369        3.120       13.532       18.433        8.019      183.104      339.761       64.304        0.047        0.029       18.443        7.560        0.168      331.517       -0.419      867.844
01/02/2014  03:23:00      -51.664      -20.690       -7.518        8.264       12.211        8.691       68.287      149.118       75.539        0.172        0.015       55.653        5.064        0.008      331.084       -1.129      867.837
01/02/2014  03:24:00      -35.470       -9.675       -8.841       17.595       12.276        6.992      309.576      150.699       48.888        0.097        0.025       36.765        7.310        0.040      331.207       -0.927      867.824
01/02/2014  03:25:00        7.931       23.000       -4.117       11.513        9.665        7.246      132.540       93.421       52.501        0.044        0.014       24.329        2.461        0.010      331.634       -0.224      867.815
01/02/2014  03:26:00        9.278       22.683       -1.829        5.747        8.155        5.645       33.030       66.505       31.864        0.037        0.007       24.507        5.880        0.058      331.949        0.296      867.818
01/02/2014  03:27:00      -16.249       14.335       -0.508       20.835       11.893        9.380      434.105      141.442       87.990        0.057        0.033       21.669       12.765        0.347      331.707       -0.103      867.829
01/02/2014  03:28:00      -40.727      -12.608       -8.989        6.232        9.279        5.867       38.841       86.105       34.419        0.103        0.008       42.634        2.853        0.004      331.268       -0.826      867.835
01/02/2014  03:29:00      -30.769      -19.055       -8.563       13.018       12.611        8.182      169.458      159.042       66.944        0.089        0.020       36.191        8.078        0.050      331.280       -0.808      867.833
01/02/2014  03:30:00       -9.956        7.047        1.785        8.626        7.758        5.557       74.399       60.181       30.878        0.016        0.008       12.198        3.327        0.074      331.664       -0.175      867.822
01/02/2014  03:31:00       -5.680       -1.511        0.596        6.362        3.828        3.950       40.476       14.654       15.606        0.005        0.004        5.878        3.131        0.284      331.658       -0.184      867.815
01/02/2014  03:32:00      -32.007      -27.436       -7.082        9.856        8.453        6.108       97.136       71.452       37.306        0.102        0.010       42.156        4.522        0.012      331.564       -0.340      867.805
01/02/2014  03:33:00      -60.968      -24.507      -13.520       15.893        9.093        5.130      252.597       82.675       26.320        0.243        0.018       65.709        1.887        0.001      331.216       -0.911      867.793
01/02/2014  03:34:00      -86.260       -9.559      -12.583       13.940        9.661        8.416      194.315       93.337       70.832        0.402        0.018       86.788        4.433        0.003      331.099       -1.105      867.786
01/02/2014  03:35:00      -78.945       -4.677      -12.901       14.604       14.244       11.911      213.287      202.884      141.864        0.349        0.028       79.083       10.343        0.017      331.203       -0.934      867.772
01/02/2014  03:36:00      -84.989       -9.650      -14.904       10.082       10.605        8.534      101.647      112.473       72.836        0.391        0.014       85.535        5.107        0.004      331.199       -0.940      867.770
01/02/2014  03:37:00     -105.538      -21.265      -21.117       10.970       11.060        8.216      120.336      122.325       67.504        0.617        0.016      107.659        5.016        0.002      331.126       -1.060      867.772
01/02/2014  03:38:00     -100.495       -6.386      -13.698       19.207       13.371       12.196      368.908      178.776      148.730        0.551        0.035      100.697        9.006        0.008      331.122       -1.067      867.775
01/02/2014  03:39:00      -91.425       -0.988      -11.708       10.914       10.814        9.985      119.122      116.952       99.700        0.442        0.017       91.430        6.801        0.006      331.063       -1.163      867.766
01/02/2014  03:40:00      -78.747        1.192       -8.551       19.714       11.278        8.392      388.650      127.196       70.423        0.343        0.029       78.757        7.485        0.009      331.154       -1.013      867.754
01/02/2014  03:41:00      -82.805        7.907       -7.427        9.319        7.540        5.697       86.846       56.850       32.455        0.358        0.009       83.181        5.651        0.005      331.348       -0.694      867.738
01/02/2014  03:42:00      -74.836        1.640       -9.089       17.560       10.838       10.089      308.354      117.454      101.789        0.311        0.026       74.854        5.434        0.005      331.295       -0.781      867.731
01/02/2014  03:43:00      -93.489       -2.897      -16.066       14.568       17.250       10.321      212.224      297.569      106.521        0.481        0.031       93.534        8.782        0.009      331.229       -0.889      867.717
01/02/2014  03:44:00      -92.323       -6.973      -14.770       26.301       18.309       13.976      691.764      335.203      195.327        0.501        0.061       92.586       11.913        0.017      331.111       -1.084      867.712
01/02/2014  03:45:00      -78.739      -23.093      -12.166       15.342       19.417       13.705      235.380      377.037      187.817        0.384        0.040       82.055       12.058        0.022      331.034       -1.211      867.712
01/02/2014  03:46:00      -94.993      -13.981      -11.454       26.898       24.647       15.937      723.493      607.467      253.977        0.547        0.079       96.017       15.504        0.026      330.961       -1.331      867.711
01/02/2014  03:47:00      -85.846      -15.943      -11.314       31.949       24.448       15.084     1020.709      597.717      227.516        0.480        0.092       87.314       15.236        0.030      330.952       -1.345      867.712
01/02/2014  03:48:00      -77.934      -23.514      -10.026       21.061       28.925       13.570      443.585      836.648      184.151        0.410        0.073       81.404        4.837        0.004      330.964       -1.327      867.710
01/02/2014  03:49:00      -80.436      -15.899      -10.334       19.130       17.854       10.445      365.949      318.750      109.108        0.381        0.040       81.992       10.743        0.017      330.982       -1.297      867.714
01/02/2014  03:50:00      -58.504      -15.249       -4.991       28.643       17.259       14.157      820.397      297.870      200.408        0.250        0.066       60.458       16.179        0.072      330.983       -1.295      867.713
01/02/2014  03:51:00      -77.999       -6.841      -12.706       15.700       11.625        8.391      246.505      135.137       70.415        0.337        0.023       78.299        8.138        0.011      330.998       -1.269      867.717
01/02/2014  03:52:00      -60.398      -10.034      -11.807       15.546       11.091       11.173      241.678      123.016      124.835        0.219        0.024       61.226       12.064        0.039      331.050       -1.187      867.733
01/02/2014  03:53:00      -74.104      -23.718      -10.401       18.971       12.949       11.234      359.885      167.667      126.211        0.341        0.033       77.807        7.033        0.008      331.027       -1.223      867.757
01/02/2014  03:54:00     -106.312      -18.117      -13.526       21.371       17.157       14.823      456.712      294.364      219.732        0.639        0.049      107.845       11.768        0.012      330.919       -1.399      867.780
01/02/2014  03:55:00     -117.072      -18.926      -12.804       32.862       28.318       18.766     1079.897      801.918      352.172        0.823        0.112      118.592       11.906        0.010      330.903       -1.426      867.789
01/02/2014  03:56:00      -76.060      -19.905       -3.773       38.187       32.057       27.392     1458.218     1027.641      750.349        0.472        0.162       78.622       24.461        0.097      330.886       -1.454      867.792
01/02/2014  03:57:00      -69.123       -9.515       -9.739       33.607       28.604       16.010     1129.412      818.202      256.326        0.358        0.110       69.775       11.356        0.026      330.891       -1.445      867.791
01/02/2014  03:58:00      -73.434      -24.910       -8.519       24.815       24.127       12.763      615.764      582.109      162.902        0.372        0.068       77.544       11.745        0.023      330.908       -1.417      867.792
01/02/2014  03:59:00      -94.330      -21.230      -12.352       16.191       18.910       13.092      262.154      357.571      171.398        0.515        0.040       96.690        9.575        0.010      330.937       -1.370      867.801
01/02/2014  04:00:00     -110.019      -26.149       -9.291       27.500       29.145       14.721      756.250      849.455      216.708        0.735        0.091      113.084       12.136        0.012      330.958       -1.335      867.806
01/02/2014  04:01:00      -89.189      -50.023       -9.269       50.979       44.762       25.228     2598.884     2003.598      636.431        0.789        0.262      102.259       29.704        0.084      330.971       -1.314      867.823
01/02/2014  04:02:00     -113.676      -33.796      -13.191       39.686       27.820       22.568     1574.944      773.950      509.329        0.855        0.143      118.594       17.023        0.021      330.956       -1.339      867.835
01/02/2014  04:03:00      -69.333      -20.194       -5.774       28.208       29.125       20.472      795.689      848.279      419.088        0.366        0.103       72.214        1.642        0.001      331.005       -1.260      867.843
01/02/2014  04:04:00     -102.066      -28.593       -7.791       42.967       33.539       19.618     1846.160     1124.883      384.862        0.733        0.168      105.996       17.696        0.028      331.024       -1.230      867.848
01/02/2014  04:05:00      -56.221       -6.080        2.587       36.024       30.841       24.569     1297.756      951.152      603.621        0.303        0.143       56.548       20.560        0.132      331.050       -1.185      867.860
01/02/2014  04:06:00     -106.754       -5.424       -8.191       45.764       38.185       25.222     2094.344     1458.132      636.142        0.784        0.209      106.892       20.772        0.038      330.992       -1.281      867.872
01/02/2014  04:07:00     -135.567      -10.479      -13.867       41.430       31.804       22.503     1716.458     1011.495      506.388        1.096        0.162      135.972       21.790        0.026      331.076       -1.142      867.890
01/02/2014  04:08:00     -120.914      -45.238      -11.384       31.752       21.845       18.855     1008.166      477.188      355.521        0.932        0.092      129.099       16.182        0.016      331.097       -1.107      867.904
01/02/2014  04:09:00     -121.403      -33.065       -6.712       18.711       17.562       14.156      350.113      308.422      200.394        0.837        0.043      125.826       11.265        0.008      331.096       -1.110      867.905
01/02/2014  04:10:00      -91.911      -40.078      -15.043       21.418       21.232       10.598      458.733      450.807      112.309        0.565        0.051      100.268        4.928        0.002      331.111       -1.085      867.905
01/02/2014  04:11:00      -64.362      -29.355       -1.979       23.188       16.111       12.689      537.670      259.565      161.017        0.298        0.048       70.740       11.341        0.026      331.170       -0.988      867.908
01/02/2014  04:12:00      -68.904      -36.315       -9.630       26.552       10.336       10.847      705.013      106.836      117.665        0.354        0.046       77.888       13.763        0.031      331.167       -0.991      867.900
01/02/2014  04:13:00      -90.465      -19.297      -13.962       11.192        9.822        8.021      125.272       96.469       64.330        0.452        0.014       92.500        6.281        0.005      331.216       -0.912      867.899
01/02/2014  04:14:00      -89.247      -15.706      -16.716        9.994       13.619       10.269       99.876      185.486      105.447        0.444        0.020       90.618        6.424        0.005      331.273       -0.818      867.898
01/02/2014  04:15:00      -74.976      -35.149       -4.866       11.819       18.851       12.198      139.686      355.361      148.788        0.376        0.032       82.806        7.964        0.009      331.226       -0.894      867.908
01/02/2014  04:16:00      -84.357      -46.245       -9.132       11.526        9.690        9.665      132.846       93.902       93.408        0.483        0.016       96.202        6.069        0.004      331.221       -0.903      867.914
01/02/2014  04:17:00      -83.971      -36.402       -9.855       10.518       13.198        7.882      110.625      174.178       62.127        0.441        0.017       91.521        6.214        0.005      331.286       -0.795      867.935
01/02/2014  04:18:00      -62.031      -33.403       -4.788       17.405       10.038        9.773      302.922      100.769       95.517        0.274        0.025       70.453        8.941        0.016      331.335       -0.717      867.954
01/02/2014  04:19:00      -24.033      -22.257        3.753       15.686       11.100       10.602      246.046      123.210      112.394        0.078        0.024       32.756        8.470        0.067      331.303       -0.768      867.956
01/02/2014  04:20:00      -21.603      -13.235       -1.395       15.652       13.081        9.044      244.992      171.113       81.798        0.057        0.025       25.335        7.632        0.091      331.313       -0.751      867.956
01/02/2014  04:21:00      -19.486      -24.736        0.432       12.398       11.389        7.837      153.718      129.701       61.424        0.067        0.017       31.490        7.393        0.055      331.316       -0.747      867.940
01/02/2014  04:22:00      -16.661      -26.665       -1.134       14.951       13.779        8.401      223.518      189.863       70.583        0.074        0.024       31.442        5.626        0.032      331.266       -0.832      867.931
01/02/2014  04:23:00      -14.590       -6.903        3.727       18.131       15.821       10.990      328.728      250.304      120.789        0.049        0.035       16.140        9.649        0.357      331.164       -0.997      867.926
01/02/2014  04:24:00      -65.917      -18.250       -7.223       32.027       23.031       15.171     1025.746      530.445      230.164        0.326        0.089       68.397       14.119        0.043      331.136       -1.044      867.927
01/02/2014  04:25:00      -98.975      -62.739       -6.868       27.671       35.890       15.550      765.682     1288.083      241.797        0.804        0.115      117.185        9.909        0.007      331.247       -0.859      867.925
01/02/2014  04:26:00      -56.013      -47.227        4.935       39.933       38.460       22.654     1594.619     1479.149      513.189        0.449        0.179       73.265       19.183        0.069      331.251       -0.854      867.925
01/02/2014  04:27:00      -60.467      -50.009        5.407       39.090       29.715       25.734     1528.028      882.958      662.248        0.463        0.154       78.468       19.258        0.060      331.311       -0.756      867.923
01/02/2014  04:28:00      -85.521      -66.424        4.500       48.694       37.920       26.733     2371.097     1437.958      714.679        0.813        0.226      108.286       22.840        0.044      331.280       -0.807      867.924
01/02/2014  04:29:00     -121.256      -88.488        1.112       51.655       38.161       29.021     2668.264     1456.250      842.240        1.375        0.248      150.110       30.754        0.042      331.302       -0.770      867.927
01/02/2014  04:30:00      -67.297      -51.906        7.777       55.921       30.179       32.224     3127.134      910.747     1038.366        0.618        0.254       84.989       31.068        0.134      331.251       -0.855      867.937
01/02/2014  04:31:00     -111.770      -78.442       -7.900       38.234       28.495       28.100     1461.823      811.973      789.609        1.089        0.153      136.550       18.228        0.018      331.326       -0.731      867.952
01/02/2014  04:32:00     -103.105      -62.218        1.289       50.390       29.823       21.777     2539.152      889.384      474.258        0.920        0.195      120.423       17.340        0.021      331.262       -0.835      867.958
01/02/2014  04:33:00      -35.927      -27.444       -0.582       38.347       33.417       21.515     1470.516     1116.692      462.875        0.255        0.153       45.210       19.767        0.191      331.272       -0.820      867.971
01/02/2014  04:34:00      -72.326      -49.919        3.856       36.613       22.373       15.972     1340.538      500.530      255.091        0.492        0.105       87.880       14.947        0.029      331.258       -0.843      867.975
01/02/2014  04:35:00      -38.821      -27.378        1.189       35.322       28.348       15.698     1247.674      803.606      246.440        0.228        0.115       47.504       13.442        0.080      331.313       -0.752      867.979
01/02/2014  04:36:00      -81.055      -29.607       -5.096       23.601       26.252       16.226      557.028      689.189      263.291        0.449        0.075       86.293       11.755        0.019      331.177       -0.977      867.982
01/02/2014  04:37:00      -57.967      -34.482        7.574       34.689       24.791       13.363     1203.307      614.607      178.570        0.330        0.100       67.448       14.073        0.044      331.165       -0.996      867.990
01/02/2014  04:38:00      -10.512      -12.920       10.354       33.526       17.525       17.256     1123.960      307.135      297.760        0.106        0.086       16.656       17.051        1.048      331.189       -0.957      868.000
01/02/2014  04:39:00      -30.475      -19.641       -0.892       23.621       15.377       12.977      557.967      236.453      168.392        0.114        0.048       36.256       10.915        0.091      331.191       -0.954      868.001
01/02/2014  04:40:00      -15.208      -13.794        6.477       26.548       16.337       14.399      704.779      266.887      207.335        0.082        0.059       20.532       13.735        0.448      331.184       -0.965      867.993
01/02/2014  04:41:00       -9.890      -13.126        5.826       28.843       20.859       12.441      831.937      435.109      154.788        0.086        0.071       16.435       14.754        0.806      331.176       -0.979      867.989
01/02/2014  04:42:00      -38.409      -28.842        0.317       33.671       14.062       10.163     1133.705      197.728      103.287        0.187        0.072       48.032        7.780        0.026      331.252       -0.851      867.982
01/02/2014  04:43:00       -0.603      -10.714       -0.679       10.576        9.312       10.819      111.853       86.714      117.060        0.022        0.016       10.731        6.904        0.414      331.345       -0.699      867.979
01/02/2014  04:44:00       -0.574       -5.662        0.749        7.415        7.551        8.971       54.978       57.019       80.484        0.011        0.010        5.691        3.548        0.389      331.420       -0.575      867.979
01/02/2014  04:45:00        1.770        7.469       14.979        5.918        8.542        5.661       35.020       72.960       32.042        0.021        0.007        7.676        5.560        0.525      331.330       -0.724      867.969
01/02/2014  04:46:00       -8.082        0.807       15.415        8.058       21.895       11.380       64.931      479.412      129.496        0.049        0.034        8.122       13.829        2.899      331.263       -0.835      867.964
01/02/2014  04:47:00      -35.953        3.528        0.275       14.284       15.044        8.588      204.035      226.309       73.750        0.090        0.025       36.126        4.397        0.015      331.275       -0.814      867.947
01/02/2014  04:48:00      -64.464       -7.941       -7.486        8.794        8.203        5.927       77.333       67.283       35.129        0.223        0.009       64.951        2.756        0.002      331.123       -1.065      867.947
01/02/2014  04:49:00      -60.571       -2.163       -4.362        8.870        7.229        5.538       78.685       52.261       30.674        0.193        0.008       60.610        2.959        0.002      331.065       -1.162      867.945
01/02/2014  04:50:00      -37.149      -21.235        1.008       16.121       11.837        9.648      259.872      140.120       93.079        0.116        0.025       42.790        9.354        0.048      330.994       -1.275      867.952
01/02/2014  04:51:00      -62.776      -11.499       -5.348       16.749       13.716        9.640      280.528      188.125       92.936        0.233        0.028       63.821        7.149        0.013      330.988       -1.287      867.961
01/02/2014  04:52:00      -65.401      -10.967       -9.621       10.426        9.613        9.583      108.693       92.401       91.836        0.239        0.015       66.314        7.211        0.012      331.026       -1.224      867.964
01/02/2014  04:53:00      -54.291       -8.258       -3.124        8.387        8.775        7.447       70.349       77.009       55.460        0.161        0.010       54.915        3.771        0.005      331.070       -1.153      867.961
01/02/2014  04:54:00      -60.558      -11.834       -4.641       10.662        7.515        7.414      113.678       56.480       54.971        0.203        0.011       61.703        3.782        0.004      331.077       -1.139      867.965
01/02/2014  04:55:00      -55.730      -19.634       -0.653        6.926        7.337        5.740       47.965       53.828       32.950        0.181        0.007       59.087        3.610        0.004      331.066       -1.158      867.963
01/02/2014  04:56:00      -53.680      -15.303       -5.969       10.307       10.513        5.421      106.232      110.533       29.387        0.170        0.012       55.819        3.388        0.004      331.081       -1.133      867.967
01/02/2014  04:57:00      -43.019       -8.233       -3.382       13.347       10.088        7.354      178.137      101.766       54.076        0.113        0.017       43.800        3.474        0.006      331.089       -1.121      867.967
01/02/2014  04:58:00      -42.138      -11.020       -1.486        8.829        9.193        5.384       77.945       84.513       28.985        0.105        0.010       43.555        3.931        0.008      331.066       -1.158      867.953
01/02/2014  04:59:00      -45.281       -7.357       -3.624        8.899        8.696        4.760       79.185       75.619       22.656        0.115        0.009       45.874        3.347        0.005      331.093       -1.114      867.945
01/02/2014  05:00:00      -37.706      -16.129       -5.186        8.255        6.343        4.764       68.147       40.239       22.700        0.092        0.007       41.011        3.039        0.005      331.054       -1.177      867.931
01/02/2014  05:01:00      -41.380       -8.692      -11.000       13.179        6.190        4.264      173.698       38.316       18.179        0.107        0.012       42.283        1.683        0.002      331.083       -1.131      867.930
01/02/2014  05:02:00      -63.645      -11.225      -11.646        7.286        7.135        6.538       53.092       50.906       42.746        0.223        0.007       64.627        3.698        0.003      331.075       -1.144      867.935
01/02/2014  05:03:00      -80.217      -12.232       -4.630       14.020       12.525       10.380      196.566      156.885      107.750        0.353        0.023       81.144        7.468        0.008      330.971       -1.315      867.942
01/02/2014  05:04:00      -68.168      -20.210       -7.351       14.491       19.466       10.970      210.001      378.936      120.346        0.291        0.035       71.101        7.258        0.010      330.926       -1.388      867.958
01/02/2014  05:05:00      -61.462      -22.116       -7.462       14.833       19.818       10.402      220.014      392.750      108.212        0.252        0.036       65.320        9.433        0.021      330.797       -1.602      867.966
01/02/2014  05:06:00      -76.469       -0.437       -6.372       15.407        7.540        6.984      237.367       56.852       48.773        0.312        0.017       76.470        5.167        0.005      330.824       -1.557      867.968
01/02/2014  05:07:00      -50.974       -9.562      -10.091        8.889        9.232        8.345       79.022       85.236       69.634        0.151        0.012       51.863        6.095        0.014      330.815       -1.573      867.962
01/02/2014  05:08:00      -68.474      -16.251       -5.636       15.909       14.986        9.309      253.097      224.575       86.649        0.277        0.028       70.376        8.424        0.014      330.823       -1.557      867.959
01/02/2014  05:09:00     -109.117      -18.670      -10.669       18.749       18.891       14.021      351.531      356.865      196.600        0.664        0.045      110.703       10.154        0.008      330.776       -1.637      867.966
01/02/2014  05:10:00     -106.123      -27.258      -15.956       16.511       15.652       10.633      272.605      244.978      113.066        0.645        0.032      109.568        5.565        0.003      330.713       -1.738      867.970
01/02/2014  05:11:00      -54.374      -35.245       -8.154       28.916       17.007       16.541      836.110      289.248      273.610        0.283        0.070       64.798       12.878        0.040      330.699       -1.761      867.978
01/02/2014  05:12:00      -91.455       -6.496       -7.813       22.952       12.903       11.376      526.801      166.489      129.424        0.464        0.041       91.686       12.013        0.017      330.651       -1.840      867.990
01/02/2014  05:13:00      -77.305       -9.544       -8.701       23.915        9.821        9.392      571.939       96.449       88.211        0.345        0.038       77.892        9.449        0.015      330.675       -1.801      867.994
01/02/2014  05:14:00      -89.364       -0.913       -6.902       20.301       14.263       10.567      412.111      203.434      111.665        0.438        0.036       89.368        8.925        0.010      330.732       -1.708      867.998
01/02/2014  05:15:00     -102.708       -3.656      -11.054        8.021       12.247        7.005       64.334      149.990       49.069        0.547        0.013      102.773        5.502        0.003      330.757       -1.667      867.998
01/02/2014  05:16:00      -99.863      -17.303       -7.959       19.420       13.322       12.270      377.135      177.465      150.543        0.552        0.035      101.351       11.388        0.013      330.746       -1.685      867.997
01/02/2014  05:17:00      -94.435      -36.823       -4.818       14.920       16.662        8.374      222.599      277.613       70.118        0.543        0.029      101.360        3.528        0.001      330.773       -1.641      867.998
01/02/2014  05:18:00      -73.880      -38.311        0.898       16.331       14.497       11.801      266.707      210.171      139.255        0.377        0.031       83.223        6.085        0.005      330.769       -1.647      867.999
01/02/2014  05:19:00      -45.763      -27.986        4.900       25.619       21.435       16.510      656.335      459.465      272.586        0.214        0.069       53.642       14.454        0.073      330.799       -1.598      868.009
01/02/2014  05:20:00      -44.348      -48.640       -2.063       27.609       30.351       17.046      762.262      921.178      290.569        0.316        0.099       65.823        8.529        0.017      330.855       -1.505      868.012
01/02/2014  05:21:00      -73.161      -56.719        2.837       27.849       20.028       15.914      775.550      401.122      253.257        0.500        0.071       92.572       13.504        0.021      330.927       -1.387      868.003
01/02/2014  05:22:00      -82.714      -55.687       -0.524       36.836       22.988       13.235     1356.900      528.466      175.175        0.600        0.103       99.713        8.976        0.008      330.983       -1.295      867.999
01/02/2014  05:23:00      -73.253      -37.717        1.832       39.083       25.950       17.568     1527.449      673.426      308.634        0.465        0.125       82.393       18.505        0.050      330.929       -1.383      867.995
01/02/2014  05:24:00      -75.207      -43.759        0.041       32.696       23.448       17.298     1069.033      549.816      299.216        0.474        0.096       87.011       14.187        0.027      330.924       -1.391      867.991
01/02/2014  05:25:00      -66.333      -33.392        3.387       24.081       18.186       11.921      579.886      330.714      142.111        0.329        0.053       74.264        8.341        0.013      330.877       -1.469      867.979
01/02/2014  05:26:00      -56.347      -26.092        1.331       29.168       20.774       12.629      850.763      431.575      159.490        0.265        0.072       62.095       11.064        0.032      330.908       -1.417      867.972
01/02/2014  05:27:00      -50.071      -19.192       -0.116       30.436       16.298       10.505      926.360      265.632      110.365        0.209        0.065       53.623       14.632        0.074      330.948       -1.354      867.965
01/02/2014  05:28:00      -18.989      -21.459        6.930       17.302       17.923       10.521      299.359      321.243      110.697        0.080        0.037       28.654       10.209        0.127      331.007       -1.255      867.963
01/02/2014  05:29:00      -19.528      -14.632        4.429       21.710       18.359       13.683      471.316      337.066      187.217        0.081        0.050       24.401       11.538        0.224      330.946       -1.354      867.964
01/02/2014  05:30:00      -38.852      -21.712       -5.018       27.321       13.263       11.173      746.414      175.901      124.842        0.153        0.052       44.507       11.597        0.068      330.788       -1.616      867.963
01/02/2014  05:31:00      -83.425      -40.332       -5.725       15.676       13.052       10.563      245.752      170.355      111.586        0.457        0.026       92.663        5.552        0.004      330.781       -1.626      867.958
01/02/2014  05:32:00      -94.117      -23.550       -7.681       15.880       20.161       10.079      252.172      406.455      101.584        0.512        0.038       97.019        5.065        0.003      330.789       -1.612      867.964
01/02/2014  05:33:00      -82.284       -7.515       -1.065       20.760       14.838       14.689      430.961      220.155      215.767        0.385        0.043       82.626       13.244        0.026      330.791       -1.611      867.963
01/02/2014  05:34:00      -65.857       -9.365        3.599       38.233       23.537       16.147     1461.783      554.013      260.724        0.336        0.114       66.519       19.640        0.087      330.745       -1.685      867.958
01/02/2014  05:35:00      -85.272       -6.377       -3.203       28.027       20.163       13.365      785.499      406.527      178.611        0.435        0.069       85.510       11.724        0.019      330.788       -1.614      867.949
01/02/2014  05:36:00      -76.955      -12.941       -1.742       24.462       23.060       13.823      598.400      531.754      191.070        0.371        0.066       78.036       14.775        0.036      330.757       -1.666      867.940
01/02/2014  05:37:00      -91.195      -15.789       -6.481       26.538       17.989       15.462      704.277      323.616      239.066        0.494        0.063       92.552       16.972        0.034      330.748       -1.681      867.929
01/02/2014  05:38:00      -41.417      -28.007        8.204       28.220       27.869       18.020      796.394      776.676      324.722        0.223        0.095       49.997       13.684        0.075      330.722       -1.723      867.928
01/02/2014  05:39:00      -92.916      -28.083       -8.470       37.969       15.025       14.425     1441.679      225.753      208.082        0.568        0.094       97.067       20.146        0.043      330.781       -1.628      867.931
01/02/2014  05:40:00      -85.499      -35.403       -2.211       28.353       22.269       15.282      803.885      495.915      233.545        0.505        0.077       92.539       12.485        0.018      330.637       -1.863      867.940
01/02/2014  05:41:00     -100.901      -17.296       -8.503       26.325       24.704       11.530      692.984      610.301      132.933        0.599        0.072      102.372        7.259        0.005      330.618       -1.893      867.938
01/02/2014  05:42:00      -80.380       -5.029        0.080       26.839       20.164       10.926      720.310      406.581      119.379        0.387        0.062       80.537       11.280        0.020      330.683       -1.789      867.935
01/02/2014  05:43:00      -96.572       -6.911       -9.915       29.656       18.226       16.542      879.478      332.193      273.653        0.548        0.074       96.819       17.856        0.034      330.657       -1.828      867.936
01/02/2014  05:44:00     -124.783      -24.450      -10.853       16.535       17.331       11.893      273.421      300.353      141.454        0.850        0.036      127.156        9.852        0.006      330.642       -1.854      867.951
01/02/2014  05:45:00     -115.538      -26.756       -4.492       20.844       21.304       11.685      434.488      453.858      136.548        0.755        0.051      118.595        8.138        0.005      330.606       -1.913      867.968
01/02/2014  05:46:00      -88.225      -26.721       -2.232       32.175       32.165       22.258     1035.249     1034.564      495.424        0.553        0.128       92.183       18.747        0.041      330.716       -1.733      867.978
01/02/2014  05:47:00      -79.927      -15.963        3.849       33.498       28.532       15.484     1122.083      814.075      239.759        0.442        0.109       81.505       13.342        0.027      330.800       -1.595      867.974
01/02/2014  05:48:00     -106.729      -27.009       -5.433       22.535       22.169       14.893      507.834      491.450      221.796        0.669        0.061      110.094       12.470        0.013      330.795       -1.605      867.969
01/02/2014  05:49:00     -110.115      -29.219       -3.751       21.920       22.440       13.408      480.488      503.573      179.764        0.708        0.058      113.926       10.663        0.009      330.894       -1.440      867.971
01/02/2014  05:50:00     -109.821      -39.896       -2.831       13.850       21.918       12.296      191.809      480.382      151.203        0.724        0.041      116.843        8.252        0.005      330.877       -1.469      867.984
01/02/2014  05:51:00      -88.558      -52.573       -4.056       25.131       28.075       16.403      631.589      788.208      269.045        0.616        0.084      102.988       13.325        0.017      330.929       -1.382      867.992
01/02/2014  05:52:00     -103.819      -59.665       -1.555       23.589       22.335       12.130      556.440      498.847      147.133        0.777        0.060      119.743       11.581        0.009      330.997       -1.272      867.990
01/02/2014  05:53:00      -78.437      -46.651       -2.003       28.742       20.634       15.286      826.079      425.781      233.661        0.491        0.074       91.262       12.022        0.017      330.961       -1.330      867.989
01/02/2014  05:54:00     -102.817      -52.046       -2.766       25.592       19.252       13.716      654.951      370.643      188.136        0.725        0.061      115.239        5.458        0.002      331.066       -1.158      867.980
01/02/2014  05:55:00      -84.733      -29.665       -1.645       23.978       25.530       16.260      574.931      651.801      264.383        0.478        0.075       89.775       12.405        0.019      331.019       -1.238      867.979
01/02/2014  05:56:00      -56.819      -15.271        4.970       34.355       22.201       12.767     1180.273      492.889      163.008        0.266        0.092       58.836       15.183        0.067      330.971       -1.315      867.976
01/02/2014  05:57:00      -46.784       -5.368       -4.595       32.163       19.648       15.690     1034.482      386.047      246.163        0.195        0.083       47.091       14.596        0.096      331.055       -1.176      867.975
01/02/2014  05:58:00      -56.186        7.629       -2.748       15.625       14.822       10.599      244.137      219.686      112.338        0.190        0.029       56.701        9.162        0.026      331.060       -1.168      867.980
01/02/2014  05:59:00      -38.987      -18.780       -0.964       16.852       24.997       11.489      284.001      624.837      131.989        0.146        0.052       43.275        9.925        0.053      330.944       -1.358      867.984
01/02/2014  06:00:00      -61.221      -30.055       -4.835       18.616       15.641       10.713      346.556      244.646      114.773        0.269        0.035       68.201        9.068        0.018      330.789       -1.615      867.983
01/02/2014  06:01:00      -42.292       -9.115        3.146       21.936       15.734       12.299      481.194      247.549      151.261        0.138        0.044       43.263       12.124        0.079      330.640       -1.859      867.977
01/02/2014  06:02:00      -61.831       -1.011       -2.254       27.331       16.003        9.867      746.991      256.094       97.348        0.246        0.055       61.839        8.862        0.021      330.559       -1.990      867.976
01/02/2014  06:03:00      -92.160       -9.155       -1.343       27.573       16.946       13.350      760.247      287.154      178.216        0.490        0.061       92.614       13.323        0.021      330.492       -2.101      867.976
01/02/2014  06:04:00      -77.913       -8.387        0.811       23.615       19.619       15.830      557.667      384.890      250.593        0.367        0.060       78.363       15.399        0.039      330.535       -2.030      867.975
01/02/2014  06:05:00      -93.186       -7.229       -4.816       27.522       17.664       16.149      757.444      312.005      260.795        0.504        0.067       93.466       14.189        0.023      330.482       -2.117      867.969
01/02/2014  06:06:00      -70.350       -1.959       -2.178       25.238       13.691       13.915      636.976      187.437      193.618        0.299        0.051       70.377       15.037        0.046      330.520       -2.054      867.961
01/02/2014  06:07:00      -78.245       -1.028       -5.963       21.441       14.665       14.825      459.708      215.052      219.786        0.353        0.045       78.251       13.722        0.031      330.550       -2.005      867.969
01/02/2014  06:08:00      -69.653       -5.481       -7.605       22.100       12.252       11.130      488.408      150.110      123.874        0.285        0.038       69.869       12.070        0.030      330.596       -1.930      867.981
01/02/2014  06:09:00      -58.065       -5.637       -7.144       12.662       10.859       10.795      160.316      117.925      116.532        0.192        0.020       58.338        9.002        0.024      330.502       -2.086      867.994
01/02/2014  06:10:00      -49.568       -3.891       -8.731       12.193        8.200        6.002      148.667       67.243       36.029        0.140        0.013       49.721        4.645        0.009      330.506       -2.078      868.002
01/02/2014  06:11:00      -31.566      -12.036       -7.201        9.909        8.068        7.006       98.193       65.091       49.079        0.070        0.011       33.783        3.653        0.012      330.535       -2.030      867.998
01/02/2014  06:12:00      -23.186      -23.539       -4.125        8.565        7.902        9.128       73.360       62.440       83.327        0.066        0.011       33.041        5.060        0.023      330.528       -2.040      867.986
01/02/2014  06:13:00       -8.254      -23.568        4.710       14.481        9.853       10.942      209.692       97.084      119.719        0.054        0.021       24.972        9.319        0.139      330.618       -1.894      867.968
01/02/2014  06:14:00      -25.613      -11.906        5.734       15.845       16.128        9.298      251.075      260.115       86.461        0.071        0.030       28.245        6.427        0.052      330.558       -1.992      867.949
01/02/2014  06:15:00      -51.464      -15.491      -11.206       10.083       11.598        9.183      101.658      134.522       84.331        0.167        0.016       53.745        2.099        0.002      330.470       -2.136      867.933
01/02/2014  06:16:00      -30.657       -7.286       -9.501        9.708        8.790        8.011       94.239       77.258       64.179        0.066        0.012       31.511        5.953        0.036      330.533       -2.032      867.923
01/02/2014  06:17:00      -29.239        1.697       -1.739        5.573        5.055        5.199       31.060       25.549       27.024        0.047        0.004       29.288        3.232        0.012      330.510       -2.070      867.914
01/02/2014  06:18:00      -21.437        5.033       -1.669        8.606        7.365        4.823       74.063       54.250       23.260        0.032        0.008       22.020        3.232        0.022      330.712       -1.741      867.898
01/02/2014  06:19:00      -41.123      -19.561       -6.116        9.281        8.783        6.961       86.143       77.142       48.462        0.116        0.011       45.538        3.192        0.005      330.566       -1.978      867.895
01/02/2014  06:20:00      -52.731      -16.550       -9.014        9.561        9.143        7.253       91.406       83.593       52.610        0.168        0.011       55.267        4.930        0.008      330.434       -2.195      867.901
01/02/2014  06:21:00      -61.671      -13.059       -7.437       11.401       10.604        7.875      129.978      112.443       62.018        0.217        0.015       63.038        5.502        0.008      330.503       -2.083      867.901
01/02/2014  06:22:00      -42.823       -3.026        3.705       22.028       10.186       11.743      485.223      103.756      137.901        0.129        0.036       42.929       12.544        0.085      330.469       -2.138      867.896
01/02/2014  06:23:00      -58.947        5.495       -8.585       14.884       13.419        8.169      221.520      180.069       66.733        0.202        0.023       59.202        5.370        0.008      330.475       -2.129      867.886
01/02/2014  06:24:00      -57.129        1.019       -8.538       17.621       11.175       12.527      310.501      124.879      156.930        0.196        0.030       57.139        7.000        0.015      330.488       -2.106      867.885
01/02/2014  06:25:00      -57.989       -3.597      -12.335       14.231       10.717        6.675      202.532      114.863       44.557        0.194        0.018       58.100        4.801        0.007      330.474       -2.130      867.884
01/02/2014  06:26:00      -68.428       -6.085      -16.321        7.947        6.750        6.106       63.157       45.565       37.289        0.257        0.007       68.698        1.791        0.001      330.449       -2.170      867.890
01/02/2014  06:27:00      -57.154      -11.516       -7.783        9.806        6.966        7.744       96.150       48.527       59.974        0.183        0.010       58.303        3.379        0.003      330.555       -1.996      867.888
01/02/2014  06:28:00      -56.578      -13.516       -8.468       10.388        8.688        6.383      107.915       75.489       40.739        0.184        0.011       58.170        2.140        0.001      330.671       -1.806      867.890
01/02/2014  06:29:00      -63.826       -5.869      -11.326       12.200        7.811        6.509      148.851       61.004       42.363        0.224        0.013       64.095        5.171        0.007      330.488       -2.108      867.897
01/02/2014  06:30:00      -76.737      -10.752      -13.358       19.813       13.029       11.224      392.572      169.753      125.986        0.344        0.034       77.487        8.467        0.012      330.435       -2.195      867.899
01/02/2014  06:31:00     -102.905       -5.277      -12.583       15.253       14.686       14.309      232.655      215.683      204.750        0.571        0.033      103.040       10.123        0.010      330.388       -2.270      867.900
01/02/2014  06:32:00      -72.467       -4.699       -8.457       30.525       17.197       13.924      931.799      295.725      193.888        0.338        0.071       72.619       13.457        0.034      330.347       -2.338      867.887
01/02/2014  06:33:00      -77.208       -1.052       -6.211       21.771       15.681       10.802      473.960      245.909      116.674        0.342        0.042       77.215        9.624        0.016      330.338       -2.354      867.875
01/02/2014  06:34:00      -61.916       -4.836       -5.717        9.204        7.972        6.545       84.722       63.547       42.831        0.204        0.010       62.105        4.159        0.004      330.471       -2.136      867.863
01/02/2014  06:35:00      -55.887        3.203      -10.679       11.361        7.190        7.534      129.082       51.690       56.768        0.174        0.012       55.979        3.300        0.003      330.551       -2.004      867.850
01/02/2014  06:36:00      -24.621        3.279       -4.830       18.413        4.035        6.969      339.027       16.278       48.563        0.052        0.020       24.839        7.152        0.083      330.748       -1.679      867.845
01/02/2014  06:37:00      -29.411       -5.457       -2.107        4.875       11.531        5.573       23.764      132.953       31.057        0.054        0.009       29.913        3.281        0.012      330.677       -1.798      867.840
01/02/2014  06:38:00      -28.145      -21.301       -2.095        8.890        8.813        5.971       79.036       77.661       35.658        0.072        0.010       35.297        2.817        0.006      330.647       -1.847      867.829
01/02/2014  06:39:00      -35.322      -15.044       -5.196        8.732        7.915        6.039       76.252       62.640       36.472        0.084        0.009       38.392        4.174        0.012      330.597       -1.927      867.823
01/02/2014  06:40:00      -43.029      -18.089       -8.938        9.203        9.790        5.886       84.694       95.850       34.648        0.124        0.011       46.677        3.684        0.006      330.618       -1.894      867.815
01/02/2014  06:41:00      -23.526      -18.272        0.594       13.341       12.326        9.944      177.994      151.921       98.881        0.066        0.021       29.788        9.206        0.096      330.590       -1.940      867.821
01/02/2014  06:42:00      -36.661      -15.443       -5.315        6.193        7.183        5.766       38.353       51.599       33.251        0.087        0.006       39.780        2.077        0.003      330.562       -1.986      867.823
01/02/2014  06:43:00      -40.248      -18.617       -4.907        8.869        7.527        7.078       78.652       56.652       50.092        0.109        0.009       44.345        4.129        0.009      330.567       -1.978      867.831
01/02/2014  06:44:00      -49.527       -3.039       -1.228       12.175        9.607        9.440      148.239       92.304       89.108        0.140        0.016       49.620        5.293        0.011      330.463       -2.147      867.841
01/02/2014  06:45:00      -55.368       -2.588       -4.875       18.055       14.177        9.444      325.995      200.973       89.192        0.186        0.031       55.429        6.151        0.012      330.456       -2.161      867.846
01/02/2014  06:46:00      -74.427        1.625       -7.170        8.805        6.180        6.731       77.521       38.195       45.301        0.288        0.008       74.445        3.354        0.002      330.517       -2.059      867.848
01/02/2014  06:47:00      -71.477        9.281       -7.703       15.319        8.838        7.582      234.659       78.113       57.490        0.281        0.019       72.077        2.999        0.002      330.502       -2.083      867.843
01/02/2014  06:48:00      -69.942       -4.512       -6.126       15.178        9.638        9.841      230.375       92.884       96.846        0.268        0.021       70.088        7.887        0.013      330.480       -2.120      867.845
01/02/2014  06:49:00      -60.977      -20.012       -4.930       13.356       11.403        8.435      178.373      130.024       71.156        0.226        0.019       64.177        6.870        0.011      330.491       -2.101      867.840
01/02/2014  06:50:00      -51.418      -11.645       -8.097       12.056       11.891        8.486      145.355      141.385       72.014        0.160        0.018       52.720        4.085        0.006      330.433       -2.200      867.842
01/02/2014  06:51:00      -26.016       -7.098       -3.122        8.026        5.511        5.057       64.411       30.367       25.568        0.043        0.006       26.967        3.036        0.013      330.404       -2.248      867.846
01/02/2014  06:52:00      -17.784       -1.750       -3.924        7.528        6.148        7.795       56.677       37.792       60.769        0.024        0.008       17.870        3.314        0.034      330.448       -2.175      867.838
01/02/2014  06:53:00      -14.039       -0.647       -3.815        7.768        5.817        4.590       60.345       33.839       21.070        0.016        0.006       14.054        1.245        0.008      330.519       -2.056      867.840
01/02/2014  06:54:00       -5.013        1.173       -3.996        8.464        4.297        2.802       71.633       18.461        7.852        0.007        0.005        5.148        1.524        0.088      330.548       -2.008      867.834
01/02/2014  06:55:00       -2.618        4.709        6.390        4.372        6.058        5.681       19.118       36.700       32.276        0.008        0.004        5.388        4.983        0.855      330.602       -1.920      867.829
01/02/2014  06:56:00      -15.865        0.797       -0.154       15.055       15.687        6.915      226.651      246.081       47.815        0.039        0.026       15.885        8.477        0.285      330.572       -1.967      867.841
01/02/2014  06:57:00      -36.856       -9.585       -2.661        7.870        7.998        6.880       61.935       63.974       47.335        0.082        0.009       38.082        5.373        0.020      330.504       -2.081      867.858
01/02/2014  06:58:00      -39.553      -12.107      -10.687        4.827        6.525        5.153       23.302       42.578       26.551        0.096        0.005       41.365        2.895        0.005      330.479       -2.121      867.886
01/02/2014  06:59:00      -43.225       -2.555       -3.629        5.964        4.482        6.537       35.571       20.087       42.738        0.099        0.005       43.301        2.542        0.003      330.564       -1.984      867.893
01/02/2014  07:00:00      -53.711       -2.622       -2.789        7.594        8.545        5.687       57.671       73.012       32.337        0.153        0.008       53.775        2.018        0.001      330.583       -1.951      867.898
01/02/2014  07:01:00      -43.338      -10.139       -8.939       15.830        7.892        7.851      250.585       62.286       61.641        0.122        0.019       44.508        7.405        0.028      330.520       -2.054      867.897
01/02/2014  07:02:00      -35.924      -11.688       -7.752        6.757        9.585        7.774       45.652       91.880       60.442        0.084        0.010       37.778        5.397        0.020      330.512       -2.068      867.897
01/02/2014  07:03:00      -40.280       -3.643       -1.109        7.483        6.993        6.681       55.999       48.903       44.632        0.089        0.007       40.445        3.286        0.007      330.434       -2.197      867.891
01/02/2014  07:04:00      -41.549       -5.083       -5.838        6.538        6.402        4.867       42.741       40.984       23.691        0.095        0.005       41.858        2.247        0.003      330.410       -2.235      867.895
01/02/2014  07:05:00      -31.652       -3.989       -3.559        6.089        4.866        3.936       37.078       23.677       15.489        0.055        0.004       31.902        1.359        0.002      330.474       -2.128      867.890
01/02/2014  07:06:00       -6.573        5.081        0.254       12.577        8.528       10.760      158.168       72.719      115.773        0.021        0.017        8.308       10.929        1.730      330.618       -1.895      867.889
01/02/2014  07:07:00       10.919        5.811        8.996        8.613        4.969        5.969       74.183       24.692       35.634        0.018        0.007       12.369        2.747        0.049      330.696       -1.768      867.890
01/02/2014  07:08:00       13.152        7.984        4.282       11.492        6.590        6.447      132.069       43.429       41.563        0.024        0.011       15.386        5.670        0.136      330.805       -1.587      867.894
01/02/2014  07:09:00        0.853       -0.636        9.684        7.178        6.023        4.477       51.528       36.275       20.047        0.010        0.005        1.064        2.625        6.081      330.780       -1.629      867.909
01/02/2014  07:10:00      -23.911        0.196       -0.382       11.401       11.610        8.495      129.990      134.784       72.163        0.045        0.017       23.912        9.375        0.154      330.614       -1.901      867.927
01/02/2014  07:11:00      -51.807      -21.029       -9.179        9.255       11.033        7.063       85.662      121.734       49.883        0.173        0.013       55.913        5.545        0.010      330.347       -2.338      867.943
01/02/2014  07:12:00      -79.620       -1.172      -11.639       16.457       17.985       10.402      270.833      323.447      108.211        0.359        0.035       79.629        8.264        0.011      330.237       -2.518      867.954
01/02/2014  07:13:00      -98.182        5.170      -15.282       17.871       10.138       11.366      319.374      102.779      129.189        0.523        0.028       98.318        4.826        0.002      330.198       -2.581      867.956
01/02/2014  07:14:00      -84.592       -0.412      -12.406       15.408       14.031       12.991      237.399      196.866      168.778        0.396        0.030       84.593        8.281        0.010      330.141       -2.677      867.960
01/02/2014  07:15:00      -76.928       -0.468      -17.484       14.729       13.625       10.343      216.956      185.644      106.976        0.337        0.025       76.930        9.102        0.014      330.154       -2.657      867.956
01/02/2014  07:16:00      -68.736       -6.590       -7.577       15.885       17.191       10.386      252.318      295.538      107.870        0.274        0.033       69.051        9.621        0.019      330.193       -2.591      867.952
01/02/2014  07:17:00      -63.429       -4.540       -8.861       14.234       15.160        9.238      202.605      229.826       85.347        0.232        0.026       63.591        6.083        0.009      330.273       -2.459      867.951
01/02/2014  07:18:00      -62.711       -6.073       -8.303       17.842       15.968       11.431      318.342      254.973      130.677        0.237        0.035       63.004        7.340        0.014      330.301       -2.413      867.955
01/02/2014  07:19:00      -45.105       -6.594       -5.892       14.391        9.977        8.844      207.090       99.547       78.221        0.125        0.019       45.585        7.847        0.030      330.324       -2.373      867.953
01/02/2014  07:20:00      -44.404       -1.641      -14.603       15.549       14.504       10.073      241.765      210.380      101.456        0.137        0.028       44.435       10.895        0.060      330.420       -2.219      867.950
01/02/2014  07:21:00      -19.027       14.620       -3.869       10.009        7.800        4.409      100.186       60.839       19.440        0.039        0.009       23.995        3.293        0.019      330.645       -1.849      867.952
01/02/2014  07:22:00       -6.329       14.479        3.431        7.191        8.537        5.468       51.716       72.883       29.903        0.021        0.008       15.802        5.397        0.117      330.748       -1.681      867.963
01/02/2014  07:23:00       -3.636        2.586        5.373        4.536        4.194        5.831       20.575       17.586       33.996        0.006        0.004        4.462        3.854        0.746      330.611       -1.904      867.978
01/02/2014  07:24:00       -8.646       -7.361        1.670        9.509        6.755        4.627       90.416       45.636       21.407        0.014        0.008       11.355        5.410        0.227      330.627       -1.880      867.988
01/02/2014  07:25:00      -31.600      -13.043       -5.436        8.180        9.473        6.855       66.908       89.736       46.987        0.070        0.010       34.186        5.589        0.027      330.589       -1.940      867.994
01/02/2014  07:26:00      -40.850      -12.929       -6.655       10.878        9.101        6.153      118.333       82.835       37.856        0.106        0.012       42.848        4.835        0.013      330.443       -2.181      867.995
01/02/2014  07:27:00      -46.414      -15.675       -9.599        5.242        8.609        8.542       27.476       74.110       72.957        0.133        0.009       48.989        4.592        0.009      330.429       -2.204      868.005
01/02/2014  07:28:00      -59.069      -12.076      -10.856        8.671        9.143        6.208       75.189       83.599       38.537        0.198        0.010       60.291        4.344        0.005      330.334       -2.360      868.007
01/02/2014  07:29:00      -56.387      -11.802      -10.102       11.324       10.474        6.969      128.237      109.704       48.567        0.185        0.014       57.609        4.176        0.005      330.323       -2.377      868.012
01/02/2014  07:30:00      -77.873       -5.989      -11.964       16.334       12.790       11.159      266.795      163.597      124.513        0.340        0.028       78.103        8.186        0.011      330.253       -2.492      868.019
01/02/2014  07:31:00      -81.679      -10.253      -12.707       14.147       13.409       11.174      200.135      179.792      124.856        0.372        0.025       82.320        4.356        0.003      330.181       -2.609      868.021
01/02/2014  07:32:00      -80.839        2.581       -8.522       14.994       13.118       11.946      224.812      172.070      142.707        0.358        0.027       80.880        8.385        0.011      330.156       -2.650      868.024
01/02/2014  07:33:00      -72.679        4.215      -13.720       10.384        8.562        8.864      107.820       73.312       78.579        0.287        0.013       72.801        6.463        0.008      330.121       -2.708      868.029
01/02/2014  07:34:00      -70.961      -11.102      -12.071       15.900       16.607       11.139      252.820      275.791      124.088        0.298        0.033       71.824       10.081        0.020      330.217       -2.551      868.041
01/02/2014  07:35:00      -81.006      -14.622       -9.555       11.781       13.189       10.411      138.794      173.944      108.388        0.364        0.021       82.315        5.843        0.005      330.259       -2.483      868.056
01/02/2014  07:36:00      -60.990      -23.643       -9.577       13.337       18.288       11.102      177.868      334.453      123.256        0.250        0.032       65.412        5.057        0.006      330.281       -2.445      868.061
01/02/2014  07:37:00      -66.584      -12.599       -8.762       22.921       14.647       10.008      525.364      214.532      100.168        0.275        0.042       67.766        7.292        0.012      330.274       -2.459      868.059
01/02/2014  07:38:00      -60.358       -4.448       -8.562       14.901       12.863       11.048      222.026      165.465      122.064        0.212        0.025       60.521        2.444        0.002      330.276       -2.453      868.066
01/02/2014  07:39:00      -56.352      -14.328      -17.535       10.862        9.949        7.150      117.981       98.984       51.120        0.198        0.013       58.145        5.226        0.008      330.298       -2.419      868.087
01/02/2014  07:40:00      -53.845      -11.448       -8.734       12.080       12.228        8.044      145.921      149.522       64.706        0.173        0.018       55.049        4.544        0.007      330.329       -2.368      868.118
01/02/2014  07:41:00      -78.785       -8.007      -10.696       17.674       17.234       11.533      312.362      297.007      133.004        0.356        0.037       79.191        8.263        0.011      330.329       -2.367      868.146
01/02/2014  07:42:00      -81.777      -14.584      -12.713       17.313       14.183       13.715      299.735      201.163      188.109        0.388        0.034       83.067        6.814        0.007      330.332       -2.362      868.162
01/02/2014  07:43:00      -61.452      -13.507       -8.182       17.142       16.763       12.879      293.843      281.013      165.873        0.238        0.037       62.919        7.064        0.013      330.357       -2.323      868.151
01/02/2014  07:44:00      -49.964      -13.993      -10.205       10.335       10.982        7.986      106.818      120.602       63.782        0.154        0.015       51.887        5.801        0.013      330.362       -2.313      868.148
01/02/2014  07:45:00      -46.086      -15.329       -9.378        8.942        8.410        5.371       79.956       70.734       28.848        0.131        0.009       48.568        4.027        0.007      330.403       -2.248      868.149
01/02/2014  07:46:00      -37.472       -7.863       -5.889       11.283       11.191        8.767      127.301      125.238       76.869        0.091        0.016       38.288        7.778        0.041      330.529       -2.040      868.160
01/02/2014  07:47:00      -53.501      -10.540      -10.874       12.014        8.779        6.868      144.347       77.074       47.174        0.168        0.013       54.529        3.082        0.003      330.544       -2.015      868.182
01/02/2014  07:48:00      -78.280        8.012      -12.243       10.647        7.214        5.384      113.367       52.036       28.991        0.327        0.010       78.689        3.254        0.002      330.481       -2.118      868.197
01/02/2014  07:49:00      -55.563        0.712       -7.755       10.579        6.060        7.554      111.910       36.728       57.068        0.168        0.010       55.567        4.644        0.007      330.540       -2.022      868.208
01/02/2014  07:50:00      -17.034       10.866       -4.197       31.023       12.706       14.336      962.401      161.437      205.525        0.088        0.066       20.205        6.981        0.119      330.785       -1.618      868.221
01/02/2014  07:51:00       -0.863        6.367        8.012        9.536        9.253        7.905       90.932       85.611       62.485        0.017        0.012        6.425        6.450        1.008      330.928       -1.384      868.234
01/02/2014  07:52:00        9.461        3.511        3.715       14.202        7.671        6.203      201.699       58.845       38.477        0.021        0.015       10.092        4.354        0.186      330.993       -1.277      868.237
01/02/2014  07:53:00       46.982       24.713        3.301        6.876        7.430        7.116       47.285       55.203       50.632        0.149        0.008       53.085        2.616        0.002      331.018       -1.238      868.247
01/02/2014  07:54:00       53.863       23.334        6.661       13.570       13.581       12.226      184.149      184.432      149.485        0.200        0.026       58.700        8.852        0.023      331.014       -1.245      868.245
01/02/2014  07:55:00       29.991       26.217       18.717       20.806       14.705       14.808      432.890      216.242      219.280        0.140        0.043       39.835        9.194        0.053      331.030       -1.217      868.253
01/02/2014  07:56:00       45.339       30.703       18.694       16.946       14.879       14.970      287.155      221.393      224.106        0.204        0.037       54.757        8.218        0.023      331.047       -1.189      868.262
01/02/2014  07:57:00       52.235       30.811       17.965       19.321       14.715       18.291      373.305      216.520      334.554        0.246        0.046       60.645       11.559        0.036      331.070       -1.152      868.267
01/02/2014  07:58:00       37.731       26.168       15.739       19.525       14.231       13.607      381.208      202.517      185.155        0.156        0.038       45.917        8.680        0.036      331.148       -1.025      868.291
01/02/2014  07:59:00       47.892       26.314       23.365       16.443       11.541       12.284      270.384      133.190      150.908        0.204        0.028       54.645        4.783        0.008      331.166       -0.994      868.308
01/02/2014  08:00:00       62.346       33.437       16.576       14.816       18.741       18.817      219.499      351.208      354.084        0.310        0.046       70.747        9.363        0.018      331.135       -1.045      868.332
01/02/2014  08:01:00       55.909       32.939       26.805       10.707       10.422       12.029      114.631      108.625      144.691        0.265        0.018       64.891        2.904        0.002      331.198       -0.942      868.355
01/02/2014  08:02:00       47.498       30.536       20.925       19.525       22.315       17.872      381.222      497.980      319.409        0.241        0.060       56.467       13.217        0.055      331.243       -0.867      868.365
01/02/2014  08:03:00       26.298       19.012       21.608       17.467       13.155       13.423      305.099      173.065      180.165        0.109        0.033       32.450       10.955        0.114      331.360       -0.676      868.375
01/02/2014  08:04:00       16.648       19.665       19.701       15.045       11.658       11.289      226.355      135.906      127.434        0.077        0.024       25.766        7.723        0.090      331.457       -0.516      868.376
01/02/2014  08:05:00       49.303       31.889       15.141       20.343        7.951       10.484      413.856       63.223      109.918        0.213        0.029       58.717        8.505        0.021      331.267       -0.828      868.380
01/02/2014  08:06:00       39.877       35.555       14.161       15.956       16.621       16.395      254.582      276.243      268.810        0.193        0.040       53.426        8.689        0.026      331.305       -0.765      868.379
01/02/2014  08:07:00       20.415       42.957       43.778       21.030       19.833       18.823      442.271      393.342      354.313        0.268        0.059       47.561       15.869        0.111      331.386       -0.632      868.391
01/02/2014  08:08:00       38.038       37.295       23.814       21.711       13.726       18.401      471.380      188.410      338.605        0.220        0.050       53.271       11.302        0.045      331.320       -0.741      868.417
01/02/2014  08:09:00       46.785       29.725       15.917       19.847       13.073       19.236      393.892      170.897      370.032        0.213        0.047       55.430        5.994        0.012      331.279       -0.808      868.446
01/02/2014  08:10:00       43.225       46.109        1.862       15.386       22.728       18.488      236.734      516.580      341.814        0.255        0.055       63.201       15.757        0.062      331.259       -0.841      868.458
01/02/2014  08:11:00       39.715       58.771       11.776       29.777       19.101       17.298      886.692      364.856      299.222        0.336        0.078       70.932       13.119        0.034      331.402       -0.606      868.464
01/02/2014  08:12:00       34.704       25.581       23.748       22.461       17.714       15.952      504.506      313.785      254.458        0.175        0.054       43.113        4.203        0.010      331.491       -0.460      868.458
01/02/2014  08:13:00       32.563       43.267       20.495       14.283       11.052       17.080      204.017      122.150      291.719        0.199        0.031       54.152       10.128        0.035      331.405       -0.600      868.439
01/02/2014  08:14:00       42.800       39.780       25.075       17.076       16.559       20.769      291.599      274.197      431.359        0.252        0.050       58.432       11.573        0.039      331.424       -0.570      868.437
01/02/2014  08:15:00       25.391       30.991       30.943       22.785       16.374       15.870      519.156      268.092      251.868        0.180        0.052       40.064        9.235        0.053      331.526       -0.403      868.438
01/02/2014  08:16:00       28.925       19.398        9.020       20.547       19.520       18.699      422.165      381.019      349.645        0.122        0.058       34.827       13.569        0.152      331.529       -0.397      868.447
01/02/2014  08:17:00       24.938       49.523        4.407       17.708       17.543       17.491      313.578      307.770      305.933        0.201        0.046       55.448       11.292        0.041      331.589       -0.299      868.457
01/02/2014  08:18:00       58.318       36.538        0.552       18.109       14.901       12.790      327.936      222.049      163.593        0.272        0.036       68.819        5.980        0.008      331.480       -0.479      868.468
01/02/2014  08:19:00       45.248       35.201        0.848       17.881       15.341       17.028      319.720      235.356      289.939        0.207        0.042       57.328       11.132        0.038      331.510       -0.429      868.473
01/02/2014  08:20:00       48.135       38.426       -3.697       16.120       14.105       12.352      259.849      198.957      152.562        0.221        0.031       61.591        7.888        0.016      331.482       -0.473      868.476
01/02/2014  08:21:00       24.719       36.092       16.846       23.039       17.877       23.758      530.812      319.585      564.446        0.181        0.071       43.745       16.552        0.143      331.634       -0.223      868.472
01/02/2014  08:22:00       -1.510       26.853       31.601       12.920       24.277       17.146      166.925      589.369      293.991        0.139        0.053       26.895       11.632        0.187      331.822        0.085      868.474
01/02/2014  08:23:00       31.343       32.356       19.706       21.591       15.241       22.277      466.168      232.289      496.253        0.181        0.060       45.047       12.905        0.082      331.704       -0.109      868.470
01/02/2014  08:24:00       29.554       37.055        9.357       14.959       23.008       25.459      223.766      529.391      648.151        0.187        0.070       47.397       18.772        0.157      331.732       -0.064      868.475
01/02/2014  08:25:00       63.063       42.251       -4.186       16.669       17.003       15.708      277.840      289.116      246.732        0.330        0.041       75.908        2.387        0.001      331.607       -0.268      868.478
01/02/2014  08:26:00       40.557       39.173       19.051       24.884       23.218       17.760      619.222      539.082      315.426        0.251        0.074       56.386       12.660        0.050      331.692       -0.128      868.479
01/02/2014  08:27:00       46.105       49.555        1.630       19.623       16.656       20.357      385.081      277.436      414.391        0.283        0.054       67.686       10.250        0.023      331.491       -0.460      868.485
01/02/2014  08:28:00       64.228       33.309        4.616       15.052       17.935       17.776      226.564      321.654      316.003        0.306        0.043       72.351        9.214        0.016      331.684       -0.142      868.487
01/02/2014  08:29:00       36.376       44.759       23.758       28.201       22.048       24.229      795.296      486.112      587.053        0.288        0.093       57.676       19.235        0.111      331.733       -0.060      868.481
01/02/2014  08:30:00       33.134       36.804       22.400       27.649       24.241       20.863      764.457      587.609      435.253        0.237        0.089       49.522       15.022        0.092      331.748       -0.036      868.473
01/02/2014  08:31:00       87.023       48.340        5.266       21.431       18.546       18.158      459.294      343.970      329.707        0.554        0.057       99.548       10.853        0.012      331.596       -0.287      868.476
01/02/2014  08:32:00       82.264       62.892       21.419       26.672       25.222       31.925      711.414      636.151     1019.217        0.677        0.118      103.551       15.373        0.022      331.689       -0.134      868.472
01/02/2014  08:33:00       60.469       46.264       20.956       24.039       26.612       28.014      577.890      708.186      784.791        0.415        0.104       76.137       18.312        0.058      331.803        0.054      868.472
01/02/2014  08:34:00       29.442       23.783       10.156       26.683       16.842       18.084      711.972      283.638      327.038        0.143        0.066       37.848       13.735        0.132      331.915        0.238      868.477
01/02/2014  08:35:00       16.846       40.908       37.594       20.121       24.365       19.903      404.846      593.639      396.135        0.238        0.070       44.241        7.969        0.032      332.004        0.385      868.486
01/02/2014  08:36:00       19.994       28.306       43.649       38.891       24.587       30.722     1512.518      604.539      943.869        0.308        0.153       34.655       28.600        0.681      332.037        0.439      868.501
01/02/2014  08:37:00       55.469       14.218       12.021       19.546       18.050       27.638      382.036      325.789      763.841        0.245        0.074       57.263       10.769        0.035      331.740       -0.051      868.520
01/02/2014  08:38:00       59.870       50.901       20.107       13.354       10.015       22.549      178.327      100.303      508.451        0.368        0.039       78.583       11.105        0.020      331.560       -0.345      868.534
01/02/2014  08:39:00       41.602       23.832       19.918       20.689       33.814       31.956      428.016     1143.375     1021.167        0.264        0.130       47.945       14.579        0.092      331.810        0.065      868.536
01/02/2014  08:40:00       48.642      -16.984       15.035       17.281       26.829       21.398      298.625      719.779      457.876        0.218        0.074       51.522       18.323        0.126      331.814        0.072      868.539
01/02/2014  08:41:00       24.095       20.428       28.758       21.851       18.528       18.239      477.465      343.285      332.666        0.149        0.058       31.589       12.428        0.155      332.206        0.718      868.525
01/02/2014  08:42:00       33.293       28.308        9.196       27.001       31.311       25.077      729.040      980.375      628.870        0.217        0.117       43.701       21.676        0.246      332.098        0.540      868.512
01/02/2014  08:43:00       27.638       43.956        1.871       29.850       31.650       26.652      891.042     1001.731      710.308        0.265        0.130       51.922       22.528        0.188      332.129        0.592      868.514
01/02/2014  08:44:00        5.603       17.554       24.491       19.437       13.691       12.515      377.806      187.451      156.636        0.083        0.036       18.426       12.288        0.445      332.423        1.076      868.528
01/02/2014  08:45:00       -4.716       29.779       49.706       10.993       16.362       16.424      120.847      267.710      269.761        0.202        0.033       30.151       14.095        0.219      332.475        1.162      868.546
01/02/2014  08:46:00       -7.872       12.686       26.274       13.923       15.888       16.570      193.861      252.444      274.555        0.082        0.036       14.930       12.908        0.747      332.447        1.117      868.556
01/02/2014  08:47:00        7.563       22.625       27.861       26.945       20.896       17.577      726.016      436.626      308.964        0.141        0.074       23.855       15.344        0.414      332.418        1.068      868.557
01/02/2014  08:48:00       46.784       38.795       10.498       29.314       25.629       25.136      859.312      656.823      631.824        0.298        0.107       60.776       19.561        0.104      332.193        0.696      868.555
01/02/2014  08:49:00       23.112       44.837       17.560       26.887       25.869       34.381      722.888      669.196     1182.082        0.271        0.129       50.443       20.666        0.168      332.428        1.085      868.552
01/02/2014  08:50:00       94.853       71.417        5.407       24.290       25.487       30.053      589.998      649.562      903.192        0.813        0.107      118.733       20.308        0.029      332.050        0.459      868.556
01/02/2014  08:51:00       64.218       54.509       16.692       37.057       37.214       28.966     1373.251     1384.888      839.009        0.548        0.180       84.233       24.751        0.086      332.208        0.721      868.565
01/02/2014  08:52:00       61.690       55.899       -4.525       37.954       31.512       26.921     1440.527      993.009      724.718        0.505        0.158       83.249       15.956        0.037      332.163        0.646      868.573
01/02/2014  08:53:00       60.855       61.959       18.814       36.075       34.459       27.777     1301.392     1187.390      771.539        0.558        0.163       86.846       23.729        0.075      332.295        0.864      868.581
01/02/2014  08:54:00       65.895       72.194       17.747       37.509       22.951       34.488     1406.960      526.762     1189.431        0.650        0.156       97.745       21.956        0.050      332.112        0.563      868.582
01/02/2014  08:55:00       65.700       55.144       11.054       34.244       23.007       21.664     1172.665      529.305      469.348        0.483        0.109       85.775       10.186        0.014      332.209        0.723      868.587
01/02/2014  08:56:00       71.069       62.200        5.839       29.430       27.992       20.172      866.131      783.551      406.915        0.550        0.103       94.444       13.856        0.022      332.225        0.749      868.583
01/02/2014  08:57:00       64.955       47.690        4.298       25.450       24.525       20.792      647.698      601.455      432.310        0.410        0.084       80.582       10.730        0.018      332.266        0.816      868.584
01/02/2014  08:58:00       57.596       51.250       -8.726       33.792       17.091       18.120     1141.866      292.100      328.322        0.389        0.088       77.097       14.474        0.035      332.393        1.026      868.591
01/02/2014  08:59:00       61.779       56.941       -5.171       34.117       23.402       22.709     1163.971      547.666      515.691        0.466        0.111       84.018       15.152        0.033      332.444        1.110      868.596
01/02/2014  09:00:00       68.641       66.232       -6.666       25.125       26.939       25.425      631.264      725.730      646.448        0.557        0.100       95.385       16.919        0.031      332.247        0.786      868.599
01/02/2014  09:01:00       31.717       52.414        2.928       27.215       34.375       23.140      740.668     1181.655      535.469        0.311        0.123       61.263       22.503        0.135      332.517        1.231      868.592
01/02/2014  09:02:00       21.941       36.297       26.587       47.161       36.143       29.065     2224.174     1306.339      844.782        0.344        0.219       42.413       22.651        0.285      332.729        1.580      868.580
01/02/2014  09:03:00       82.302       54.648        4.526       23.925       23.240       27.732      572.406      540.101      769.082        0.583        0.094       98.793       12.982        0.017      332.444        1.110      868.568
01/02/2014  09:04:00       86.371       69.315       -1.274       31.872       24.050       22.925     1015.829      578.390      525.575        0.719        0.106      110.745       15.237        0.019      332.375        0.996      868.564
01/02/2014  09:05:00       67.498       59.962       -1.248       28.259       28.809       27.093      798.562      829.957      734.057        0.526        0.118       90.285       14.805        0.027      332.456        1.132      868.568
01/02/2014  09:06:00       78.323       75.275       -1.799       22.148       21.005       22.509      490.534      441.203      506.643        0.662        0.072      108.632       13.582        0.016      332.336        0.933      868.574
01/02/2014  09:07:00       20.522       50.854        0.395       43.838       36.081       28.519     1921.788     1301.824      813.354        0.352        0.202       54.839       13.014        0.056      332.526        1.246      868.576
01/02/2014  09:08:00       11.257       -1.646       16.647       19.747       35.414       28.007      389.926     1254.124      784.412        0.142        0.121       11.376       15.931        1.961      332.817        1.727      868.585
01/02/2014  09:09:00      -12.254       50.016       77.178       16.330       32.682       20.400      266.659     1068.134      416.160        0.518        0.088       51.495       21.151        0.169      333.076        2.155      868.594
01/02/2014  09:10:00       -5.489       56.191       58.467       24.966       24.756       24.379      623.299      612.857      594.321        0.422        0.092       56.458       15.858        0.079      332.905        1.872      868.600
01/02/2014  09:11:00       40.279       33.662        7.303       40.085       36.667       19.591     1606.781     1344.451      383.808        0.307        0.167       52.493       18.009        0.118      332.857        1.793      868.600
01/02/2014  09:12:00       88.613       64.900        2.966       24.162       19.705       25.340      583.793      388.290      642.130        0.684        0.081      109.838       15.411        0.020      332.474        1.161      868.607
01/02/2014  09:13:00       72.828       59.925        0.101       18.879       20.099       23.877      356.404      403.980      570.120        0.511        0.067       94.314       14.322        0.023      332.457        1.133      868.612
01/02/2014  09:14:00       51.088       37.076        4.971       16.633       19.559       19.027      276.649      382.572      362.034        0.252        0.051       63.123        6.752        0.011      332.578        1.331      868.607
01/02/2014  09:15:00       14.572       33.349       -9.652       29.565       18.439       23.927      874.072      339.991      572.524        0.160        0.089       36.394       14.659        0.162      332.485        1.177      868.610
01/02/2014  09:16:00       55.093       56.239       21.263       34.345       25.212       36.962     1179.596      635.660     1366.207        0.492        0.159       78.728       23.465        0.089      332.801        1.700      868.604
01/02/2014  09:17:00       96.546       63.763       21.147       38.539       23.753       29.959     1485.254      564.205      897.522        0.839        0.147      115.701       18.463        0.025      332.680        1.499      868.601
01/02/2014  09:18:00       84.951       39.530       -6.894       34.799       26.721       23.803     1210.944      713.994      566.601        0.566        0.125       93.698       16.632        0.032      332.629        1.416      868.606
01/02/2014  09:19:00       94.145       79.580       18.273       25.305       23.172       25.790      640.361      536.963      665.133        0.869        0.092      123.274        6.020        0.002      332.546        1.278      868.613
01/02/2014  09:20:00       88.843       52.305        6.010       25.320       24.657       21.844      641.115      607.992      477.140        0.620        0.086      103.096       12.743        0.015      332.536        1.261      868.615
01/02/2014  09:21:00       90.474       56.693        2.966       27.649       27.764       29.215      764.476      770.826      853.517        0.690        0.119      106.769       12.461        0.014      332.571        1.320      868.633
01/02/2014  09:22:00       64.885       30.343        2.434       37.745       33.394       22.087     1424.659     1115.129      487.815        0.408        0.151       71.629       23.035        0.103      332.823        1.736      868.640
01/02/2014  09:23:00       66.857       46.538       25.803       29.259       35.966       25.098      856.102     1293.570      629.917        0.504        0.139       81.459       20.521        0.063      332.916        1.891      868.650
01/02/2014  09:24:00       48.179       55.678        1.782       38.894       35.312       28.566     1512.751     1246.910      816.033        0.450        0.179       73.629       18.564        0.064      332.870        1.813      868.664
01/02/2014  09:25:00       81.468       52.203        4.839       27.119       24.916       25.413      735.457      620.787      645.800        0.569        0.100       96.758       16.950        0.031      332.759        1.631      868.672
01/02/2014  09:26:00       66.347       48.599        2.481       27.898       18.303       27.117      778.277      334.994      735.316        0.431        0.092       82.242       15.039        0.033      332.772        1.653      868.685
01/02/2014  09:27:00       90.344       57.243       -0.414       42.906       22.278       25.382     1840.902      496.308      644.239        0.721        0.149      106.952       20.159        0.036      332.832        1.750      868.688
01/02/2014  09:28:00       93.262       75.168       25.303       40.262       20.374       25.403     1620.988      415.104      645.310        0.883        0.134      119.783       16.215        0.018      332.745        1.607      868.695
01/02/2014  09:29:00       55.255       65.207       36.527       46.255       29.091       32.882     2139.541      846.279     1081.208        0.635        0.203       85.470       26.011        0.093      333.086        2.171      868.696
01/02/2014  09:30:00      123.784       73.825        6.350       26.499       27.429       19.665      702.221      752.344      386.694        1.133        0.092      144.128        6.517        0.002      332.668        1.481      868.690
01/02/2014  09:31:00       41.915       57.163        0.747       34.773       27.265       25.589     1209.142      743.356      654.795        0.382        0.130       70.884       16.990        0.057      333.085        2.170      868.690
01/02/2014  09:32:00       74.310       55.489       19.545       50.104       36.769       26.367     2510.409     1351.962      695.203        0.677        0.228       92.741        9.760        0.011      333.028        2.076      868.676
01/02/2014  09:33:00       17.264       20.831       49.308       35.825       35.219       23.953     1283.399     1240.411      573.736        0.313        0.155       27.055       16.066        0.353      333.416        2.717      868.673
01/02/2014  09:34:00        1.840       39.307       47.545       25.816       22.549       25.968      666.463      508.472      674.335        0.283        0.092       39.350       19.919        0.256      333.541        2.924      868.665
01/02/2014  09:35:00        5.958       44.797       57.616       29.672       36.995       25.905      880.425     1368.598      671.072        0.414        0.146       45.191       18.575        0.169      333.480        2.821      868.655
01/02/2014  09:36:00       23.922       57.861       63.390       34.254       38.892       33.969     1173.369     1512.595     1153.866        0.589        0.192       62.612       26.387        0.178      333.257        2.454      868.665
01/02/2014  09:37:00        5.175       40.467       67.872       23.471       33.381       29.307      550.889     1114.269      858.889        0.440        0.126       40.796       22.332        0.300      333.401        2.691      868.669
01/02/2014  09:38:00       75.726       56.229        3.006       42.577       31.768       33.565     1812.764     1009.220     1126.624        0.643        0.197       94.319       23.026        0.060      333.212        2.380      868.674
01/02/2014  09:39:00       64.307       70.958       35.867       49.729       33.308       35.051     2473.000     1109.436     1228.587        0.763        0.241       95.762       23.739        0.061      333.359        2.622      868.678
01/02/2014  09:40:00       38.666       41.782       13.785       28.801       28.385       22.411      829.526      805.684      502.264        0.278        0.107       56.928       17.081        0.090      333.394        2.679      868.697
01/02/2014  09:41:00        5.468        4.344       12.982       15.303       24.752       13.237      234.188      612.646      175.229        0.062        0.051        6.983       10.157        2.115      333.730        3.236      868.708
01/02/2014  09:42:00       -2.042       19.421       20.436       39.248       32.793       20.044     1540.371     1075.379      401.748        0.191        0.151       19.528       12.929        0.438      333.595        3.013      868.725
01/02/2014  09:43:00       36.821       48.763       -2.902       32.214       22.686       21.903     1037.743      514.677      479.732        0.289        0.102       61.103       14.924        0.060      333.378        2.653      868.733
01/02/2014  09:44:00       50.620       30.114       -0.368       29.285       20.651       22.395      857.606      426.477      501.553        0.263        0.089       58.900        9.724        0.027      333.338        2.586      868.739
01/02/2014  09:45:00       65.083       65.835        7.259       22.593       22.029       20.410      510.450      485.256      416.553        0.502        0.071       92.574        8.523        0.008      333.260        2.459      868.749
01/02/2014  09:46:00       31.972       39.415       -5.586       24.575       22.991       30.279      603.928      528.595      916.835        0.233        0.102       50.752       10.273        0.041      333.501        2.857      868.749
01/02/2014  09:47:00      -11.990      -15.446       20.309       19.653       33.021       20.075      386.245     1090.386      403.007        0.134        0.094       19.553        3.754        0.037      333.768        3.299      868.746
01/02/2014  09:48:00      -14.425        6.035       22.498       17.612       27.791       18.266      310.185      772.322      333.662        0.108        0.071       15.636       17.620        1.270      333.977        3.646      868.753
01/02/2014  09:49:00       -0.521       -2.147       27.013       23.274       10.437        8.990      541.683      108.939       80.829        0.073        0.037        2.209        9.522       18.576      334.322        4.218      868.754
01/02/2014  09:50:00       -3.563       18.735       38.612       18.242       22.617       13.980      332.771      511.514      195.443        0.145        0.052       19.070       12.765        0.448      334.185        3.992      868.743
01/02/2014  09:51:00      -19.961       -4.595       24.513       16.460       26.120       24.689      270.941      682.280      609.524        0.129        0.078       20.483       22.628        1.220      333.977        3.648      868.734
01/02/2014  09:52:00       -5.544        3.167       28.984       12.051       15.956       18.620      145.234      254.599      346.711        0.081        0.037        6.385        8.523        1.782      334.323        4.221      868.727
01/02/2014  09:53:00       -4.155       11.414       40.851       21.320       47.243       28.171      454.523     2231.888      793.633        0.265        0.174       12.147       27.937        5.289      334.034        3.741      868.723
01/02/2014  09:54:00       -2.159        7.375       14.633       15.233       28.797       23.441      232.050      829.280      549.464        0.094        0.081        7.684        5.328        0.481      334.028        3.732      868.732
01/02/2014  09:55:00       20.813       61.535       49.914       30.013       29.912       26.126      900.763      894.715      682.555        0.459        0.124       64.960       16.264        0.063      333.793        3.341      868.726
01/02/2014  09:56:00       30.718       50.175       35.154       37.489       26.849       20.761     1405.424      720.869      431.008        0.363        0.128       58.832        7.518        0.016      333.756        3.279      868.724
01/02/2014  09:57:00      -13.573       14.336       39.740       18.917       26.713       17.313      357.841      713.578      299.744        0.167        0.069       19.742       14.288        0.524      334.329        4.231      868.723
01/02/2014  09:58:00       56.529       54.795       12.828       44.331       32.183       22.945     1965.204     1035.731      526.484        0.494        0.176       78.728       11.205        0.020      333.886        3.494      868.718
01/02/2014  09:59:00       66.432       82.864       30.612       30.935       33.252       39.999      956.967     1105.682     1599.957        0.794        0.183      106.205       22.069        0.043      333.631        3.072      868.703
01/02/2014  10:00:00       69.206       69.826        1.477       38.972       24.915       39.118     1518.807      620.772     1530.179        0.667        0.183       98.312       26.995        0.075      333.518        2.885      868.698
01/02/2014  10:01:00       39.549       35.924       24.820       37.428       37.410       26.907     1400.829     1399.524      723.966        0.350        0.176       53.429       18.985        0.126      333.901        3.522      868.687
01/02/2014  10:02:00       23.966       59.964       68.130       35.324       37.532       28.943     1247.767     1408.623      837.714        0.615        0.175       64.576       20.672        0.102      333.973        3.640      868.685
01/02/2014  10:03:00       35.097       80.979       80.252       52.382       38.947       34.180     2743.912     1516.892     1168.272        0.983        0.271       88.258       31.689        0.129      334.091        3.834      868.693
01/02/2014  10:04:00       95.670       83.074       48.621       37.300       20.040       35.696     1391.322      401.594     1274.183        1.074        0.153      126.704       27.554        0.047      333.760        3.285      868.708
01/02/2014  10:05:00        8.462       73.752       84.714       24.504       35.013       19.696      600.452     1225.875      387.914        0.745        0.111       74.235       22.437        0.091      333.932        3.571      868.710
01/02/2014  10:06:00       12.310       43.918       75.971       40.514       48.122       28.224     1641.422     2315.748      796.569        0.630        0.238       45.610       28.997        0.404      334.159        3.947      868.706
01/02/2014  10:07:00       24.148       72.654       75.583       38.553       36.667       30.324     1486.302     1344.437      919.533        0.766        0.188       76.562        8.721        0.013      334.249        4.096      868.707
01/02/2014  10:08:00       20.480       35.207       50.602       29.520       42.533       22.835      871.438     1809.044      521.414        0.371        0.160       40.730       23.036        0.320      334.221        4.051      868.718
01/02/2014  10:09:00       30.229       -8.767       20.509       35.592       25.002       23.743     1266.784      625.082      563.726        0.193        0.123       31.475       16.192        0.265      334.184        3.990      868.720
01/02/2014  10:10:00       36.071       57.233       69.338       48.415       41.555       32.579     2343.995     1726.855     1061.382        0.726        0.257       67.651       33.302        0.242      334.187        3.995      868.711
01/02/2014  10:11:00       52.455       56.306       63.447       34.065       16.913       14.485     1160.397      286.043      209.828        0.580        0.083       76.954       11.958        0.024      334.057        3.778      868.713
01/02/2014  10:12:00       15.989       66.223       79.748       43.665       40.545       22.100     1906.611     1643.865      488.409        0.752        0.202       68.126       19.812        0.085      334.361        4.284      868.701
01/02/2014  10:13:00        9.215       55.532       60.319       30.782       36.163       19.943      947.551     1307.780      397.738        0.473        0.133       56.292       13.978        0.062      334.384        4.322      868.698
01/02/2014  10:14:00        1.640       33.150       62.661       22.969       35.200       17.705      527.596     1239.035      313.469        0.355        0.104       33.190       19.461        0.344      334.579        4.645      868.700
01/02/2014  10:15:00       32.810       91.752       90.853       40.217       33.225       25.490     1617.434     1103.894      649.729        1.056        0.169       97.441       20.312        0.043      334.247        4.095      868.695
01/02/2014  10:16:00       88.898       89.431       69.942       26.239       14.486       20.601      688.470      209.844      424.414        1.106        0.066      126.098       13.210        0.011      333.947        3.595      868.682
01/02/2014  10:17:00       28.336       59.010       77.434       55.823       35.880       23.715     3116.176     1287.363      562.391        0.762        0.248       65.460       25.612        0.153      334.398        4.345      868.670
01/02/2014  10:18:00       25.681       40.371       62.392       36.734       37.071       20.867     1349.417     1374.289      435.420        0.467        0.158       47.847       17.505        0.134      334.531        4.565      868.666
01/02/2014  10:19:00       61.408       60.056       63.840       25.565       21.019       18.957      653.571      441.808      359.349        0.645        0.073       85.893       14.027        0.027      334.096        3.842      868.664
01/02/2014  10:20:00       80.779       73.221       44.472       28.319       18.526       26.647      801.952      343.210      710.049        0.786        0.093      109.025       13.547        0.015      333.947        3.596      868.640
01/02/2014  10:21:00       35.965       22.129       38.564       34.455       27.549       37.030     1187.172      758.933     1371.220        0.329        0.166       42.227       25.395        0.362      334.405        4.357      868.635
01/02/2014  10:22:00        6.465       19.980       53.399       29.819       47.282       36.460      889.148     2235.565     1329.298        0.387        0.223       20.999       38.024        3.279      334.821        5.046      868.606
01/02/2014  10:23:00       16.044       -7.375       34.062       53.641       51.810       39.734     2877.394     2684.305     1578.814        0.431        0.357       17.658       22.810        1.669      334.747        4.922      868.589
01/02/2014  10:24:00       37.115      -32.033       16.619       35.982       42.271       32.965     1294.681     1786.852     1086.688        0.342        0.208       49.027       30.406        0.385      334.601        4.681      868.596
01/02/2014  10:25:00       48.667      -52.437       30.588       50.476       40.147       34.711     2547.826     1611.758     1204.884        0.571        0.268       71.541       26.406        0.136      334.634        4.736      868.588
01/02/2014  10:26:00       84.879      -23.632       15.757       49.064       42.015       26.169     2407.310     1765.265      684.827        0.643        0.243       88.108       21.306        0.058      334.343        4.253      868.591
01/02/2014  10:27:00       51.826       64.244       62.658       39.271       32.643       24.441     1542.211     1065.553      597.364        0.697        0.160       82.543       12.184        0.022      334.435        4.406      868.582
01/02/2014  10:28:00       29.750       80.220       77.552       50.003       32.904       35.615     2500.296     1082.657     1268.451        0.909        0.243       85.559       27.371        0.102      334.379        4.313      868.565
01/02/2014  10:29:00       71.249       82.732       62.508       31.616       23.241       29.609      999.594      540.142      876.709        0.912        0.121      109.183       20.662        0.036      334.258        4.112      868.563
01/02/2014  10:30:00       59.160       72.846       54.891       62.532       44.792       38.072     3910.285     2006.314     1449.460        0.959        0.368       93.842       30.208        0.104      334.515        4.538      868.554
01/02/2014  10:31:00      110.452       95.153       48.718       32.958       25.522       36.587     1086.262      651.365     1338.622        1.335        0.154      145.786       22.438        0.024      334.298        4.177      868.554
01/02/2014  10:32:00       67.141       55.719       18.851       45.557       33.362       32.037     2075.428     1112.998     1026.364        0.609        0.211       87.250       13.633        0.024      334.326        4.225      868.564
01/02/2014  10:33:00      110.490       59.417        4.667       46.104       39.072       28.090     2125.592     1526.644      789.048        1.010        0.222      125.453       10.880        0.008      334.163        3.956      868.569
01/02/2014  10:34:00       68.240       51.532       12.708       37.329       28.333       29.092     1393.455      802.782      846.348        0.526        0.152       85.512       13.577        0.025      334.539        4.579      868.566
01/02/2014  10:35:00       35.509       32.745       17.655       40.710       39.642       39.078     1657.312     1571.483     1527.079        0.370        0.238       48.302       17.779        0.135      334.866        5.122      868.563
01/02/2014  10:36:00       52.221       66.250       46.643       41.396       56.481       34.623     1713.643     3190.134     1198.778        0.770        0.305       84.357       20.197        0.057      334.724        4.885      868.559
01/02/2014  10:37:00       75.917       63.335        9.720       29.680       30.106       24.113      880.920      906.371      581.442        0.612        0.118       98.868       15.060        0.023      334.595        4.670      868.551
01/02/2014  10:38:00       77.321       58.160       61.361       40.683       56.885       43.847     1655.096     3235.931     1922.537        0.997        0.341       96.753       42.600        0.194      334.758        4.943      868.540
01/02/2014  10:39:00       18.544       29.304       61.756       32.624       42.200       20.202     1064.295     1780.854      408.116        0.413        0.163       34.679       22.031        0.404      335.062        5.447      868.535
01/02/2014  10:40:00      116.784       79.486       35.041       96.072       36.125       45.977     9229.760     1304.990     2113.844        1.691        0.632      141.268       52.611        0.139      334.516        4.539      868.526
01/02/2014  10:41:00       94.402       92.938       16.536       47.199       32.676       40.047     2227.735     1067.735     1603.773        1.136        0.245      132.473       11.392        0.007      334.688        4.825      868.511
01/02/2014  10:42:00       68.273       61.808       58.723       53.869       46.235       32.556     2901.839     2137.669     1059.890        0.901        0.305       92.095       16.367        0.032      334.793        5.000      868.497
01/02/2014  10:43:00       80.046       83.615       50.905       55.704       36.349       41.856     3102.901     1321.275     1751.884        1.108        0.309      115.753       27.842        0.058      334.824        5.050      868.477
01/02/2014  10:44:00       19.578       56.248       72.317       47.430       43.455       43.124     2249.646     1888.377     1859.698        0.739        0.300       59.558       25.007        0.176      335.021        5.379      868.460
01/02/2014  10:45:00       82.151       82.169       90.427       57.881       50.438       44.572     3350.218     2543.987     1986.684        1.478        0.394      116.192       36.128        0.097      334.726        4.888      868.437
01/02/2014  10:46:00       72.254       46.691       45.478       38.182       28.341       28.321     1457.843      803.226      802.104        0.627        0.153       86.027       17.645        0.042      334.621        4.715      868.427
01/02/2014  10:47:00       95.217       75.590       19.793       66.548       41.264       51.557     4428.658     1702.701     2658.149        1.198        0.439      121.573       41.029        0.114      334.770        4.961      868.404
01/02/2014  10:48:00       96.401       55.359       21.062       61.976       65.706       45.781     3841.043     4317.321     2095.935        1.153        0.513      111.166       35.229        0.100      335.035        5.401      868.388
01/02/2014  10:49:00        3.656       36.435       59.554       37.984       48.141       44.564     1442.772     2317.598     1985.954        0.532        0.287       36.618       34.321        0.878      335.304        5.850      868.362
01/02/2014  10:50:00       22.295       81.030       96.806       34.715       52.176       28.877     1205.103     2722.365      833.878        1.060        0.238       84.042       31.170        0.138      335.094        5.498      868.362
01/02/2014  10:51:00       40.607       35.014       59.540       32.826       48.545       28.487     1077.560     2356.655      811.504        0.533        0.212       53.618       31.727        0.350      335.088        5.490      868.332
01/02/2014  10:52:00       18.207       47.213       61.409       35.962       38.473       28.914     1293.274     1480.185      836.034        0.497        0.180       50.602       22.554        0.199      335.204        5.682      868.320
01/02/2014  10:53:00       23.932      -24.840       30.526       35.541       62.016       37.896     1263.194     3845.943     1436.125        0.433        0.327       34.493       38.409        1.240      335.226        5.720      868.305
01/02/2014  10:54:00       76.043      -24.716       12.227       46.321       47.625       34.126     2145.600     2268.171     1164.565        0.606        0.279       79.959       33.054        0.171      334.929        5.226      868.298
01/02/2014  10:55:00       19.401       41.272       37.303       45.298       64.106       39.705     2051.903     4109.523     1576.512        0.560        0.387       45.604       42.591        0.872      335.103        5.514      868.269
01/02/2014  10:56:00       83.828       79.927       67.512       39.761       28.783       31.137     1580.951      828.444      969.524        1.068        0.169      115.826       15.179        0.017      334.933        5.232      868.257
01/02/2014  10:57:00       21.943       34.461       45.301       56.959       43.186       35.754     3244.354     1865.012     1278.342        0.505        0.319       40.855       30.091        0.542      335.326        5.887      868.238
01/02/2014  10:58:00       56.862       76.108       73.572       45.928       33.787       24.048     2109.391     1141.574      578.286        0.913        0.191       95.003       23.905        0.063      334.941        5.246      868.217
01/02/2014  10:59:00       27.562       49.820       43.618       28.502       32.816       23.046      812.373     1076.877      531.109        0.378        0.121       56.936       13.787        0.059      335.208        5.689      868.203
01/02/2014  11:00:00       54.596       59.532       51.711       41.821       38.936       36.736     1748.994     1516.021     1349.526        0.691        0.231       80.776       26.435        0.107      335.165        5.618      868.175
01/02/2014  11:01:00       44.392      -38.278       19.156       29.729       38.540       30.934      883.835     1485.320      956.932        0.356        0.166       58.617       25.081        0.183      335.196        5.670      868.166
01/02/2014  11:02:00       43.790      -43.130       10.536       26.888       53.135       23.932      722.947     2823.330      572.719        0.400        0.206       61.464       25.868        0.177      334.856        5.106      868.143
01/02/2014  11:03:00       22.623       18.352       14.439       35.409       30.806       34.252     1253.789      948.982     1173.218        0.222        0.169       29.131       23.839        0.670      335.061        5.445      868.121
01/02/2014  11:04:00       -8.970       75.884      107.705       29.309       44.154       34.405      858.992     1949.584     1183.698        1.072        0.200       76.412       31.789        0.173      335.339        5.908      868.088
01/02/2014  11:05:00       75.763      109.431       94.222       61.796       33.011       47.997     3818.752     1089.746     2303.695        1.690        0.361      133.098       47.878        0.129      335.001        5.345      868.067
01/02/2014  11:06:00       18.231       97.829      100.279       55.470       42.038       49.137     3076.935     1767.178     2414.451        1.361        0.363       99.513       50.139        0.254      335.105        5.518      868.064
01/02/2014  11:07:00       61.182       97.791       92.071       53.976       58.872       45.869     2913.439     3465.968     2103.924        1.513        0.424      115.352       44.232        0.147      335.013        5.366      868.033
01/02/2014  11:08:00       97.978       73.755       54.646       48.802       35.548       35.465     2381.648     1263.657     1257.790        1.146        0.245      122.635       35.017        0.082      335.048        5.424      868.030
01/02/2014  11:09:00       48.873       98.378      108.101       56.386       50.071       39.407     3179.327     2507.071     1552.881        1.549        0.362      109.849       38.363        0.122      335.217        5.703      868.017
01/02/2014  11:10:00      108.177       53.443       38.103       41.775       48.392       43.043     1745.132     2341.801     1852.723        1.097        0.297      120.658       33.965        0.079      334.978        5.308      868.010
01/02/2014  11:11:00       61.785       75.962       52.822       41.604       29.043       22.992     1730.884      843.467      528.654        0.774        0.155       97.917       10.934        0.012      335.238        5.740      867.988
01/02/2014  11:12:00       67.364       84.656       61.975       38.529       31.405       31.277     1484.520      986.273      978.271        0.950        0.172      108.188       21.463        0.039      335.290        5.824      867.958
01/02/2014  11:13:00       17.602       99.232      108.298       44.463       48.408       30.162     1976.944     2343.287      909.768        1.356        0.261      100.782       28.192        0.078      335.396        6.003      867.937
01/02/2014  11:14:00      151.582      104.879       43.405       50.973       45.098       40.099     2598.213     2033.854     1607.904        2.105        0.312      184.328       23.111        0.016      335.121        5.544      867.911
01/02/2014  11:15:00       96.469       58.120       32.577       57.960       45.283       43.281     3359.363     2050.524     1873.287        1.051        0.364      112.624       33.414        0.088      335.365        5.950      867.892
01/02/2014  11:16:00       -5.910        3.799       35.037       21.887       39.122       18.424      479.042     1530.539      339.439        0.181        0.117        7.025       16.524        5.532      336.059        7.107      867.872
01/02/2014  11:17:00       -8.150       20.602       43.182       21.610       41.366       31.211      467.011     1711.130      974.145        0.275        0.158       22.155       24.744        1.247      335.993        6.996      867.845
01/02/2014  11:18:00       25.410       63.082       70.903       45.550       46.934       37.679     2074.818     2202.830     1419.671        0.767        0.285       68.008       27.007        0.158      335.738        6.571      867.830
01/02/2014  11:19:00       89.923       93.226       87.793       43.775       41.918       27.018     1916.234     1757.078      729.996        1.444        0.220      129.527       28.986        0.050      335.189        5.658      867.811
01/02/2014  11:20:00       84.348       39.208       11.140       38.460       50.946       42.782     1479.206     2595.470     1830.314        0.734        0.295       93.015       43.822        0.222      335.045        5.418      867.796
01/02/2014  11:21:00       41.601       -2.290       10.991       27.572       77.262       29.230      760.229     5969.489      854.422        0.472        0.379       41.664       33.820        0.659      335.248        5.756      867.777
01/02/2014  11:22:00      111.817     -161.767      -18.744       48.940       69.629       24.525     2395.147     4848.199      601.489        2.343        0.392      196.651       26.406        0.018      335.166        5.618      867.744
01/02/2014  11:23:00       -3.940        4.581       10.544       42.089       71.232       34.831     1771.460     5074.057     1213.228        0.410        0.403        6.042       20.275       11.260      335.641        6.410      867.724
01/02/2014  11:24:00        5.472        5.503       44.225       39.468       33.314       29.051     1557.724     1109.799      843.948        0.276        0.176        7.760       17.289        4.964      336.089        7.156      867.702
01/02/2014  11:25:00        2.789        5.469       35.734       23.276       27.231       22.962      541.789      741.517      527.243        0.156        0.091        6.139       18.394        8.978      336.088        7.155      867.687
01/02/2014  11:26:00       30.233      -31.254       54.741       42.584       83.020       56.513     1813.365     6892.278     3193.677        0.839        0.595       43.484       57.045        1.721      335.806        6.685      867.667
01/02/2014  11:27:00      100.222      140.554      106.708       58.337       34.704       53.696     3403.216     1204.369     2883.219        2.434        0.375      172.626       48.474        0.079      335.232        5.728      867.651
01/02/2014  11:28:00      110.912      117.324       83.134       58.702       47.474       52.827     3445.943     2253.740     2790.641        2.073        0.425      161.451       45.410        0.079      335.304        5.847      867.642
01/02/2014  11:29:00      104.046       78.885       73.714       38.339       41.162       50.275     1469.908     1694.325     2527.609        1.409        0.285      130.569       29.709        0.052      335.404        6.014      867.645
01/02/2014  11:30:00       85.178       56.463       32.712       36.238       55.647       42.684     1313.176     3096.632     1821.897        0.887        0.312      102.193       38.169        0.140      335.340        5.909      867.641
01/02/2014  11:31:00       39.865       50.586       61.691       26.286       30.792       26.201      690.932      948.130      686.505        0.514        0.116       64.406       19.926        0.096      335.605        6.350      867.623
01/02/2014  11:32:00       50.064       14.354       33.241       38.596       71.084       41.752     1489.663     5052.974     1743.204        0.605        0.414       52.081       45.926        0.778      335.574        6.299      867.599
01/02/2014  11:33:00       44.796      -58.321       12.918       34.536       82.218       42.401     1192.723     6759.840     1797.881        0.766        0.488       73.539       45.608        0.385      335.726        6.552      867.580
01/02/2014  11:34:00       52.651      -47.867       23.116       67.245       98.922       64.213     4521.873     9785.565     4123.276        1.201        0.922       71.157       79.592        1.251      335.598        6.338      867.568
01/02/2014  11:35:00       25.916      -19.289       35.583       41.561       68.987       58.815     1727.288     4759.165     3459.168        0.613        0.497       32.307       59.295        3.369      335.746        6.584      867.556
01/02/2014  11:36:00       12.878       10.173       73.441       46.894       66.269       52.848     2199.058     4391.611     2792.912        0.752        0.469       16.412       56.298       11.767      335.636        6.403      867.551
01/02/2014  11:37:00        8.211      -35.105        9.984       52.487       34.889       31.353     2754.903     1217.272      983.011        0.318        0.248       36.053       24.598        0.465      335.427        6.054      867.550
01/02/2014  11:38:00       88.540      -15.334       38.664       44.382       72.082       51.193     1969.788     5195.825     2620.723        0.968        0.489       89.858       53.135        0.350      335.515        6.201      867.527
01/02/2014  11:39:00       43.027      -59.207       21.958       30.188       92.499       30.433      911.305     8556.117      926.174        0.811        0.520       73.190       43.780        0.358      335.567        6.286      867.485
01/02/2014  11:40:00        7.051      -17.912       46.659       39.127       64.772       30.432     1530.902     4195.418      926.125        0.460        0.333       19.250       29.691        2.379      336.161        7.277      867.455
01/02/2014  11:41:00       -0.546       36.809       69.163       41.623       33.264       27.770     1732.480     1106.491      771.145        0.487        0.181       36.813       24.390        0.439      336.237        7.404      867.431
01/02/2014  11:42:00       13.237       40.614       13.287       46.133       42.754       25.077     2128.223     1827.935      628.880        0.329        0.229       42.717       24.630        0.332      336.040        7.075      867.405
01/02/2014  11:43:00       11.642       54.902       -2.224       25.603       28.138       21.905      655.530      791.746      479.837        0.254        0.096       56.122       15.741        0.079      335.556        6.268      867.383
01/02/2014  11:44:00       12.290       44.933       45.599       36.842       34.742       52.415     1357.344     1207.004     2747.306        0.478        0.266       46.584       35.061        0.566      336.069        7.124      867.360
01/02/2014  11:45:00       66.395       82.412       73.222       58.134       52.953       57.018     3379.578     2804.004     3251.091        1.300        0.472      105.830       51.243        0.234      335.626        6.386      867.334
01/02/2014  11:46:00       58.844       46.680       42.673       44.675       47.688       48.866     1995.885     2274.130     2387.881        0.706        0.333       75.111       42.851        0.325      335.612        6.361      867.324
01/02/2014  11:47:00       26.662       45.377       74.255       39.259       44.523       34.317     1541.251     1982.272     1177.688        0.649        0.235       52.630       32.284        0.376      335.902        6.845      867.313
01/02/2014  11:48:00        3.035       30.296       68.946       32.479       38.144       29.977     1054.898     1454.983      898.595        0.454        0.170       30.448       27.651        0.825      336.104        7.180      867.290
01/02/2014  11:49:00       -5.519       25.302       46.256       22.465       29.724       32.980      504.691      883.521     1087.701        0.264        0.124       25.897        9.183        0.126      336.311        7.528      867.285
01/02/2014  11:50:00       34.725        1.702       21.129       28.826       27.701       28.448      830.963      767.356      809.261        0.203        0.120       34.767       25.825        0.552      335.946        6.919      867.273
01/02/2014  11:51:00       39.931      -43.564       10.341       27.228       38.534       22.487      741.347     1484.900      505.679        0.317        0.137       59.096       15.958        0.073      335.996        7.003      867.252
01/02/2014  11:52:00       57.752       97.537       90.214       54.142       54.790       45.616     2931.405     3001.952     2080.848        1.450        0.401      113.352       38.824        0.117      335.974        6.965      867.233
01/02/2014  11:53:00       80.982        7.729       46.550       58.259       51.112       43.835     3394.057     2612.431     1921.549        0.836        0.396       81.350       36.890        0.206      335.785        6.651      867.218
01/02/2014  11:54:00       77.726       53.838       48.509       44.888       64.215       50.509     2014.945     4123.582     2551.114        0.999        0.434       94.551       47.024        0.247      335.904        6.849      867.192
01/02/2014  11:55:00       89.906       66.089       47.971       43.089       38.165       36.544     1856.643     1456.571     1335.493        0.970        0.232      111.583       26.888        0.058      335.800        6.675      867.179
01/02/2014  11:56:00       30.867       -2.261       28.803       41.880       59.904       31.856     1753.904     3588.533     1014.802        0.407        0.318       30.950       29.451        0.905      336.373        7.631      867.148
01/02/2014  11:57:00       36.426       33.974       55.933       41.834       39.326       27.117     1750.080     1546.513      735.353        0.482        0.202       49.811       25.047        0.253      336.442        7.747      867.135
01/02/2014  11:58:00       19.551       48.175       74.280       37.976       43.739       28.088     1442.149     1913.129      788.917        0.618        0.207       51.991       25.889        0.248      336.371        7.627      867.111
01/02/2014  11:59:00       28.936       10.317       54.484       31.958       87.896       38.162     1021.310     7725.689     1456.305        0.706        0.510       30.721       31.219        1.033      336.284        7.483      867.077
01/02/2014  12:00:00       27.634       80.732      101.747       39.512       57.364       27.850     1561.185     3290.607      775.611        1.163        0.281       85.331       27.549        0.104      336.309        7.524      867.052
01/02/2014  12:01:00       58.214       81.542      100.953       54.642       55.003       37.178     2985.773     3025.354     1382.195        1.381        0.370      100.189       38.030        0.144      336.089        7.157      867.031
01/02/2014  12:02:00       44.518       30.999       52.896       52.108       30.469       29.475     2715.258      928.368      868.758        0.513        0.226       54.247       26.499        0.239      336.168        7.288      867.015
01/02/2014  12:03:00       25.936      -27.560       43.038       43.524       52.497       32.000     1894.349     2755.913     1023.987        0.448        0.284       37.845       31.839        0.708      336.245        7.418      867.005
01/02/2014  12:04:00       14.644       49.980      100.438       46.021       62.256       38.325     2117.946     3875.754     1468.782        1.013        0.373       52.081       29.530        0.321      336.194        7.331      866.995
01/02/2014  12:05:00       86.639       80.313       68.132       64.432       46.857       50.152     4151.435     2195.611     2515.244        1.373        0.443      118.137       41.367        0.123      336.025        7.050      866.985
01/02/2014  12:06:00       69.577       65.552       71.819       32.711       50.144       35.685     1070.009     2514.385     1273.449        0.958        0.243       95.593       34.527        0.130      336.002        7.011      866.993
01/02/2014  12:07:00       59.214       -6.487        6.808       33.205       61.631       30.608     1102.545     3798.331      936.869        0.472        0.292       59.568       18.111        0.092      335.922        6.879      866.974
01/02/2014  12:08:00       79.977      -73.874       -5.340       45.346       65.573       32.453     2056.243     4299.837     1053.227        0.964        0.370      108.875       36.158        0.110      335.979        6.973      866.954
01/02/2014  12:09:00       19.342       56.708       89.881       34.675       69.581       39.738     1202.360     4841.486     1579.079        0.964        0.381       59.916       47.398        0.626      336.241        7.410      866.933
01/02/2014  12:10:00       20.667       49.751       66.144       35.086       27.281       25.206     1231.002      744.242      635.336        0.494        0.131       53.873       22.058        0.168      336.237        7.403      866.918
01/02/2014  12:11:00       61.128       43.055       68.508       60.972       49.858       42.149     3717.632     2485.852     1776.507        0.913        0.399       74.769       38.483        0.265      336.260        7.442      866.895
01/02/2014  12:12:00       62.549       51.284       38.929       39.136       48.281       34.759     1531.633     2331.054     1208.205        0.656        0.254       80.886       20.455        0.064      336.256        7.436      866.865
01/02/2014  12:13:00       66.350       74.338       21.849       31.290       18.258       25.311      979.049      333.360      640.669        0.618        0.098       99.641       18.040        0.033      336.175        7.300      866.844
01/02/2014  12:14:00      -16.492       22.846        1.203       31.970       34.402       21.439     1022.053     1183.479      459.634        0.173        0.133       28.177       19.822        0.495      336.497        7.837      866.823
01/02/2014  12:15:00       35.942       -2.480       36.031       39.626       75.975       52.448     1570.192     5772.225     2750.832        0.634        0.505       36.027       55.110        2.340      336.436        7.737      866.805
01/02/2014  12:16:00       47.359       53.851       77.444       52.818       40.634       33.243     2789.754     1651.125     1105.068        0.834        0.277       71.714       37.103        0.268      336.282        7.480      866.800
01/02/2014  12:17:00       39.465      -14.050       32.686       42.440       50.044       31.416     1801.194     2504.408      986.990        0.406        0.265       41.891       28.180        0.453      336.340        7.575      866.805
01/02/2014  12:18:00       19.243        5.619       32.859       27.049       40.712       27.226      731.674     1657.477      741.235        0.231        0.157       20.047       28.197        1.978      336.613        8.032      866.793
01/02/2014  12:19:00       23.113      -23.177       13.702       30.617       37.362       22.940      937.417     1395.893      526.266        0.206        0.143       32.732       24.247        0.549      336.745        8.253      866.790
01/02/2014  12:20:00       -4.757       26.184       56.135       17.222       24.924       19.242      296.582      621.209      370.243        0.257        0.064       26.613       17.452        0.430      337.135        8.904      866.778
01/02/2014  12:21:00        3.064       67.509       87.330       32.847       40.701       44.409     1078.946     1656.564     1972.126        0.845        0.235       67.579       29.108        0.186      336.736        8.237      866.756
01/02/2014  12:22:00       79.985       73.173       62.393       45.515       28.805       43.608     2071.601      829.724     1901.674        1.022        0.240      108.406       30.211        0.078      336.286        7.485      866.745
01/02/2014  12:23:00       73.209       68.042       39.826       35.601       19.338       27.761     1267.405      373.948      770.661        0.699        0.121       99.946       16.142        0.026      336.252        7.429      866.734
01/02/2014  12:24:00       33.087       40.037       57.224       20.459       24.528       17.952      418.591      601.637      322.282        0.366        0.067       51.940       11.070        0.045      336.603        8.016      866.712
01/02/2014  12:25:00       19.504       23.229       38.564       17.349       29.509       14.544      300.988      870.786      211.531        0.190        0.069       30.332       10.750        0.126      336.802        8.348      866.695
01/02/2014  12:26:00       -1.535      -20.928       20.344       10.102       15.389       12.216      102.057      236.815      149.233        0.067        0.024       20.984       11.193        0.285      336.705        8.186      866.683
01/02/2014  12:27:00       -8.697      -13.223        4.493       12.593       15.936       19.170      158.590      253.960      367.479        0.053        0.039       15.827       13.760        0.756      337.083        8.818      866.647
01/02/2014  12:28:00       10.663      -41.863       11.614       38.289       26.578       23.512     1466.083      706.403      552.808        0.236        0.136       43.199       22.179        0.264      336.740        8.244      866.640
01/02/2014  12:29:00        1.111      -10.255       -0.396        9.101       14.897       18.515       82.832      221.930      342.813        0.038        0.032       10.315       12.714        1.519      336.809        8.359      866.616
01/02/2014  12:30:00       -4.432       22.771       33.549       17.402       23.369       10.041      302.818      546.095      100.819        0.131        0.047       23.199        7.344        0.100      337.237        9.077      866.590
01/02/2014  12:31:00       14.440        6.705        8.373       33.449       39.769       24.752     1118.861     1581.560      612.652        0.182        0.166       15.921       18.780        1.391      337.051        8.765      866.578
01/02/2014  12:32:00       26.610       87.180       -4.733       33.127       43.365       41.559     1097.427     1880.509     1727.153        0.652        0.235       91.150       37.378        0.168      336.596        8.004      866.559
01/02/2014  12:33:00       -2.390       76.130        5.110       23.563       50.956       24.718      555.238     2596.475      610.982        0.479        0.188       76.167       22.926        0.091      336.750        8.261      866.530
01/02/2014  12:34:00       28.059       56.715        2.706       34.884       39.971       23.396     1216.925     1597.668      547.379        0.369        0.168       63.276       24.815        0.154      337.015        8.704      866.508
01/02/2014  12:35:00       79.585       78.111       41.157       53.934       36.585       45.829     2908.828     1338.443     2100.274        1.024        0.317      111.513       31.630        0.080      336.878        8.475      866.483
01/02/2014  12:36:00       92.831       50.446       34.456       59.864       39.246       42.245     3583.682     1540.259     1784.675        0.963        0.345      105.652       24.731        0.055      336.671        8.130      866.470
01/02/2014  12:37:00       62.737       60.378        9.541       41.067       34.716       33.459     1686.519     1205.185     1119.531        0.584        0.201       87.072       28.330        0.106      336.709        8.193      866.455
01/02/2014  12:38:00       33.996       56.518       51.846       48.875       39.733       41.167     2388.747     1578.679     1694.685        0.635        0.283       65.955       35.868        0.296      336.923        8.550      866.435
01/02/2014  12:39:00       40.491       96.424      100.445       36.722       34.204       28.131     1348.529     1169.893      791.376        1.217        0.165      104.580       28.464        0.074      336.622        8.047      866.426
01/02/2014  12:40:00       74.112       94.418       62.017       29.660       19.264       26.049      879.743      371.098      678.537        1.009        0.096      120.030       16.707        0.019      336.637        8.073      866.409
01/02/2014  12:41:00       31.340        6.723       24.021       22.716       31.474       32.104      516.027      990.585     1030.667        0.207        0.127       32.053       26.424        0.680      336.822        8.382      866.394
01/02/2014  12:42:00       11.776      -11.009       37.604       24.239       38.693       34.487      587.548     1497.165     1189.385        0.247        0.164       16.121       27.649        2.942      337.098        8.844      866.391
01/02/2014  12:43:00       39.321       -9.139       20.548       23.594       20.047       20.713      556.669      401.875      429.018        0.172        0.069       40.369       12.314        0.093      336.816        8.373      866.372
01/02/2014  12:44:00       -3.697      -33.616        8.450       13.548       15.448       20.840      183.536      238.641      434.319        0.104        0.043       33.819        5.264        0.024      336.813        8.367      866.355
01/02/2014  12:45:00       20.229       -2.729       17.271       26.047       15.170       20.492      678.443      230.115      419.940        0.102        0.066       20.412       12.854        0.397      337.134        8.904      866.340
01/02/2014  12:46:00       71.965       61.279       20.331       47.632       28.210       25.919     2268.785      795.792      671.820        0.654        0.187       94.520       25.443        0.072      336.964        8.618      866.315
01/02/2014  12:47:00       75.538       41.845       -9.359       48.615       29.506       28.836     2363.459      870.580      831.513        0.580        0.203       86.354       21.767        0.064      336.893        8.499      866.304
01/02/2014  12:48:00       35.527       34.535       37.257       46.553       36.743       20.328     2167.180     1350.025      413.220        0.389        0.197       49.547       14.171        0.082      337.120        8.879      866.283
01/02/2014  12:49:00       -1.387       48.501       69.729       23.696       36.479       26.253      561.521     1330.693      689.197        0.490        0.129       48.521       22.932        0.223      337.414        9.373      866.271
01/02/2014  12:50:00       -7.052       19.499       49.996       17.025       28.962       21.051      289.837      838.781      443.163        0.225        0.079       20.735       21.217        1.047      337.624        9.724      866.263
01/02/2014  12:51:00       58.634       53.275       29.263       42.796       32.374       38.489     1831.522     1048.078     1481.404        0.575        0.218       79.222       22.487        0.081      336.986        8.656      866.242
01/02/2014  12:52:00       58.843       54.335        6.964       46.208       44.918       29.317     2135.170     2017.604      859.495        0.574        0.251       80.092        3.742        0.002      336.910        8.529      866.225
01/02/2014  12:53:00       41.044       22.884        8.957       36.335       23.922       29.820     1320.218      572.280      889.244        0.253        0.139       46.992       22.174        0.223      337.120        8.879      866.218
01/02/2014  12:54:00       45.570      -65.216       -2.746       51.492       85.702       28.143     2651.448     7344.868      792.053        0.856        0.539       79.560       21.421        0.072      337.179        8.977      866.206
01/02/2014  12:55:00       10.256      -27.645       11.405       36.783       79.065       27.257     1352.984     6251.316      742.957        0.467        0.417       29.486       24.136        0.670      337.315        9.207      866.198
01/02/2014  12:56:00       28.887      -92.272        4.593       37.244       66.863       36.300     1387.126     4470.711     1317.674        0.827        0.359       96.689       36.675        0.144      337.256        9.107      866.181
01/02/2014  12:57:00       46.605      -26.350       29.040       67.220       63.179       46.458     4518.594     3991.548     2158.339        0.719        0.533       53.538       26.768        0.250      337.304        9.189      866.156
01/02/2014  12:58:00       86.766       64.544       79.488       46.998       50.247       33.442     2208.834     2524.802     1118.374        1.193        0.293      108.140       30.022        0.077      336.888        8.493      866.148
01/02/2014  12:59:00       55.910       44.039       35.298       25.795       25.534       34.692      665.363      652.002     1203.529        0.442        0.126       71.172       18.504        0.068      336.917        8.540      866.131
01/02/2014  13:00:00       34.252       -7.860       -2.540       32.759       39.337       19.630     1073.135     1547.419      385.351        0.212        0.150       35.142       20.167        0.329      337.082        8.816      866.104
01/02/2014  13:01:00       32.118        1.242        9.762       34.347       27.080       23.021     1179.731      733.344      529.959        0.179        0.122       32.142       17.140        0.284      337.208        9.028      866.087
01/02/2014  13:02:00      107.025      -79.308      -16.539       39.095       61.859       40.632     1528.391     3826.533     1650.972        1.251        0.350      133.207       36.166        0.074      336.957        8.605      866.071
01/02/2014  13:03:00       65.002      -71.697      -11.066       34.657       63.018       24.682     1201.134     3971.251      609.208        0.763        0.289       96.777       29.209        0.091      336.855        8.436      866.066
01/02/2014  13:04:00       22.602       -1.471      -15.629       16.927       22.147       14.424      286.510      490.470      208.046        0.087        0.049       22.650       11.699        0.267      336.899        8.511      866.050
01/02/2014  13:05:00       15.792      -25.755      -11.457       19.938       45.458       14.989      397.511     2066.404      224.665        0.187        0.134       30.212       12.050        0.159      337.213        9.037      866.022
01/02/2014  13:06:00       63.414     -116.367       -7.856       50.779       31.736       28.638     2578.510     1007.152      820.157        1.101        0.220      132.524       18.927        0.020      337.181        8.981      866.010
01/02/2014  13:07:00       29.996      -59.615        6.887       50.306       46.683       28.718     2530.695     2179.293      824.745        0.502        0.277       66.736       32.839        0.242      337.465        9.458      866.002
01/02/2014  13:08:00       47.895      -70.377        3.897       49.813       55.314       40.808     2481.327     3059.619     1665.325        0.723        0.360       85.129       35.725        0.176      337.386        9.326      865.987
01/02/2014  13:09:00      106.780      -88.821      -12.456       61.034       72.726       44.424     3725.181     5289.029     1973.471        1.522        0.549      138.893       42.986        0.096      337.143        8.918      865.970
01/02/2014  13:10:00       -2.652       48.352       80.492       33.975       40.847       42.396     1154.332     1668.484     1797.462        0.672        0.231       48.425       39.929        0.680      337.442        9.419      865.966
01/02/2014  13:11:00       39.845       32.747       41.274       41.732       49.026       37.885     1741.564     2403.505     1435.301        0.497        0.279       51.575       38.958        0.571      337.188        8.994      865.967
01/02/2014  13:12:00       52.027      -11.250       22.973       30.453       23.218       23.845      927.379      539.088      568.566        0.270        0.102       53.229        8.465        0.025      337.234        9.069      865.944
01/02/2014  13:13:00       28.155       -6.445        7.729       24.304       33.203       26.603      590.677     1102.427      707.712        0.165        0.120       28.883       23.956        0.688      337.112        8.865      865.924
01/02/2014  13:14:00      -15.321       19.487       -2.393       28.813       13.611       18.139      830.207      185.269      329.024        0.098        0.067       24.789       16.360        0.436      337.335        9.240      865.908
01/02/2014  13:15:00       -5.537       29.371       24.284       43.009       18.676       19.081     1849.814      348.803      364.092        0.202        0.128       29.889       16.155        0.292      337.478        9.480      865.893
01/02/2014  13:16:00       14.724       -5.902       23.963       20.910       34.560       15.362      437.245     1194.419      235.977        0.135        0.093       15.863        9.936        0.392      337.665        9.795      865.869
01/02/2014  13:17:00       37.295       26.812       31.774       35.695       41.881       31.823     1274.159     1753.983     1012.732        0.358        0.202       45.933       23.404        0.260      337.635        9.742      865.852
01/02/2014  13:18:00       41.304      -26.716       25.780       58.983       81.416       49.488     3478.952     6628.529     2449.014        0.782        0.628       49.191       50.029        1.034      337.537        9.578      865.831
01/02/2014  13:19:00       46.139       19.160       38.477       42.240       48.890       34.035     1784.233     2390.213     1158.375        0.465        0.267       49.959       33.347        0.446      337.400        9.348      865.813
01/02/2014  13:20:00       78.546      -89.086       16.963       76.264       94.638       47.664     5816.130     8956.290     2271.842        1.572        0.852      118.768       61.952        0.272      337.365        9.289      865.792
01/02/2014  13:21:00       45.051      -27.875       20.397       69.257       83.844       44.707     4796.539     7029.784     1998.753        0.852        0.691       52.977       60.566        1.307      337.499        9.514      865.784
01/02/2014  13:22:00       92.606      -77.661        1.677       54.748       58.483       43.774     2997.325     3420.229     1916.129        1.147        0.417      120.860       39.948        0.109      337.254        9.104      865.778
01/02/2014  13:23:00      100.983     -100.529       -5.984       42.144       49.371       33.925     1776.146     2437.452     1150.890        1.285        0.268      142.490       26.552        0.035      337.186        8.990      865.770
01/02/2014  13:24:00       82.123      -67.782        3.925       32.140       52.125       28.663     1032.997     2716.966      821.570        0.796        0.229      106.482       33.222        0.097      337.092        8.832      865.757
01/02/2014  13:25:00       35.824       72.293       77.675       51.349       35.777       26.516     2636.748     1280.001      703.105        0.858        0.231       80.683       17.743        0.048      337.343        9.253      865.740
01/02/2014  13:26:00       51.882       -3.505       13.478       58.850       46.635       33.443     3463.286     2174.857     1118.405        0.482        0.338       52.000       32.287        0.386      337.305        9.190      865.732
01/02/2014  13:27:00       69.634        4.942       43.351       44.669       28.361       28.712     1995.286      804.342      824.368        0.519        0.181       69.809       21.501        0.095      337.369        9.297      865.708
01/02/2014  13:28:00       45.417       46.866       12.037       33.226       30.348       17.114     1103.960      920.972      292.894        0.336        0.116       65.262       13.812        0.045      337.121        8.882      865.694
01/02/2014  13:29:00      -16.423       24.555        2.169       12.812       36.855       20.848      164.143     1358.269      434.659        0.142        0.098       29.541       21.954        0.552      337.464        9.456      865.673
01/02/2014  13:30:00        1.294      -38.373        1.661       45.334       34.894       30.498     2055.180     1217.586      930.105        0.284        0.210       38.395       24.738        0.415      337.658        9.780      865.662
01/02/2014  13:31:00       66.275     -123.872       -0.723       63.620       75.203       49.424     4047.536     5655.549     2442.685        1.594        0.607      140.487       48.509        0.119      337.405        9.356      865.644
01/02/2014  13:32:00       75.213       85.399       76.769       43.846       67.593       49.210     1922.512     4568.762     2421.668        1.388        0.446      113.798       44.207        0.151      337.375        9.307      865.630
01/02/2014  13:33:00       38.185       46.001       46.458       53.350       42.818       36.822     2846.271     1833.376     1355.845        0.588        0.302       59.784       32.295        0.292      337.681        9.818      865.613
01/02/2014  13:34:00       91.670       40.178        3.085       38.641       55.073       31.370     1493.144     3033.084      984.105        0.777        0.276      100.088       19.309        0.037      337.311        9.200      865.603
01/02/2014  13:35:00       15.595       32.209       19.870       32.864       49.295       28.649     1080.046     2429.968      820.792        0.300        0.217       35.786       29.103        0.661      337.557        9.612      865.602
01/02/2014  13:36:00       28.753       13.854      -10.723       28.790       59.663       21.217      828.882     3559.621      450.144        0.299        0.242       31.917       10.020        0.099      337.605        9.691      865.595
01/02/2014  13:37:00       35.373      -39.451       -0.790       31.314       66.831       30.986      980.583     4466.439      960.156        0.461        0.320       52.987       32.591        0.378      337.443        9.421      865.586
01/02/2014  13:38:00       42.265      -21.156       18.566       38.569       31.098       28.821     1487.579      967.061      830.670        0.293        0.164       47.264       22.774        0.232      337.637        9.746      865.582
01/02/2014  13:39:00       73.794        1.792       14.608       36.224       27.023       31.669     1312.200      730.224     1002.946        0.435        0.152       73.816       23.534        0.102      337.358        9.277      865.588
01/02/2014  13:40:00       25.739       22.688       18.456       13.114        9.842       14.812      171.987       96.866      219.387        0.100        0.024       34.311        4.587        0.018      337.391        9.334      865.581
01/02/2014  13:41:00        9.059       15.784       23.624       18.088       15.653       18.172      327.170      245.022      330.206        0.090        0.045       18.198        8.839        0.236      337.820       10.051      865.574
01/02/2014  13:42:00      -38.032       -0.877       14.297       17.913       20.207       13.691      320.880      408.330      187.436        0.128        0.046       38.042        7.662        0.041      338.032       10.408      865.562
01/02/2014  13:43:00       10.324        4.539        8.809       17.298       16.389       19.049      299.229      268.586      362.859        0.057        0.047       11.278       13.742        1.485      338.031       10.407      865.540
01/02/2014  13:44:00       44.638       15.378       11.329       25.860       32.287       29.811      668.759     1042.465      888.682        0.248        0.130       47.213       27.174        0.331      337.600        9.682      865.528
01/02/2014  13:45:00       40.062      -34.329       35.241       61.318       85.577       56.631     3759.840     7323.475     3207.027        0.916        0.715       52.759       63.128        1.432      337.739        9.916      865.519
01/02/2014  13:46:00       83.908      -78.804       16.267       58.561       63.024       40.328     3429.408     3972.013     1626.339        1.127        0.451      115.111       41.270        0.129      337.580        9.651      865.518
01/02/2014  13:47:00       72.856     -134.582       -5.621       31.666       55.937       28.207     1002.731     3128.945      795.648        1.419        0.246      153.037       30.504        0.040      337.419        9.381      865.509
01/02/2014  13:48:00       63.373      -47.241        3.944       22.398       34.304       20.683      501.663     1176.789      427.780        0.418        0.105       79.043       18.496        0.055      337.513        9.536      865.503
01/02/2014  13:49:00       69.178      -82.408       11.095       59.747       68.976       32.898     3569.685     4757.708     1082.297        1.055        0.470      107.595       35.840        0.111      337.653        9.772      865.494
01/02/2014  13:50:00       88.940      -90.661        1.653       58.377       89.971       36.559     3407.823     8094.748     1336.536        1.448        0.642      127.002       53.370        0.177      337.600        9.684      865.485
01/02/2014  13:51:00       31.799      -80.596       -3.543       47.273       60.847       37.449     2234.711     3702.333     1402.460        0.743        0.367       86.642       36.832        0.181      337.686        9.827      865.481
01/02/2014  13:52:00       47.753      -77.896       -2.367       35.692       28.875       22.845     1273.949      833.792      521.878        0.549        0.131       91.368       22.924        0.063      337.514        9.540      865.475
01/02/2014  13:53:00       74.819     -136.841      -13.472       46.618       47.271       26.325     2173.266     2234.521      693.014        1.480        0.255      155.960       19.021        0.015      337.551        9.600      865.472
01/02/2014  13:54:00       88.253      -73.479       28.864       59.418      111.413       47.342     3530.520    12412.767     2241.254        1.610        0.909      114.838       64.360        0.314      337.665        9.790      865.466
01/02/2014  13:55:00       72.381       15.074       52.211       61.858       36.613       31.068     3826.377     1340.482      965.239        0.716        0.307       73.934       22.489        0.093      337.588        9.663      865.476
01/02/2014  13:56:00        9.089       -9.844       12.447       17.015       14.891       20.521      289.527      221.728      421.119        0.063        0.047       13.398        9.477        0.500      337.893       10.176      865.460
01/02/2014  13:57:00       53.958      -59.843        3.366       50.368       41.369       28.638     2536.950     1711.356      820.157        0.579        0.253       80.576       28.357        0.124      337.669        9.800      865.449
01/02/2014  13:58:00      106.398     -142.411      -29.286       35.282       34.774       25.192     1244.850     1209.227      634.615        1.777        0.154      177.767       19.522        0.012      337.530        9.567      865.446
01/02/2014  13:59:00      117.412     -100.716      -19.583       66.432       66.598       45.520     4413.172     4435.357     2072.091        1.761        0.546      154.691       40.147        0.067      337.593        9.671      865.442
01/02/2014  14:00:00       79.061       28.667       43.448       63.705       41.162       33.987     4058.273     1694.348     1155.120        0.793        0.345       84.098       32.653        0.151      337.640        9.750      865.451
01/02/2014  14:01:00       48.244       27.175       11.244       44.042       45.689       21.372     1939.665     2087.465      456.776        0.384        0.224       55.371       15.317        0.077      337.711        9.871      865.433
01/02/2014  14:02:00      -19.724      -10.129       28.018       33.948       29.119       20.629     1152.499      847.888      425.563        0.185        0.121       22.173       16.412        0.548      338.242       10.760      865.439
01/02/2014  14:03:00        7.178       -8.612       43.202       40.277       51.624       35.905     1622.216     2665.069     1289.172        0.378        0.279       11.211       20.289        3.275      338.142       10.593      865.453
01/02/2014  14:04:00       53.933      -10.866       26.927       31.947       34.413       29.538     1020.609     1184.230      872.477        0.341        0.154       55.017       14.477        0.069      338.009       10.370      865.472
01/02/2014  14:05:00       21.053        7.110       39.976       25.980       17.731       21.375      674.984      314.376      456.901        0.177        0.072       22.221       15.304        0.474      337.994       10.342      865.478
01/02/2014  14:06:00       -0.620       25.536       33.743       11.676       20.902       18.411      136.335      436.913      338.962        0.135        0.046       25.544       15.689        0.377      338.131       10.573      865.471
01/02/2014  14:07:00       20.216        2.867        8.921       23.358       12.846       17.670      545.599      165.021      312.218        0.076        0.051       20.418       11.857        0.337      338.142       10.594      865.471
01/02/2014  14:08:00       -2.988       24.198       30.891       14.966       22.731       26.627      223.991      516.710      709.019        0.150        0.072       24.381       21.806        0.800      338.302       10.862      865.477
01/02/2014  14:09:00       20.160       -3.545       20.216       42.019       52.007       31.805     1765.623     2704.694     1011.563        0.315        0.274       20.470       34.728        2.878      338.047       10.434      865.482
01/02/2014  14:10:00       10.759       11.268       33.904       24.960       34.593       21.403      622.980     1196.666      458.071        0.183        0.114       15.580       20.935        1.806      338.129       10.572      865.477
01/02/2014  14:11:00       44.060      -35.617       13.345       43.492       67.409       35.729     1891.573     4543.940     1276.596        0.555        0.386       56.656       29.176        0.265      337.970       10.305      865.465
01/02/2014  14:12:00       41.391      -72.788       -5.623       28.752       38.012       23.871      826.696     1444.924      569.838        0.494        0.142       83.733       17.571        0.044      337.884       10.159      865.450
01/02/2014  14:13:00       30.115       19.815       18.910       30.351       44.577       35.115      921.207     1987.146     1233.094        0.290        0.207       36.050       26.117        0.525      337.992       10.342      865.435
01/02/2014  14:14:00       61.264       83.248       75.296       52.953       35.892       30.716     2803.981     1288.225      943.462        1.069        0.252      103.360       24.908        0.058      337.867       10.132      865.428
01/02/2014  14:15:00       60.063       18.935       22.663       38.989       27.426       21.048     1520.154      752.202      443.027        0.360        0.136       62.976       18.565        0.087      337.823       10.057      865.431
01/02/2014  14:16:00        1.571       67.907       90.867       34.845       47.467       35.995     1214.155     2253.094     1295.610        0.882        0.238       67.925       39.382        0.336      337.952       10.274      865.414
01/02/2014  14:17:00       34.393       71.740       78.682       47.119       50.615       29.406     2220.193     2561.846      864.690        0.908        0.282       79.559       18.823        0.056      337.913       10.208      865.410
01/02/2014  14:18:00       47.494       -4.857       37.244       44.067       58.916       36.557     1941.909     3471.052     1336.442        0.521        0.337       47.741       39.553        0.686      337.943       10.258      865.416
01/02/2014  14:19:00        8.603       23.484       61.597       22.282       51.604       19.736      496.470     2663.005      389.517        0.398        0.177       25.011       20.132        0.648      338.085       10.496      865.421
01/02/2014  14:20:00       37.579       39.218       26.409       25.435       27.165       23.507      646.957      737.929      552.570        0.279        0.097       54.316       15.231        0.079      337.883       10.158      865.435
01/02/2014  14:21:00       36.533       54.357       64.290       44.148       33.689       30.734     1949.085     1134.919      944.601        0.622        0.201       65.493       30.883        0.222      337.999       10.355      865.444
01/02/2014  14:22:00       84.523       34.178       35.266       39.537       35.851       28.191     1563.202     1285.326      794.739        0.660        0.182       91.172       10.327        0.013      337.852       10.107      865.445
01/02/2014  14:23:00       51.018        6.279       -1.883       37.661       27.087       20.296     1418.375      733.726      411.932        0.260        0.128       51.403        7.843        0.023      337.911       10.205      865.442
01/02/2014  14:24:00       33.968       15.705        8.520       21.882       17.194       15.696      478.836      295.648      246.354        0.125        0.051       37.423       15.539        0.172      337.996       10.347      865.444
01/02/2014  14:25:00       23.678        5.476       -3.897       13.822        9.122       10.323      191.048       83.211      106.568        0.049        0.019       24.303        4.923        0.041      337.868       10.133      865.443
01/02/2014  14:26:00       10.584       10.257       -2.016       16.441       17.803        8.104      270.320      316.963       65.667        0.044        0.033       14.739        6.697        0.206      338.092       10.509      865.436
01/02/2014  14:27:00      -52.159       19.294      -17.803       20.410       18.646       14.821      416.552      347.665      219.671        0.220        0.049       55.614       11.752        0.045      337.958       10.283      865.432
01/02/2014  14:28:00      -24.483       -3.942       -5.437       20.405       29.031       17.031      416.357      842.788      290.063        0.110        0.077       24.798       14.294        0.332      338.063       10.458      865.430
01/02/2014  14:29:00       15.863       15.873       10.186       11.767       15.421       16.698      138.471      237.816      278.818        0.063        0.033       22.441       11.251        0.251      338.213       10.712      865.435
01/02/2014  14:30:00       24.183       18.967       -1.093       15.869       10.530       12.475      251.836      110.881      155.617        0.073        0.026       30.734        5.582        0.033      338.069       10.469      865.436
01/02/2014  14:31:00       16.694       34.680       53.710       46.205       29.199       33.459     2134.902      852.591     1119.474        0.424        0.205       38.489       27.681        0.517      338.302       10.862      865.432
01/02/2014  14:32:00       65.846       51.718       25.167       34.080       29.323       32.028     1161.474      859.850     1025.781        0.534        0.152       83.729       21.685        0.067      337.995       10.347      865.428
01/02/2014  14:33:00       88.989        3.410       25.324       39.930       51.491       25.869     1594.439     2651.370      669.224        0.674        0.246       89.054       24.169        0.074      338.080       10.488      865.431
01/02/2014  14:34:00       13.175       39.289       39.493       42.045       42.890       24.576     1767.794     1839.560      603.979        0.374        0.211       41.439       22.773        0.302      338.326       10.901      865.428
01/02/2014  14:35:00        8.835       19.831       35.894       29.906       37.440       34.638      894.378     1401.789     1199.784        0.263        0.175       21.710       30.459        1.968      338.258       10.787      865.423
01/02/2014  14:36:00       30.819       44.977       41.317       42.757       71.305       58.238     1828.126     5084.424     3391.703        0.749        0.515       54.523       57.589        1.116      338.138       10.586      865.413
01/02/2014  14:37:00       32.676       39.676       46.208       38.303       60.213       33.330     1467.155     3625.634     1110.873        0.549        0.310       51.400       36.926        0.516      338.233       10.745      865.394
01/02/2014  14:38:00       33.113       56.762        5.255       22.736       21.567       32.773      516.908      465.153     1074.098        0.320        0.103       65.715       19.669        0.090      338.069       10.469      865.386
01/02/2014  14:39:00        3.803       -0.054       20.468       27.366       30.049       23.457      748.880      902.926      550.230        0.132        0.110        3.803       20.427       28.850      338.532       11.246      865.367
01/02/2014  14:40:00       23.782       -3.322       24.270       51.655       33.001       27.754     2668.287     1089.096      770.306        0.285        0.226       24.013       23.843        0.986      338.462       11.130      865.361
01/02/2014  14:41:00      101.456       71.896       44.833       57.784       30.978       37.527     3338.953      959.638     1408.262        1.159        0.285      124.348       31.148        0.063      338.063       10.458      865.353
01/02/2014  14:42:00        8.107       47.470       62.972       23.500       34.870       30.769      552.267     1215.899      946.753        0.450        0.136       48.157       26.396        0.300      338.306       10.868      865.351
01/02/2014  14:43:00       66.458       29.703       15.024       47.057       25.773       32.048     2214.390      664.228     1027.085        0.471        0.195       72.794       23.489        0.104      338.207       10.702      865.354
01/02/2014  14:44:00       48.237       17.830       -3.168       27.375       18.191       26.411      749.410      330.923      697.549        0.222        0.089       51.427       10.725        0.043      338.116       10.550      865.359
01/02/2014  14:45:00        7.058       51.950       60.885       31.112       40.244       41.565      967.983     1619.591     1727.609        0.538        0.216       52.427       34.336        0.429      338.311       10.878      865.350
01/02/2014  14:46:00      104.642       65.746       19.087       43.427       46.078       44.318     1885.878     2123.203     1964.110        1.080        0.299      123.582       40.220        0.106      338.086       10.499      865.349
01/02/2014  14:47:00       50.574       31.803       12.502       19.194       29.032       20.423      368.394      842.861      417.107        0.268        0.081       59.742       18.319        0.094      338.201       10.691      865.336
01/02/2014  14:48:00        4.608       81.731       96.956       36.604       54.756       44.567     1339.824     2998.269     1986.176        1.121        0.316       81.861       40.720        0.247      338.280       10.824      865.319
01/02/2014  14:49:00       50.295       82.907       58.821       37.297       37.953       40.422     1391.041     1440.424     1633.943        0.866        0.223       96.970       26.697        0.076      338.230       10.740      865.312
01/02/2014  14:50:00       34.690       25.293       15.546       38.232       20.755       22.830     1461.701      430.756      521.230        0.225        0.121       42.932       10.922        0.065      338.227       10.736      865.316
01/02/2014  14:51:00       15.150       -4.402        2.460       18.106       24.189       14.291      327.823      585.091      204.236        0.069        0.056       15.776        9.616        0.372      338.296       10.849      865.316
01/02/2014  14:52:00       11.480        2.790       -3.935       26.681       26.639       15.130      711.902      709.613      228.906        0.090        0.083       11.814       12.696        1.155      338.288       10.836      865.325
01/02/2014  14:53:00       12.737       13.453       33.222       23.915       45.393       27.994      571.949     2060.510      783.689        0.243        0.171       18.526       30.109        2.641      338.435       11.085      865.326
01/02/2014  14:54:00       51.914      -63.267        1.912       42.769       47.488       29.321     1829.186     2255.143      859.696        0.582        0.247       81.840       25.243        0.095      338.324       10.899      865.325
01/02/2014  14:55:00       33.096      -27.744       13.924       31.461       41.816       34.024      989.812     1748.603     1157.665        0.298        0.195       43.186       15.803        0.134      338.411       11.044      865.331
01/02/2014  14:56:00       14.033       22.667       16.334       26.726       17.056       17.930      714.258      290.917      321.500        0.115        0.066       26.659       16.194        0.369      338.347       10.937      865.338
01/02/2014  14:57:00       15.063       19.675       25.465       24.007       22.283        8.558      576.342      496.530       73.241        0.120        0.057       24.779        7.846        0.100      338.309       10.873      865.337
01/02/2014  14:58:00       39.664       33.414       39.906       36.600       28.639       27.595     1339.553      820.206      761.458        0.360        0.146       51.863       17.994        0.120      338.249       10.772      865.339
01/02/2014  14:59:00       46.629       52.997       62.084       49.918       41.476       32.644     2491.836     1720.270     1065.627        0.706        0.264       70.590       34.463        0.238      338.244       10.764      865.338
01/02/2014  15:00:00       77.013       23.976       16.606       58.888       43.110       31.589     3467.812     1858.512      997.837        0.655        0.316       80.659       26.528        0.108      338.181       10.659      865.334
01/02/2014  15:01:00       91.735       59.631       -3.554       41.136       37.094       29.958     1692.136     1375.987      897.491        0.797        0.198      109.413       18.778        0.029      338.187       10.669      865.336
01/02/2014  15:02:00       58.618       43.760       31.530       41.440       39.870       34.206     1717.258     1589.588     1170.028        0.541        0.224       73.151       26.001        0.126      338.211       10.707      865.334
01/02/2014  15:03:00       55.819       47.422       62.466       38.268       34.310       29.724     1464.437     1177.200      883.488        0.640        0.176       73.243       25.247        0.119      338.222       10.727      865.328
01/02/2014  15:04:00       72.395       20.919       26.820       42.340       32.190       35.612     1792.676     1036.209     1268.198        0.525        0.205       75.357       20.833        0.076      338.235       10.750      865.315
01/02/2014  15:05:00       62.933       56.628       54.429       54.455       39.438       40.462     2965.395     1555.335     1637.196        0.814        0.308       84.660       28.874        0.116      338.232       10.743      865.303
01/02/2014  15:06:00       50.624        8.755       19.322       31.877       24.054       19.577     1016.128      578.584      383.277        0.250        0.099       51.375       13.686        0.071      338.241       10.759      865.303
01/02/2014  15:07:00        4.138        7.967       28.207       13.407       26.492       10.746      179.755      701.812      115.477        0.094        0.050        8.978       10.949        1.488      338.468       11.140      865.293
01/02/2014  15:08:00       31.107      -55.067        8.149       33.403       59.703       37.847     1115.730     3564.486     1432.431        0.509        0.306       63.245       43.766        0.479      338.386       11.002      865.287
01/02/2014  15:09:00       26.451       39.831       37.720       28.020       21.966       26.577      785.117      482.502      706.339        0.284        0.099       47.814       16.407        0.118      338.253       10.778      865.292
01/02/2014  15:10:00       21.356       47.607       29.551       23.536       28.392       29.270      553.940      806.094      856.708        0.291        0.111       52.177       14.972        0.082      338.277       10.820      865.289
01/02/2014  15:11:00        7.236        7.990       21.204       12.982       17.591       12.046      168.523      309.453      145.110        0.059        0.031       10.779        6.932        0.414      338.442       11.095      865.288
01/02/2014  15:12:00       17.370       14.269       28.265       22.645       33.200       23.124      512.778     1102.222      534.720        0.173        0.107       22.479       18.630        0.687      338.456       11.119      865.286
01/02/2014  15:13:00        5.998       12.148        9.430       28.965       43.672       27.012      838.993     1907.240      729.644        0.187        0.174       13.548       17.465        1.662      338.423       11.064      865.281
01/02/2014  15:14:00       83.558     -118.608      -10.834       36.021       33.308       22.146     1297.484     1109.393      490.452        1.203        0.145      145.086        8.294        0.003      338.410       11.043      865.272
01/02/2014  15:15:00       81.118      -80.535       18.855       30.790       67.741       38.256      948.018     4588.851     1463.553        1.021        0.350      114.307       43.252        0.143      338.307       10.870      865.268
01/02/2014  15:16:00       66.106       53.526       35.787       29.353       20.388       28.788      861.592      415.658      828.763        0.531        0.105       85.059       17.015        0.040      338.269       10.807      865.273
01/02/2014  15:17:00       37.200        9.080       25.493       31.226       54.711       23.642      975.033     2993.292      558.940        0.332        0.226       38.292       28.946        0.571      338.393       11.013      865.272
01/02/2014  15:18:00       43.888      -57.151        5.319       26.028       43.058       25.203      677.441     1853.976      635.207        0.419        0.158       72.059       13.201        0.034      338.412       11.046      865.278
01/02/2014  15:19:00       48.307      -87.952       -6.672       46.983       55.650       20.776     2207.406     3096.951      431.656        0.792        0.287      100.345       24.076        0.058      338.486       11.170      865.282
01/02/2014  15:20:00       92.903     -103.450      -12.086       53.334       74.564       33.585     2844.480     5559.726     1127.919        1.450        0.477      139.042       36.064        0.067      338.360       10.959      865.288
01/02/2014  15:21:00      121.410     -127.937      -23.278       32.849       39.664       22.024     1079.079     1573.262      485.057        1.739        0.157      176.375       15.211        0.007      338.287       10.837      865.304
01/02/2014  15:22:00       88.038      -64.546       -2.280       35.158       35.071       28.651     1236.062     1229.968      820.896        0.760        0.164      109.164       25.242        0.053      338.337       10.920      865.315
01/02/2014  15:23:00       70.074      -84.676       -1.962       34.453       39.116       22.273     1187.024     1530.033      496.085        0.765        0.161      109.911       19.142        0.030      338.459       11.124      865.319
01/02/2014  15:24:00       18.508      -12.150        6.775       28.822       40.332       27.327      830.698     1626.668      746.753        0.187        0.160       22.140       21.255        0.922      338.462       11.130      865.319
01/02/2014  15:25:00       55.484      -63.015        0.244       40.139       38.189       32.196     1611.177     1458.428     1036.558        0.558        0.205       83.961       31.564        0.141      338.414       11.050      865.323
01/02/2014  15:26:00       67.436      -55.940       -6.514       37.092       42.942       25.328     1375.834     1844.013      641.492        0.579        0.193       87.618       23.263        0.070      338.392       11.013      865.323
01/02/2014  15:27:00       52.493        0.221       19.815       43.282       23.697       27.850     1873.289      561.528      775.632        0.318        0.161       52.493       28.642        0.298      338.328       10.904      865.330
01/02/2014  15:28:00        9.348       16.187       24.710       17.381       19.671       17.821      302.088      386.948      317.592        0.098        0.050       18.692       13.630        0.532      338.457       11.121      865.334
01/02/2014  15:29:00       11.906       28.777       22.599       12.335       17.374       17.918      152.163      301.867      321.060        0.113        0.039       31.143       13.379        0.185      338.429       11.076      865.333
01/02/2014  15:30:00       11.818       10.284       20.060       16.975       18.952       13.572      288.159      359.160      184.201        0.074        0.042       15.667       13.860        0.783      338.510       11.211      865.329
01/02/2014  15:31:00       25.150      -38.321        2.998       26.381       34.686       17.901      695.974     1203.095      320.448        0.216        0.111       45.837       20.442        0.199      338.498       11.189      865.330
01/02/2014  15:32:00       -1.325       31.999       25.895       19.773       21.564       30.622      390.960      464.998      937.677        0.174        0.090       32.026       13.621        0.181      338.485       11.169      865.321
01/02/2014  15:33:00       43.179       41.012       40.876       37.567       36.171       27.346     1411.259     1308.320      747.824        0.434        0.173       59.551       24.960        0.176      338.409       11.040      865.317
01/02/2014  15:34:00       39.689       57.214       40.943       31.523       28.328       27.582      993.682      802.498      760.749        0.454        0.128       69.632       20.721        0.089      338.439       11.092      865.304
01/02/2014  15:35:00       55.652       36.687       11.684       27.835       24.627       25.793      774.791      606.509      665.279        0.331        0.102       66.656       19.916        0.089      338.420       11.058      865.302
01/02/2014  15:36:00       46.671      -27.006        6.453       50.351       22.309       19.161     2535.194      497.710      367.129        0.317        0.170       53.921       20.658        0.147      338.450       11.110      865.295
01/02/2014  15:37:00        8.572      -12.774       22.074       19.030       29.209       15.330      362.151      853.137      235.019        0.109        0.073       15.384        9.477        0.380      338.660       11.461      865.288
01/02/2014  15:38:00       12.946       24.427       30.010       31.077       38.850       23.699      965.779     1509.318      561.622        0.235        0.152       27.645       12.443        0.203      338.606       11.372      865.277
01/02/2014  15:39:00        3.335       19.774       26.639       18.146       18.800       21.740      329.291      353.434      472.623        0.113        0.058       20.053        8.783        0.192      338.642       11.432      865.271
01/02/2014  15:40:00       14.261       36.561       40.453       30.870       19.026       20.480      952.968      361.975      419.417        0.246        0.087       39.244       19.699        0.252      338.523       11.233      865.264
01/02/2014  15:41:00       27.123       37.827       58.189       33.755       29.430       24.576     1139.400      866.125      604.001        0.408        0.130       46.547       25.252        0.294      338.508       11.207      865.258
01/02/2014  15:42:00       56.911       20.672       35.791       21.035       23.073       19.909      442.491      532.364      396.351        0.316        0.069       60.549       13.124        0.047      338.469       11.141      865.254
01/02/2014  15:43:00       37.814        7.863       19.832       31.215       22.806       22.565      974.362      520.135      509.194        0.194        0.100       38.623       25.624        0.440      338.531       11.247      865.248
01/02/2014  15:44:00       18.088       19.205       33.573       24.050       26.966       26.910      578.425      727.163      724.135        0.193        0.101       26.382       26.424        1.003      338.610       11.379      865.246
01/02/2014  15:45:00        4.646       31.902       45.993       22.694       23.014       15.240      514.997      529.651      232.267        0.222        0.064       32.239       13.182        0.167      338.615       11.387      865.247
01/02/2014  15:46:00       25.048       12.582       18.719       35.388       30.701       25.651     1252.302      942.564      657.985        0.199        0.143       28.031       23.294        0.691      338.557       11.290      865.240
01/02/2014  15:47:00        7.477        0.508       10.918       16.721       25.937       16.153      279.600      672.730      260.908        0.069        0.061        7.494       14.379        3.681      338.605       11.370      865.249
01/02/2014  15:48:00        9.051        9.561       36.421       19.218       39.194       26.865      369.313     1536.152      721.738        0.206        0.131       13.166       25.954        3.886      338.641       11.430      865.254
01/02/2014  15:49:00       16.729       15.944       32.839       28.237       30.537       20.379      797.343      932.518      415.323        0.188        0.107       23.110       15.667        0.460      338.532       11.247      865.265
01/02/2014  15:50:00        1.388       26.394       44.890       22.181       23.897       12.766      492.012      571.055      162.966        0.197        0.061       26.430       13.653        0.267      338.561       11.295      865.275
01/02/2014  15:51:00       24.216       46.680       41.239       26.654       23.994       20.647      710.435      575.693      426.288        0.309        0.086       52.587       18.725        0.127      338.455       11.119      865.286
01/02/2014  15:52:00        4.467        2.811       20.372       10.550        8.325        8.433      111.292       69.302       71.114        0.035        0.013        5.278        6.744        1.633      338.609       11.377      865.299
01/02/2014  15:53:00        0.566      -10.149       13.294       11.458       18.727        9.469      131.293      350.712       89.657        0.043        0.029       10.165        6.077        0.357      338.562       11.297      865.303
01/02/2014  15:54:00      -25.943      -18.377        0.187       22.985       15.764       12.176      528.318      248.504      148.265        0.097        0.046       31.792       12.983        0.167      338.527       11.239      865.316
01/02/2014  15:55:00      -26.216      -14.829        1.284       21.859       13.369        9.770      477.816      178.719       95.454        0.083        0.038       30.120       10.708        0.126      338.491       11.179      865.321
01/02/2014  15:56:00       33.538      -26.583        3.279       26.520       18.349       14.421      703.299      336.701      207.952        0.154        0.062       42.795        9.701        0.051      338.508       11.207      865.323
01/02/2014  15:57:00      -28.078        7.155        3.464       26.969       19.907       16.366      727.318      396.276      267.855        0.112        0.070       28.975        8.747        0.091      338.464       11.133      865.324
01/02/2014  15:58:00      -12.298       -1.759        6.588       24.295       16.109       11.473      590.247      259.501      131.629        0.059        0.049       12.423       13.589        1.196      338.491       11.178      865.328
01/02/2014  15:59:00      -15.581      -18.147        3.509       27.889       22.747       19.015      777.795      517.417      361.585        0.112        0.083       23.918       20.250        0.717      338.488       11.174      865.326
01/02/2014  16:00:00       -3.817        0.126        9.411        8.445       11.465        8.185       71.320      131.453       67.001        0.019        0.013        3.819        5.199        1.853      338.605       11.370      865.326
01/02/2014  16:01:00        1.027       14.664       14.601        6.658       17.373       10.531       44.332      301.811      110.896        0.044        0.023       14.700        8.656        0.347      338.529       11.243      865.326
01/02/2014  16:02:00       21.117      -25.672        0.646       31.571       34.515       22.769      996.738     1191.261      518.421        0.191        0.135       33.241       23.116        0.484      338.454       11.115      865.323
01/02/2014  16:03:00       45.368        2.114       13.858       30.774       31.986       24.553      947.041     1023.099      602.873        0.241        0.129       45.417       27.226        0.359      338.334       10.916      865.325
01/02/2014  16:04:00       25.831       11.157       22.215       29.213       19.321       18.142      853.379      373.304      329.114        0.142        0.078       28.138       15.761        0.314      338.385       11.001      865.321
01/02/2014  16:05:00       12.508       -1.186       21.380       27.311       24.675       16.411      745.877      608.835      269.321        0.112        0.081       12.564       19.119        2.316      338.428       11.072      865.315
01/02/2014  16:06:00       22.082       -6.580       25.563       18.236       25.419       18.931      332.558      646.123      358.379        0.126        0.067       23.042       11.126        0.233      338.314       10.883      865.317
01/02/2014  16:07:00       51.827      -71.469       -6.504       24.748       32.772       17.399      612.459     1073.987      302.732        0.491        0.099       88.283       16.571        0.035      338.435       11.085      865.316
01/02/2014  16:08:00       -0.090        9.613       15.461       15.903       23.578       12.807      252.916      555.942      164.029        0.065        0.049        9.613        9.686        1.015      338.410       11.042      865.322
01/02/2014  16:09:00      -12.526      -37.825        0.094       22.217       26.682       16.614      493.576      711.927      276.032        0.153        0.074       39.845       15.128        0.144      338.458       11.122      865.341
01/02/2014  16:10:00       -0.041       15.441       21.315       14.039       10.483       17.046      197.088      109.887      290.572        0.065        0.030       15.441        8.762        0.322      338.337       10.919      865.347
01/02/2014  16:11:00        8.369        7.812       26.004       20.533       25.662       13.442      421.584      658.517      180.699        0.103        0.063       11.448       12.259        1.147      338.409       11.039      865.364
01/02/2014  16:12:00        5.690      -23.610        8.471       19.198       23.909       15.846      368.573      571.648      251.094        0.093        0.060       24.286       12.386        0.260      338.419       11.057      865.369
01/02/2014  16:13:00        1.208        8.649        8.466        9.923       10.468       12.711       98.473      109.576      161.581        0.026        0.018        8.733        8.597        0.969      338.345       10.934      865.369
01/02/2014  16:14:00       -3.076      -14.412        5.146       16.385       24.581       16.062      268.460      604.208      257.997        0.069        0.057       14.737       10.298        0.488      338.491       11.176      865.377
01/02/2014  16:15:00        8.879        0.356       13.397       15.899       15.184       13.968      252.766      230.564      195.119        0.047        0.034        8.886       13.409        2.277      338.375       10.985      865.374
01/02/2014  16:16:00       -8.715       -4.949       16.021       14.868       20.502       16.016      221.052      420.321      256.513        0.063        0.045       10.022       14.122        1.986      338.398       11.024      865.372
01/02/2014  16:17:00       -8.105       -1.463       -5.599       12.388       11.842       13.567      153.461      140.234      184.065        0.029        0.024        8.236        9.339        1.286      338.389       11.006      865.369
01/02/2014  16:18:00      -16.861        1.697        9.071       15.186        9.276        9.843      230.604       86.048       96.884        0.039        0.021       16.946        6.589        0.151      338.367       10.971      865.366
01/02/2014  16:19:00      -25.347        6.938       13.148       19.237       13.680        8.572      370.070      187.140       73.473        0.075        0.032       26.279        6.728        0.066      338.354       10.948      865.357
01/02/2014  16:20:00      -13.118       10.136        9.556       11.586       11.542       10.627      134.240      133.208      112.923        0.037        0.019       16.578        6.254        0.142      338.347       10.938      865.347
01/02/2014  16:21:00      -11.978        3.384       -1.177       10.573       11.810       11.388      111.795      139.479      129.684        0.027        0.019       12.447        6.335        0.259      338.290       10.842      865.332
01/02/2014  16:22:00      -20.997      -21.006        8.455       28.530       28.294       20.297      813.973      800.578      411.973        0.149        0.101       29.701       20.808        0.491      338.398       11.023      865.317
01/02/2014  16:23:00       -6.349       -3.423       15.568       19.375       20.005       14.612      375.407      400.217      213.520        0.064        0.049        7.213        8.084        1.256      338.229       10.738      865.306
01/02/2014  16:24:00       -5.602       24.987       40.503       10.489       15.583       11.618      110.023      242.843      134.979        0.139        0.024       25.607        6.607        0.067      338.179       10.656      865.292
01/02/2014  16:25:00       -2.255       34.789       52.612       25.101       23.632       21.854      630.079      558.482      477.615        0.282        0.083       34.862       18.494        0.281      338.205       10.698      865.277
01/02/2014  16:26:00        6.280       37.946       43.365       15.035       18.153       16.668      226.055      329.530      277.806        0.210        0.042       38.462       11.388        0.088      338.252       10.776      865.263
01/02/2014  16:27:00        2.773       22.323       39.970       16.273       22.771       20.000      264.801      518.527      399.991        0.164        0.059       22.495       16.602        0.545      338.243       10.763      865.264
01/02/2014  16:28:00       15.262        1.245       23.625       23.476       34.698       18.390      551.108     1203.957      338.197        0.144        0.105       15.313       21.174        1.912      338.179       10.654      865.272
01/02/2014  16:29:00       12.389      -12.049       15.491       22.923       27.736       14.270      525.458      769.297      203.630        0.102        0.075       17.282       17.543        1.030      338.201       10.692      865.273
01/02/2014  16:30:00       34.629      -38.425        0.770       19.917       27.058       17.131      396.691      732.133      293.475        0.205        0.071       51.727        9.559        0.034      338.188       10.669      865.287
01/02/2014  16:31:00      -11.689       -3.806       10.299       20.695       28.957        9.407      428.293      838.502       88.497        0.081        0.068       12.293        8.758        0.508      338.088       10.502      865.295
01/02/2014  16:32:00      -16.578      -27.326       -0.627       17.119       17.535       10.902      293.063      307.480      118.849        0.087        0.036       31.962        6.450        0.041      338.164       10.630      865.295
01/02/2014  16:33:00       36.891      -38.089       -1.231       36.400       21.394       16.768     1324.974      457.699      281.163        0.244        0.103       53.026       13.349        0.063      338.144       10.596      865.298
01/02/2014  16:34:00       13.942      -18.613       17.605       21.773       24.737       13.727      474.057      611.913      188.428        0.106        0.064       23.256       13.182        0.321      338.043       10.428      865.297
01/02/2014  16:35:00        0.197       -5.572       11.030       18.854       18.435       15.154      355.474      339.855      229.631        0.054        0.046        5.575        5.688        1.041      338.065       10.463      865.287
01/02/2014  16:36:00       11.725      -22.225        8.027       28.180       28.610       28.533      794.104      818.507      814.116        0.156        0.121       25.128       22.266        0.785      338.015       10.380      865.287
01/02/2014  16:37:00       50.887      -13.906       15.822       49.503       52.066       24.565     2450.531     2710.874      603.428        0.440        0.288       52.753       33.202        0.396      337.956       10.281      865.277
01/02/2014  16:38:00       77.866      -54.566        6.001       44.104       38.723       23.366     1945.143     1499.494      545.970        0.653        0.200       95.082       21.375        0.051      338.089       10.504      865.278
01/02/2014  16:39:00       74.054      -84.116       -5.367       29.219       34.915       17.167      853.756     1219.064      294.711        0.748        0.118      112.069       18.686        0.028      338.085       10.498      865.271
01/02/2014  16:40:00       69.162      -19.167       19.340       56.800       46.879       28.479     3226.237     2197.673      811.059        0.588        0.312       71.769       35.630        0.246      337.975       10.315      865.273
01/02/2014  16:41:00       -1.851      -27.855       13.991       24.711       43.361       21.488      610.625     1880.205      461.753        0.196        0.148       27.916       25.851        0.857      337.969       10.301      865.264
01/02/2014  16:42:00       29.395      -23.309        7.062       30.355       29.849       21.653      921.403      890.948      468.833        0.187        0.114       37.515       16.478        0.193      337.918       10.217      865.257
01/02/2014  16:43:00       54.199      -73.148       -1.164       37.972       30.130       21.297     1441.838      907.843      453.563        0.555        0.140       91.039       21.058        0.054      338.031       10.405      865.255
01/02/2014  16:44:00      -11.355       -5.573       29.492       25.772       42.941       17.046      664.173     1843.902      290.573        0.191        0.140       12.649       20.701        2.678      337.907       10.199      865.261
01/02/2014  16:45:00      -43.503      -20.213       -0.920       17.862       16.129       15.687      319.035      260.155      246.096        0.156        0.041       47.969       11.606        0.059      337.774        9.975      865.273
01/02/2014  16:46:00      -49.011        0.772      -13.946       11.158        8.860       10.556      124.503       78.505      111.425        0.146        0.016       49.017        6.032        0.015      337.699        9.848      865.275
01/02/2014  16:47:00      -46.161        2.577       -7.133        7.760       14.776        6.929       60.216      218.327       48.010        0.126        0.016       46.233        5.268        0.013      337.468        9.462      865.276
01/02/2014  16:48:00      -62.822        0.519      -10.292       14.114        9.351       10.035      199.214       87.449      100.693        0.222        0.019       62.824        7.765        0.015      337.357        9.276      865.270
01/02/2014  16:49:00      -47.521       17.528       -5.966       15.557       10.901        5.089      242.016      118.828       25.900        0.149        0.019       50.651        2.267        0.002      337.412        9.367      865.258
01/02/2014  16:50:00      -38.163       11.492       -6.677        7.213       10.983        5.705       52.033      120.626       32.548        0.092        0.010       39.856        4.365        0.012      337.500        9.515      865.255
01/02/2014  16:51:00      -43.089       12.796       -8.850        8.588        7.329        4.610       73.754       53.715       21.251        0.112        0.007       44.949        2.081        0.002      337.421        9.383      865.255
01/02/2014  16:52:00      -35.234        1.536       -9.638        7.926        8.590        7.760       62.825       73.794       60.225        0.077        0.010       35.267        4.997        0.020      337.408        9.361      865.254
01/02/2014  16:53:00      -60.672        4.929      -10.251       18.273        6.659        7.793      333.894       44.339       60.733        0.212        0.022       60.872        4.544        0.006      337.467        9.459      865.260
01/02/2014  16:54:00      -65.557      -15.207       -9.981       11.973       11.716        7.106      143.353      137.274       50.494        0.248        0.017       67.298        4.790        0.005      337.266        9.125      865.274
01/02/2014  16:55:00      -46.134      -22.559       -9.098       14.391       10.103       10.316      207.087      102.070      106.415        0.157        0.021       51.354        6.869        0.018      336.989        8.660      865.294
01/02/2014  16:56:00      -64.218      -23.130       -5.371       13.623       16.742       13.083      185.576      280.302      171.155        0.266        0.032       68.256        8.492        0.015      336.773        8.301      865.321
01/02/2014  16:57:00      -82.465       -9.824      -10.671       18.380       16.037       14.713      337.814      257.199      216.483        0.391        0.041       83.048       10.734        0.017      336.624        8.051      865.345
01/02/2014  16:58:00      -49.317        1.523       -1.491       33.165       18.232       12.061     1099.948      332.399      145.463        0.201        0.079       49.340       10.104        0.042      336.640        8.078      865.354
01/02/2014  16:59:00      -40.017        3.133       -3.354       20.881       17.459       14.158      436.036      304.832      200.444        0.128        0.047       40.140       11.519        0.082      336.534        7.900      865.366
01/02/2014  17:00:00      -34.281       13.612       -7.978       18.032       21.205       14.852      325.168      449.653      220.588        0.121        0.050       36.885        8.904        0.058      336.661        8.112      865.380
01/02/2014  17:01:00      -72.135       -5.847      -10.551       27.684       24.500       17.508      766.399      600.270      306.547        0.351        0.084       72.371       11.849        0.027      336.809        8.361      865.389
01/02/2014  17:02:00      -65.022      -17.057       -8.860       33.488       24.270       14.512     1121.451      589.052      210.608        0.326        0.096       67.222       14.682        0.048      336.616        8.037      865.376
01/02/2014  17:03:00      -71.505       -7.678      -17.810       20.802       12.737       12.511      432.705      162.230      156.527        0.312        0.038       71.916        9.479        0.017      336.386        7.654      865.368
01/02/2014  17:04:00      -62.282      -17.611      -19.679       21.322       18.762       17.336      454.628      351.998      300.521        0.284        0.055       64.724        8.672        0.018      336.518        7.873      865.378
01/02/2014  17:05:00      -84.931      -11.546      -14.948       16.962       16.736       11.041      287.697      280.087      121.908        0.413        0.034       85.712        6.171        0.005      336.446        7.754      865.380
01/02/2014  17:06:00      -76.979       -6.871      -16.149       26.076       16.081       11.386      679.974      258.601      129.648        0.365        0.053       77.285        7.110        0.008      336.273        7.465      865.400
01/02/2014  17:07:00      -76.516      -17.235       -6.044       23.611       24.173       17.763      557.457      584.332      315.526        0.382        0.073       78.433        9.227        0.014      336.275        7.468      865.410
01/02/2014  17:08:00     -109.155      -37.932       -7.300       36.702       35.568       15.866     1347.068     1265.100      251.737        0.813        0.143      115.558       11.072        0.009      336.223        7.381      865.411
01/02/2014  17:09:00      -96.194      -30.593       -9.942       31.503       32.085       18.018      992.415     1029.438      324.639        0.632        0.117      100.942       15.014        0.022      336.126        7.218      865.417
01/02/2014  17:10:00      -72.836      -30.757       -5.358       40.080       25.979       17.618     1606.441      674.891      310.390        0.444        0.130       79.064       11.791        0.022      336.113        7.196      865.421
01/02/2014  17:11:00      -58.872      -31.131       -3.527       43.485       22.978       17.030     1890.961      527.999      290.029        0.358        0.135       66.597       14.542        0.048      336.145        7.251      865.429
01/02/2014  17:12:00      -30.855       -8.033       -9.543       30.568       23.084       16.560      934.385      532.891      274.229        0.142        0.087       31.884       12.906        0.164      336.220        7.376      865.434
01/02/2014  17:13:00       27.381       11.556       -1.101       22.894       12.010       11.374      524.143      144.239      129.371        0.084        0.040       29.719        7.311        0.061      336.373        7.631      865.438
01/02/2014  17:14:00       54.611       27.414        1.053       12.879        9.800       13.561      165.878       96.044      183.888        0.209        0.022       61.106        6.569        0.012      336.437        7.739      865.444
01/02/2014  17:15:00       22.424       43.840       -3.915       17.655        9.135        4.305      311.697       83.441       18.530        0.143        0.021       49.242        5.451        0.012      336.629        8.059      865.451
01/02/2014  17:16:00       -4.337       32.863       -7.060        9.330        5.675        3.595       87.051       32.210       12.924        0.064        0.007       33.148        2.807        0.007      336.805        8.355      865.458
01/02/2014  17:17:00      -49.296       -5.054       -8.981       16.976       16.557        6.856      288.186      274.136       47.006        0.157        0.030       49.555        2.609        0.003      336.746        8.254      865.462
01/02/2014  17:18:00      -60.282      -20.041       -9.182        7.989        7.571        6.020       63.818       57.318       36.240        0.214        0.008       63.526        2.995        0.002      336.455        7.770      865.460
01/02/2014  17:19:00      -73.386      -13.545      -13.222       12.608        8.426        9.093      158.974       70.992       82.680        0.303        0.016       74.625        4.934        0.004      336.181        7.309      865.458
01/02/2014  17:20:00      -46.125      -10.122       -8.430       10.804        9.429        6.806      116.720       88.904       46.325        0.128        0.013       47.223        5.296        0.013      336.294        7.499      865.457
01/02/2014  17:21:00      -30.753       14.094      -11.422       17.050       24.633        9.878      290.693      606.767       97.585        0.113        0.050       33.829        2.236        0.004      336.663        8.115      865.449
01/02/2014  17:22:00      -16.505       -2.773       -1.995       15.491       20.404       11.997      239.974      416.327      143.937        0.054        0.040       16.736        9.643        0.332      337.127        8.893      865.445
01/02/2014  17:23:00       -4.532        8.050       -3.105       23.057       18.333       10.639      531.643      336.085      113.190        0.054        0.049        9.238        6.845        0.549      336.971        8.629      865.452
01/02/2014  17:24:00      -49.793      -14.767       -6.608       25.837       14.865       10.755      667.564      220.971      115.667        0.187        0.050       51.937       10.426        0.040      336.458        7.774      865.461
01/02/2014  17:25:00      -53.811       -4.474      -16.916       12.787       13.402        7.441      163.509      179.619       55.364        0.180        0.020       53.996        5.799        0.012      336.261        7.444      865.466
01/02/2014  17:26:00      -35.465       -8.612       -8.775       15.559        7.152        7.715      242.070       51.156       59.524        0.088        0.018       36.495        6.225        0.029      336.410        7.692      865.468
01/02/2014  17:27:00      -10.488       -1.450       -2.785       13.128        9.858        5.119      172.344       97.171       26.205        0.021        0.015       10.588        2.923        0.076      336.822        8.381      865.468
01/02/2014  17:28:00      -45.336      -11.930       -4.258       11.856        9.266        7.176      140.558       85.865       51.498        0.125        0.014       46.879        5.683        0.015      336.234        7.398      865.464
01/02/2014  17:29:00      -45.074      -24.848       -6.359       18.444        9.310        8.017      340.163       86.677       64.276        0.159        0.025       51.469        7.561        0.022      336.521        7.877      865.457
01/02/2014  17:30:00      -52.000      -21.106      -14.163       12.358       10.024        7.893      152.725      100.473       62.301        0.183        0.016       56.120        6.381        0.013      336.250        7.426      865.448
01/02/2014  17:31:00      -59.595      -21.303      -11.488       11.403        8.958        7.028      130.035       80.241       49.399        0.220        0.013       63.288        3.712        0.003      336.289        7.491      865.430
01/02/2014  17:32:00      -80.946      -16.209      -14.402       10.162        8.288        7.955      103.268       68.686       63.285        0.363        0.012       82.552        4.253        0.003      336.142        7.246      865.416
01/02/2014  17:33:00      -71.724      -14.945      -12.832       10.101        8.563        6.135      102.022       73.321       37.643        0.287        0.011       73.265        3.846        0.003      336.088        7.155      865.406
01/02/2014  17:34:00      -96.854      -16.377      -21.295       14.187       13.426        7.753      201.273      180.256       60.109        0.527        0.022       98.229        6.299        0.004      336.111        7.194      865.394
01/02/2014  17:35:00      -65.699      -22.409      -12.241       20.779       17.948       15.124      431.781      322.123      228.720        0.298        0.049       69.416       11.235        0.026      335.901        6.843      865.393
01/02/2014  17:36:00      -69.790      -23.779      -12.080       13.345       12.335        8.635      178.081      152.157       74.568        0.299        0.020       73.729        2.386        0.001      335.694        6.500      865.396
01/02/2014  17:37:00      -97.120      -14.861      -18.252       16.588       10.490        8.943      275.163      110.038       79.985        0.523        0.023       98.251        5.801        0.003      335.921        6.877      865.389
01/02/2014  17:38:00      -74.369       -8.990       -8.911       15.065       12.983       11.017      226.947      168.560      121.380        0.310        0.026       74.910        8.091        0.012      335.891        6.827      865.400
01/02/2014  17:39:00      -75.798      -31.286      -15.916       14.005       22.177       10.649      196.134      491.802      113.393        0.389        0.040       82.001        3.819        0.002      335.737        6.571      865.408
01/02/2014  17:40:00      -64.671       -6.526      -15.834       15.328       15.818        9.162      234.943      250.205       83.951        0.252        0.028       65.000        5.326        0.007      335.739        6.573      865.410
01/02/2014  17:41:00      -59.831      -13.966      -14.340       10.529       18.536       10.054      110.862      343.587      101.077        0.227        0.028       61.440        5.024        0.007      335.690        6.493      865.420
01/02/2014  17:42:00      -80.451       -6.352      -13.357       24.269       18.048       11.176      588.991      325.713      124.911        0.387        0.052       80.701        7.418        0.008      335.713        6.530      865.414
01/02/2014  17:43:00      -95.592      -13.051      -18.664       13.009       17.839       13.282      169.236      318.234      176.410        0.516        0.033       96.478       11.695        0.015      335.566        6.284      865.409
01/02/2014  17:44:00      -81.235      -29.139      -14.889       17.572       17.025       11.606      308.759      289.837      134.693        0.420        0.037       86.303        9.182        0.011      335.485        6.151      865.418
01/02/2014  17:45:00     -111.283      -21.253      -18.660       20.359       19.989       11.674      414.500      399.553      136.277        0.707        0.048      113.294        8.274        0.005      335.484        6.150      865.422
01/02/2014  17:46:00      -87.433      -35.436      -14.813       26.122       28.084       21.107      682.334      788.726      445.520        0.552        0.096       94.341       15.628        0.027      335.537        6.237      865.433
01/02/2014  17:47:00      -92.155      -30.621      -16.908       17.106       23.145       16.839      292.623      535.677      283.550        0.541        0.056       97.109       10.414        0.011      335.466        6.118      865.436
01/02/2014  17:48:00     -105.080      -19.832      -12.895       22.640       28.282       14.625      512.563      799.892      213.900        0.656        0.076      106.935       10.973        0.011      335.418        6.037      865.453
01/02/2014  17:49:00      -88.633      -20.497      -13.177       23.711       25.097       16.393      562.195      629.853      268.741        0.495        0.073       90.972       15.365        0.029      335.392        5.993      865.465
01/02/2014  17:50:00     -114.474      -21.370      -19.649       19.950       26.170       16.621      398.017      684.871      276.251        0.765        0.068      116.452       10.683        0.008      335.374        5.965      865.469
01/02/2014  17:51:00     -133.772      -18.509      -21.000       31.033       31.256       18.600      963.027      976.910      345.964        1.048        0.114      135.046       12.165        0.008      335.292        5.829      865.479
01/02/2014  17:52:00     -140.593      -22.155      -26.315       32.239       21.036       14.075     1039.384      442.524      198.108        1.131        0.084      142.328       12.932        0.008      335.363        5.945      865.487
01/02/2014  17:53:00      -92.752      -41.770      -12.109       39.347       23.621       17.550     1548.174      557.959      307.995        0.645        0.121      101.723       14.790        0.021      335.235        5.733      865.496
01/02/2014  17:54:00     -122.815      -32.624      -22.511       32.832       25.265       16.577     1077.918      638.313      274.792        0.932        0.100      127.074       13.206        0.011      335.189        5.657      865.505
01/02/2014  17:55:00     -125.363      -20.059      -21.986       29.140       25.121       18.503      849.138      631.050      342.376        0.921        0.091      126.958       15.698        0.015      335.275        5.798      865.505
01/02/2014  17:56:00     -110.006      -36.442      -16.247       24.799       23.467       15.061      614.967      550.688      226.835        0.754        0.070      115.885       11.659        0.010      335.163        5.613      865.507
01/02/2014  17:57:00     -124.436      -22.468      -13.902       38.821       29.223       22.286     1507.089      853.965      496.659        0.952        0.143      126.448       23.755        0.035      335.119        5.542      865.511
01/02/2014  17:58:00     -104.199       -3.730       -9.062       53.100       40.041       23.308     2819.648     1603.245      543.253        0.796        0.248      104.266       21.231        0.041      335.099        5.509      865.518
01/02/2014  17:59:00     -135.119        9.128      -22.570       45.430       45.733       22.403     2063.922     2091.501      501.886        1.175        0.233      135.427       15.155        0.013      335.101        5.512      865.517
01/02/2014  18:00:00     -118.178      -13.622      -16.414       40.789       27.444       24.601     1663.766      753.159      605.230        0.872        0.151      118.960       20.398        0.029      335.075        5.470      865.504
01/02/2014  18:01:00     -116.779      -13.745      -13.082       54.601       33.485       19.737     2981.265     1121.219      389.538        0.924        0.225      117.586       13.010        0.012      335.087        5.490      865.501
01/02/2014  18:02:00     -124.016       -4.881      -24.157       34.021       23.937       17.710     1157.447      572.996      313.650        0.902        0.102      124.112       14.978        0.015      335.086        5.487      865.495
01/02/2014  18:03:00     -120.946       -5.615      -22.567       26.241       24.073       17.733      688.589      579.503      314.474        0.838        0.079      121.076       12.188        0.010      335.084        5.483      865.485
01/02/2014  18:04:00     -117.390       -8.234      -23.283       24.235       21.472       15.806      587.315      461.027      249.835        0.784        0.065      117.678       13.110        0.012      335.095        5.501      865.483
01/02/2014  18:05:00     -125.948      -15.177      -18.665       21.105       21.729       13.803      445.419      472.156      190.520        0.877        0.055      126.859        7.542        0.004      335.099        5.508      865.471
01/02/2014  18:06:00      -97.131      -16.241      -17.461       24.174       26.750       19.255      584.380      715.572      370.757        0.584        0.084       98.480       15.499        0.025      335.135        5.568      865.460
01/02/2014  18:07:00     -107.991      -39.428      -20.883       22.065       29.762       19.199      486.847      885.785      368.595        0.770        0.087      114.963       19.481        0.029      335.128        5.557      865.459
01/02/2014  18:08:00     -121.406      -26.536      -16.770       30.678       23.938       18.870      941.132      573.047      356.067        0.880        0.094      124.272       16.355        0.017      335.028        5.391      865.448
01/02/2014  18:09:00     -104.248      -44.505      -14.167       27.613       28.707       17.596      762.459      824.118      309.618        0.747        0.095      113.351        9.953        0.008      335.018        5.374      865.444
01/02/2014  18:10:00      -99.567      -23.340      -11.242       35.233       20.684       20.452     1241.341      427.823      418.264        0.634        0.104      102.266       17.938        0.031      334.995        5.336      865.459
01/02/2014  18:11:00     -136.258      -19.601      -20.162       24.516       23.777       17.432      601.016      565.333      303.861        1.041        0.074      137.660       12.554        0.008      334.989        5.326      865.465
01/02/2014  18:12:00      -86.941      -28.320      -17.561       26.244       21.976       12.185      688.767      482.963      148.471        0.499        0.066       91.437        9.793        0.011      335.025        5.386      865.467
01/02/2014  18:13:00     -112.339      -32.548      -13.142       18.799       22.440       15.280      353.394      503.550      233.491        0.747        0.055      116.959       10.389        0.008      335.023        5.383      865.471
01/02/2014  18:14:00     -115.965      -19.741      -17.935       18.903       25.642       14.686      357.330      657.504      215.689        0.769        0.062      117.633       11.138        0.009      335.017        5.373      865.465
01/02/2014  18:15:00     -117.921      -16.297      -16.392       19.208       21.188       13.965      368.952      448.918      195.015        0.773        0.051      119.042        6.008        0.003      334.970        5.293      865.452
01/02/2014  18:16:00      -98.100      -13.207      -17.824       37.859       26.031       16.571     1433.272      677.591      274.589        0.625        0.119       98.985       12.635        0.016      334.915        5.203      865.455
01/02/2014  18:17:00     -120.035       -7.371      -19.937       22.322       24.328       16.779      498.281      591.857      281.535        0.812        0.069      120.261       14.188        0.014      334.938        5.241      865.446
01/02/2014  18:18:00     -106.112      -21.047      -18.429       25.431       24.999       14.666      646.732      624.961      215.104        0.676        0.074      108.180       12.230        0.013      334.931        5.230      865.454
01/02/2014  18:19:00     -106.807      -27.756      -11.189       21.143       19.625       14.878      447.008      385.134      221.358        0.668        0.053      110.354       12.688        0.013      334.950        5.260      865.453
01/02/2014  18:20:00     -140.154      -12.015      -27.173       24.728       15.908       14.445      611.462      253.054      208.644        1.080        0.054      140.669       11.532        0.007      334.933        5.233      865.446
01/02/2014  18:21:00     -145.061      -15.696      -19.966       32.736       26.265       17.803     1071.621      689.852      316.936        1.188        0.104      145.908       14.046        0.009      334.919        5.210      865.446
01/02/2014  18:22:00     -131.642      -27.708      -15.085       32.757       22.859       19.068     1072.990      522.541      363.592        1.014        0.098      134.526       19.643        0.021      334.877        5.140      865.445
01/02/2014  18:23:00     -112.710      -38.195      -21.251       20.180       19.725       16.197      407.244      389.095      262.351        0.784        0.053      119.006       12.677        0.011      334.810        5.027      865.451
01/02/2014  18:24:00      -94.288      -62.000      -13.671       36.364       28.938       22.133     1322.372      837.428      489.856        0.778        0.132      112.847       21.502        0.036      334.851        5.097      865.464
01/02/2014  18:25:00      -74.664      -50.381       -3.947       31.126       30.365       19.525      968.821      922.044      381.212        0.520        0.114       90.072       14.305        0.025      334.816        5.038      865.461
01/02/2014  18:26:00      -87.950      -39.731      -21.714       27.926       27.027       18.825      779.857      730.467      354.385        0.582        0.093       96.508       16.158        0.028      334.869        5.125      865.463
01/02/2014  18:27:00      -95.306      -55.580      -16.023       23.689       18.464       15.836      561.164      340.918      250.792        0.679        0.058      110.328        7.444        0.005      334.882        5.149      865.439
01/02/2014  18:28:00      -99.671      -44.611      -28.903       21.091       20.212       13.174      444.840      408.509      173.542        0.689        0.051      109.199       12.930        0.014      334.868        5.124      865.430
01/02/2014  18:29:00      -86.027      -40.675       -9.687       27.134       29.330       19.103      736.245      860.224      364.906        0.555        0.098       95.158        8.821        0.009      334.887        5.156      865.417
01/02/2014  18:30:00      -84.882      -50.981      -17.367       26.317       24.341       17.151      692.590      592.471      294.146        0.584        0.079       99.015       16.143        0.027      334.854        5.102      865.414
01/02/2014  18:31:00      -76.249      -45.363      -14.554       26.220       22.208       19.904      687.462      493.173      396.184        0.483        0.079       88.723       14.633        0.027      334.838        5.073      865.414
01/02/2014  18:32:00     -114.400      -61.879      -20.743       15.737       15.694       12.657      247.638      246.293      160.206        0.900        0.033      130.063        3.598        0.001      334.798        5.008      865.407
01/02/2014  18:33:00     -139.129      -57.575      -19.439       32.409       19.602       14.868     1050.341      384.220      221.052        1.235        0.083      150.571       13.739        0.008      334.760        4.943      865.409
01/02/2014  18:34:00     -163.081      -46.693      -17.723       20.311       19.551       11.328      412.540      382.246      128.318        1.501        0.046      169.634        4.814        0.001      334.805        5.020      865.411
01/02/2014  18:35:00     -118.574      -53.483      -11.088       36.583       27.304       16.745     1338.348      745.503      280.412        0.970        0.118      130.077       17.771        0.019      334.754        4.935      865.421
01/02/2014  18:36:00     -133.272      -64.467       -9.515       43.417       21.230       15.259     1885.005      450.693      232.831        1.229        0.128      148.045       17.134        0.013      334.825        5.053      865.428
01/02/2014  18:37:00     -129.841      -64.528       -8.126       16.592       19.621       14.956      275.303      384.971      223.683        1.099        0.044      144.992        9.842        0.005      334.850        5.095      865.439
01/02/2014  18:38:00     -135.733      -75.291       -6.128       32.731       24.692       22.820     1071.289      609.708      520.739        1.317        0.110      155.216       17.161        0.012      334.894        5.168      865.450
01/02/2014  18:39:00     -123.613      -81.919       -6.335       32.034       21.768       21.790     1026.208      473.860      474.809        1.200        0.099      148.293       18.328        0.015      334.803        5.017      865.458
01/02/2014  18:40:00     -123.457      -70.013       -1.886       34.313       32.896       22.391     1177.355     1082.138      501.345        1.145        0.138      141.927       22.155        0.024      334.810        5.028      865.471
01/02/2014  18:41:00     -154.551      -64.618       -6.684       30.261       33.646       20.060      915.714     1132.076      402.398        1.528        0.123      167.516       13.981        0.007      334.858        5.106      865.467
01/02/2014  18:42:00     -138.620      -30.332       -4.606       35.267       29.753       20.096     1243.730      885.270      403.832        1.134        0.127      141.900       19.519        0.019      334.824        5.050      865.471
01/02/2014  18:43:00     -158.635      -43.389       -9.684       29.847       30.621       17.955      890.855      937.620      322.399        1.465        0.108      164.461       12.982        0.006      334.874        5.135      865.471
01/02/2014  18:44:00     -159.045      -38.861        0.443       45.435       41.283       25.091     2064.343     1704.269      629.572        1.560        0.220      163.724       26.565        0.026      334.821        5.046      865.467
01/02/2014  18:45:00     -159.910      -39.291       -2.789       47.616       35.900       24.467     2267.272     1288.830      598.637        1.564        0.208      164.666       25.809        0.025      334.815        5.036      865.470
01/02/2014  18:46:00     -156.359      -64.808       -0.898       51.147       41.267       23.423     2616.021     1702.973      548.645        1.676        0.243      169.258       22.400        0.018      334.819        5.041      865.465
01/02/2014  18:47:00     -157.690      -84.813      -12.349       46.164       40.708       26.110     2131.130     1657.121      681.712        1.834        0.223      179.051       26.883        0.023      334.849        5.093      865.459
01/02/2014  18:48:00     -152.932      -46.916      -13.749       32.570       39.153       26.549     1060.817     1532.946      704.874        1.454        0.165      159.967       18.957        0.014      334.679        4.810      865.465
01/02/2014  18:49:00     -147.233      -23.370      -14.645       31.478       30.342       18.483      990.838      920.647      341.631        1.235        0.113      149.076       12.132        0.007      334.602        4.681      865.467
01/02/2014  18:50:00     -137.866       -9.733       -8.658       42.813       29.616       26.047     1832.963      877.127      678.443        1.128        0.169      138.209       23.969        0.030      334.644        4.753      865.468
01/02/2014  18:51:00     -148.155      -21.665       -8.588       42.078       35.518       24.624     1770.572     1261.509      606.319        1.306        0.182      149.731       23.159        0.024      334.587        4.658      865.482
01/02/2014  18:52:00     -148.360      -43.973      -14.387       27.484       30.061       20.366      755.385      903.636      414.784        1.311        0.104      154.740       15.796        0.010      334.551        4.597      865.481
01/02/2014  18:53:00     -106.979      -39.868      -12.434       39.020       35.286       20.812     1522.572     1245.081      433.155        0.819        0.160      114.167       15.113        0.018      334.499        4.512      865.470
01/02/2014  18:54:00      -62.224       -8.079       -1.250       45.426       33.752       21.399     2063.557     1139.203      457.927        0.380        0.183       62.746       18.914        0.091      334.412        4.369      865.475
01/02/2014  18:55:00     -121.561       -3.135      -16.111       60.223       44.421       28.281     3626.762     1973.212      799.795        1.072        0.320      121.601       29.842        0.060      334.363        4.287      865.473
01/02/2014  18:56:00      -94.506       -6.432       -7.323       53.336       44.392       26.442     2844.734     1970.650      699.190        0.727        0.276       94.724       25.214        0.071      334.287        4.161      865.468
01/02/2014  18:57:00      -95.876      -27.474       -9.048       45.318       40.985       20.423     2053.683     1679.768      417.118        0.709        0.208       99.735       15.705        0.025      334.332        4.235      865.465
01/02/2014  18:58:00     -118.085      -26.100      -10.957       32.976       41.104       25.326     1087.421     1689.557      641.413        0.908        0.171      120.935       16.113        0.018      334.305        4.190      865.477
01/02/2014  18:59:00      -86.499      -15.347       -7.758       27.060       29.814       28.297      732.263      888.874      800.733        0.510        0.121       87.850       18.217        0.043      334.304        4.187      865.475
01/02/2014  19:00:00      -89.591      -22.174      -22.430       23.019       25.989       20.516      529.887      675.425      420.913        0.532        0.081       92.294       10.089        0.012      334.318        4.211      865.476
01/02/2014  19:01:00      -89.915      -29.637      -30.584       25.244       30.634       22.928      637.240      938.472      525.702        0.600        0.105       94.674       15.889        0.028      334.381        4.315      865.476
01/02/2014  19:02:00     -105.260      -25.298      -13.382       25.260       26.466       18.041      638.043      700.475      325.483        0.678        0.083      108.258       13.816        0.016      334.335        4.239      865.473
01/02/2014  19:03:00     -116.117      -33.263      -13.295       15.951       19.581       13.932      254.435      383.414      194.113        0.780        0.042      120.788       11.778        0.010      334.384        4.322      865.468
01/02/2014  19:04:00     -125.953      -21.160      -21.551       14.536       20.573       15.126      211.302      423.234      228.796        0.882        0.043      127.718       13.095        0.011      334.337        4.244      865.480
01/02/2014  19:05:00     -130.167      -14.613      -20.767       16.663       14.149       12.241      277.661      200.197      149.830        0.911        0.031      130.985        2.638        0.000      334.381        4.315      865.480
01/02/2014  19:06:00     -125.778      -13.276      -19.852       20.530       22.444       15.144      421.482      503.727      229.343        0.877        0.058      126.477        9.718        0.006      334.364        4.287      865.480
01/02/2014  19:07:00     -123.114      -10.761      -19.292       20.636       20.698       13.251      425.846      428.411      175.589        0.834        0.051      123.584        7.928        0.004      334.364        4.289      865.496
01/02/2014  19:08:00     -124.830      -17.609      -20.462       22.656       20.236       13.926      513.283      409.492      193.923        0.871        0.056      126.066        5.411        0.002      334.363        4.286      865.495
01/02/2014  19:09:00     -107.338      -15.127      -14.533       25.498       24.276       19.558      650.165      589.321      382.521        0.679        0.081      108.399       15.566        0.021      334.352        4.268      865.496
01/02/2014  19:10:00      -94.300      -13.735       -2.903       32.156       19.163       15.677     1034.013      367.224      245.781        0.537        0.082       95.295       17.167        0.032      334.358        4.276      865.497
01/02/2014  19:11:00     -107.816      -20.230      -11.956       25.486       22.888       19.446      649.541      523.857      378.136        0.686        0.078      109.698       14.905        0.018      334.298        4.179      865.499
01/02/2014  19:12:00      -87.748      -34.057      -19.518       15.703       22.137       13.391      246.582      490.034      179.321        0.508        0.046       94.126       12.686        0.018      334.346        4.259      865.491
01/02/2014  19:13:00      -94.600      -19.543      -18.089       15.827       18.038       12.429      250.480      325.354      154.468        0.519        0.037       96.598        9.910        0.011      334.292        4.168      865.488
01/02/2014  19:14:00     -110.391      -25.121      -20.806       11.889       15.424       11.185      141.344      237.904      125.103        0.688        0.025      113.214        9.601        0.007      334.270        4.133      865.486
01/02/2014  19:15:00     -117.357      -23.536      -10.199       18.997       20.028       17.875      360.899      401.117      319.525        0.776        0.054      119.694       16.867        0.020      334.249        4.099      865.480
01/02/2014  19:16:00     -118.732      -32.469      -21.099       24.421       25.070       15.227      596.406      628.497      231.847        0.853        0.073      123.091       12.628        0.011      334.236        4.076      865.484
01/02/2014  19:17:00     -111.409      -21.779      -23.482       26.064       29.235       19.801      679.329      854.657      392.084        0.768        0.096      113.518       16.519        0.021      334.232        4.069      865.490
01/02/2014  19:18:00     -117.108      -32.594      -22.450       24.077       27.527       17.057      579.679      757.728      290.942        0.845        0.081      121.560       11.208        0.009      334.243        4.088      865.482
01/02/2014  19:19:00     -109.072      -35.729      -11.461       23.492       30.464       20.747      551.891      928.035      430.442        0.761        0.096      114.774       15.388        0.018      334.196        4.009      865.483
01/02/2014  19:20:00     -108.461      -24.026      -12.911       25.570       19.421       16.265      653.820      377.162      264.560        0.690        0.065      111.090       13.916        0.016      334.196        4.008      865.492
01/02/2014  19:21:00     -120.076      -23.557      -15.767       17.106       22.457       17.934      292.620      504.323      321.629        0.817        0.056      122.365       14.104        0.013      334.249        4.098      865.486
01/02/2014  19:22:00     -103.870      -35.934      -19.859       19.754       24.965       15.048      390.211      623.253      226.456        0.686        0.062      109.911       13.192        0.014      334.280        4.148      865.486
01/02/2014  19:23:00      -92.350      -34.077      -10.159       26.351       22.107       19.660      694.396      488.728      386.532        0.568        0.078       98.436       14.005        0.020      334.216        4.043      865.495
01/02/2014  19:24:00      -94.028      -26.563      -15.248       17.114       16.783       16.847      292.898      281.659      283.808        0.532        0.043       97.708        3.541        0.001      334.195        4.009      865.494
01/02/2014  19:25:00     -115.521      -20.689      -15.594       22.555       21.646       14.889      508.730      468.558      221.687        0.761        0.060      117.359       10.276        0.008      334.184        3.987      865.489
01/02/2014  19:26:00     -100.006      -36.137      -13.257       24.640       25.647       20.469      607.130      657.785      418.999        0.658        0.084      106.335       15.854        0.022      334.235        4.075      865.493
01/02/2014  19:27:00     -107.621      -28.823      -16.148       31.609       27.946       17.080      999.100      780.952      291.742        0.737        0.104      111.414       12.802        0.013      334.129        3.897      865.497
01/02/2014  19:28:00      -90.234      -42.178       -8.065       46.122       35.893       20.204     2127.194     1288.288      408.211        0.690        0.191       99.605       21.280        0.046      334.149        3.931      865.493
01/02/2014  19:29:00      -58.748      -37.453       -8.223       34.668       19.649       21.319     1201.870      386.084      454.494        0.348        0.102       69.671       18.400        0.070      334.220        4.048      865.498
01/02/2014  19:30:00     -127.572      -40.944      -17.784       29.550       27.146       17.103      873.182      736.924      292.518        1.008        0.095      133.982       14.985        0.013      334.159        3.947      865.497
01/02/2014  19:31:00     -150.315      -46.701      -11.921       19.185       16.943       12.704      368.061      287.076      161.394        1.287        0.041      157.403       12.006        0.006      334.141        3.917      865.489
01/02/2014  19:32:00     -126.302      -58.839      -11.589       15.192       18.395       14.527      230.808      338.384      211.029        1.016        0.039      139.335        4.536        0.001      334.144        3.923      865.488
01/02/2014  19:33:00     -133.967      -50.464      -15.420       17.380       15.981       11.271      302.068      255.388      127.043        1.071        0.034      143.157        6.428        0.002      334.177        3.979      865.490
01/02/2014  19:34:00     -144.135      -62.144      -15.998       21.495       13.841       15.023      462.032      191.575      225.700        1.289        0.044      156.962       11.027        0.005      334.166        3.959      865.492
01/02/2014  19:35:00     -145.841      -65.145       -8.088       14.115       17.182       10.064      199.225      295.238      101.278        1.309        0.030      159.730        8.893        0.003      334.163        3.953      865.490
01/02/2014  19:36:00     -123.634      -62.960      -13.808       15.119       16.332       14.409      228.584      266.736      207.610        1.007        0.035      138.742        6.698        0.002      334.191        4.001      865.490
01/02/2014  19:37:00     -107.945      -64.527      -13.756       19.692       19.544       14.690      387.777      381.957      215.810        0.850        0.049      125.761        5.598        0.002      334.190        4.000      865.494
01/02/2014  19:38:00     -122.541      -60.640      -14.537       13.074       15.651        8.318      170.928      244.966       69.197        0.969        0.024      136.724        5.580        0.002      334.114        3.873      865.494
01/02/2014  19:39:00     -114.322      -64.131       -9.375       18.556       25.806       12.864      344.309      665.938      165.478        0.922        0.059      131.081        9.228        0.005      334.116        3.875      865.508
01/02/2014  19:40:00     -123.219      -68.069      -14.979       28.338       19.228       14.568      803.022      369.708      212.217        1.071        0.069      140.771        9.812        0.005      334.146        3.927      865.515
01/02/2014  19:41:00     -136.846      -56.863      -14.188       17.414       19.064       15.047      303.246      363.434      226.403        1.153        0.045      148.190       10.536        0.005      334.144        3.924      865.510
01/02/2014  19:42:00     -127.459      -63.942       -8.195       21.972       18.729       15.008      482.789      350.770      225.245        1.073        0.053      142.599       11.495        0.006      334.136        3.910      865.501
01/02/2014  19:43:00     -112.091      -70.706      -10.941       36.915       25.111       17.901     1362.694      630.573      320.459        1.000        0.116      132.529       13.254        0.010      334.130        3.900      865.503
01/02/2014  19:44:00     -130.116      -69.931      -11.871       24.389       23.759       17.174      594.832      564.503      294.960        1.171        0.073      147.717       15.625        0.011      334.104        3.855      865.495
01/02/2014  19:45:00     -108.820      -66.207      -11.461       20.976       18.557       14.986      439.982      344.363      224.586        0.868        0.050      127.378        9.418        0.005      334.124        3.891      865.480
01/02/2014  19:46:00     -115.161      -56.657      -16.822       15.782       12.953       11.717      249.065      167.782      137.292        0.865        0.028      128.343        9.101        0.005      334.120        3.885      865.476
01/02/2014  19:47:00     -124.809      -50.734      -19.935       15.604       15.353       13.180      243.487      235.711      173.710        0.960        0.033      134.726        8.581        0.004      334.091        3.834      865.476
01/02/2014  19:48:00     -122.229      -59.661      -16.697       17.538       18.221       13.180      307.599      332.021      173.725        0.980        0.041      136.012        6.727        0.002      334.061        3.783      865.475
01/02/2014  19:49:00     -123.999      -60.208      -17.458       20.320       25.642       18.735      412.907      657.532      351.009        1.036        0.071      137.843       12.862        0.009      334.001        3.685      865.474
01/02/2014  19:50:00     -119.128      -75.465      -20.002       21.648       23.452       20.745      468.616      549.993      430.357        1.087        0.072      141.020       11.521        0.007      334.012        3.705      865.469
01/02/2014  19:51:00      -71.570      -49.593      -19.818       35.496       28.356       20.135     1259.997      804.087      405.432        0.522        0.123       87.073       18.560        0.045      334.002        3.688      865.470
01/02/2014  19:52:00      -99.789      -47.093      -22.634       29.653       21.267       17.292      879.319      452.304      299.026        0.716        0.082      110.343       16.702        0.023      333.938        3.583      865.477
01/02/2014  19:53:00     -111.922      -64.217      -17.112       22.087       25.910       15.543      487.840      671.341      241.572        0.917        0.070      129.036       12.897        0.010      333.936        3.578      865.485
01/02/2014  19:54:00     -131.150      -61.322      -20.649       21.060       24.828       13.686      443.517      616.417      187.294        1.132        0.062      144.779        7.926        0.003      333.931        3.571      865.491
01/02/2014  19:55:00     -147.638      -59.427      -18.107       16.563       17.990       12.934      274.322      323.657      167.294        1.321        0.038      159.150        5.235        0.001      333.989        3.666      865.499
01/02/2014  19:56:00     -150.583      -34.589      -17.511       13.757       19.190       15.476      189.256      368.253      239.517        1.249        0.040      154.504        9.505        0.004      333.982        3.656      865.512
01/02/2014  19:57:00     -133.685      -53.469      -15.743       15.544       19.372       11.624      241.628      375.277      135.125        1.087        0.038      143.981        7.224        0.003      333.984        3.657      865.512
01/02/2014  19:58:00     -125.248      -53.290      -16.532       14.596       19.055       13.881      213.047      363.102      192.689        0.978        0.038      136.113       11.392        0.007      333.982        3.653      865.517
01/02/2014  19:59:00     -129.266      -45.221      -21.877       12.684       14.924       10.414      160.889      222.737      108.443        0.986        0.025      136.948        7.443        0.003      334.001        3.686      865.517
01/02/2014  20:00:00     -133.220      -50.857      -18.671       18.135       14.034       12.591      328.877      196.950      158.530        1.068        0.034      142.597        7.559        0.003      333.997        3.679      865.525
01/02/2014  20:01:00     -130.905      -37.294      -22.434       11.735       14.996       12.243      137.719      224.895      149.902        0.977        0.026      136.114        5.961        0.002      333.952        3.605      865.524
01/02/2014  20:02:00     -129.682      -57.634      -16.483       16.425       19.622       14.301      269.791      385.012      204.522        1.063        0.043      141.912       11.127        0.006      333.922        3.555      865.520
01/02/2014  20:03:00     -138.714      -42.950      -21.279       20.673       14.024       10.904      427.375      196.665      118.898        1.114        0.037      145.211        6.583        0.002      333.963        3.623      865.516
01/02/2014  20:04:00     -105.171      -51.474      -13.100       16.495       15.438       12.093      272.072      238.333      146.242        0.727        0.033      117.092        5.795        0.002      334.015        3.710      865.514
01/02/2014  20:05:00     -109.310      -42.085      -11.072       16.518       14.990       10.055      272.847      224.695      101.104        0.722        0.030      117.131        9.515        0.007      333.976        3.645      865.504
01/02/2014  20:06:00     -123.624      -46.687      -17.338       10.080       11.724        8.576      101.610      137.459       73.555        0.904        0.016      132.146        6.264        0.002      333.988        3.665      865.492
01/02/2014  20:07:00     -107.616      -48.341      -12.165       18.203       14.967       11.572      331.345      224.003      133.921        0.738        0.034      117.975       10.575        0.008      333.939        3.582      865.484
01/02/2014  20:08:00     -128.595      -51.253      -18.237        7.708       13.988        8.205       59.408      195.661       67.315        0.991        0.016      138.432        5.533        0.002      333.956        3.611      865.485
01/02/2014  20:09:00     -113.348      -61.757      -13.493       13.826       15.570       13.254      191.170      242.430      175.675        0.873        0.030      129.080        8.177        0.004      333.920        3.553      865.481
01/02/2014  20:10:00     -125.016      -50.466      -19.109       11.585       18.620       12.536      134.208      346.688      157.161        0.959        0.032      134.818        6.667        0.002      333.939        3.584      865.476
01/02/2014  20:11:00     -147.363      -38.884      -19.196       17.790       14.900        9.492      316.493      222.025       90.103        1.211        0.031      152.407        8.347        0.003      333.918        3.549      865.466
01/02/2014  20:12:00     -130.766      -63.199      -22.177       20.850       29.077       15.173      434.740      845.486      230.211        1.155        0.076      145.237       13.899        0.009      333.851        3.437      865.463
01/02/2014  20:13:00     -114.136      -70.931      -13.604       29.939       24.211       20.455      896.353      586.163      418.388        1.007        0.095      134.381       16.925        0.016      333.820        3.384      865.465
01/02/2014  20:14:00     -118.530      -71.352      -11.139       23.532       30.557       21.803      553.735      933.703      475.371        1.061        0.098      138.349       12.709        0.008      333.815        3.377      865.465
01/02/2014  20:15:00     -131.850      -57.120      -17.291       27.378       22.970       14.982      749.574      527.635      224.466        1.122        0.075      143.691       11.499        0.006      333.776        3.311      865.455
01/02/2014  20:16:00     -155.357      -66.562      -19.248       18.013       19.007       14.615      324.463      361.253      213.594        1.492        0.045      169.015       10.548        0.004      333.745        3.260      865.454
01/02/2014  20:17:00     -114.449      -66.073      -13.631       29.678       21.928       20.389      880.807      480.823      415.726        0.971        0.089      132.152       17.385        0.017      333.714        3.210      865.446
01/02/2014  20:18:00     -110.309      -62.794       -5.481       25.926       25.782       16.404      672.162      664.731      269.097        0.887        0.080      126.930       12.458        0.010      333.716        3.212      865.444
01/02/2014  20:19:00      -79.739      -44.174       -9.656       34.549       27.692       18.617     1193.662      766.858      346.607        0.535        0.115       91.157       15.074        0.027      333.705        3.196      865.443
01/02/2014  20:20:00      -81.723      -36.209      -12.869       23.076       25.449       22.169      532.524      647.634      491.445        0.491        0.084       89.385       12.071        0.018      333.654        3.108      865.437
01/02/2014  20:21:00      -56.379      -23.655       -1.897       46.618       20.956       19.547     2173.252      439.161      382.082        0.337        0.150       61.141       21.322        0.122      333.648        3.101      865.422
01/02/2014  20:22:00      -79.662      -38.876       -2.035       26.051       28.128       21.261      678.666      791.168      452.042        0.489        0.096       88.642       15.987        0.033      333.707        3.197      865.416
01/02/2014  20:23:00      -93.532      -27.768      -11.284       31.876       29.407       17.029     1016.084      864.777      289.998        0.591        0.109       97.567       17.794        0.033      333.705        3.194      865.415
01/02/2014  20:24:00     -105.723      -12.531       -9.410       41.323       20.713       16.530     1707.559      429.048      273.232        0.692        0.120      106.463       16.131        0.023      333.683        3.159      865.400
01/02/2014  20:25:00      -87.083      -31.710      -13.120       29.743       24.355       18.982      884.663      593.173      360.299        0.530        0.092       92.677       16.736        0.033      333.679        3.152      865.388
01/02/2014  20:26:00      -83.929      -16.699       -9.054       29.886       21.011       17.114      893.175      441.462      292.902        0.452        0.081       85.574       12.553        0.022      333.678        3.150      865.385
01/02/2014  20:27:00      -88.404      -12.764       -9.166       35.233       18.245       15.231     1241.344      332.881      231.987        0.493        0.090       89.321       17.210        0.037      333.712        3.206      865.379
01/02/2014  20:28:00      -95.223      -17.820      -16.363       21.436       27.045       15.767      459.486      731.411      248.606        0.555        0.072       96.876       12.091        0.016      333.717        3.214      865.374
01/02/2014  20:29:00     -103.888      -13.004      -16.817       24.023       18.001       12.952      577.112      324.045      167.764        0.616        0.053      104.698       12.328        0.014      333.676        3.147      865.368
01/02/2014  20:30:00     -147.984       -3.354      -20.991       31.157       17.687       16.885      970.755      312.830      285.099        1.196        0.078      148.022       14.040        0.009      333.622        3.057      865.367
01/02/2014  20:31:00     -104.581      -31.192      -10.332       28.262       27.496       16.319      798.728      756.010      266.320        0.692        0.091      109.133       13.149        0.015      333.637        3.083      865.371
01/02/2014  20:32:00     -101.307      -36.275      -18.210       27.358       19.093       12.777      748.474      364.527      163.254        0.659        0.064      107.606       10.690        0.010      333.699        3.184      865.386
01/02/2014  20:33:00     -127.452      -21.378      -23.093       26.419       24.279       15.138      697.958      589.466      229.174        0.938        0.076      129.232       13.361        0.011      333.636        3.079      865.390
01/02/2014  20:34:00     -104.222      -20.577      -15.636       29.375       32.946       20.713      862.876     1085.459      429.045        0.695        0.119      106.234       12.533        0.014      333.700        3.186      865.381
01/02/2014  20:35:00     -110.195      -20.459      -14.134       25.000       21.145       15.428      624.992      447.106      238.019        0.704        0.066      112.079       12.063        0.012      333.720        3.220      865.374
01/02/2014  20:36:00     -112.873      -34.226      -21.059       25.201       22.825       19.427      635.105      521.002      377.404        0.794        0.077      117.949       15.208        0.017      333.722        3.222      865.365
01/02/2014  20:37:00     -101.485      -47.613      -29.378       27.671       22.520       16.931      765.682      507.145      286.669        0.749        0.078      112.099       11.758        0.011      333.740        3.252      865.359
01/02/2014  20:38:00     -105.847      -41.034      -18.649       17.896       18.644       14.006      320.270      347.598      196.161        0.705        0.043      113.523        8.919        0.006      333.678        3.149      865.352
01/02/2014  20:39:00     -109.565      -39.536      -30.384       23.176       25.019       15.878      537.115      625.945      252.125        0.795        0.071      116.480        8.094        0.005      333.735        3.244      865.336
01/02/2014  20:40:00     -112.478      -32.837      -11.369       25.185       21.419       19.451      634.295      458.753      378.327        0.766        0.074      117.173       17.499        0.022      333.702        3.190      865.320
01/02/2014  20:41:00     -123.846      -31.279      -15.870       22.005       19.996       20.395      484.234      399.858      415.950        0.893        0.065      127.735       15.017        0.014      333.635        3.078      865.307
01/02/2014  20:42:00     -133.111      -27.886      -26.075       22.070       21.719       21.824      487.100      471.720      476.304        1.031        0.072      136.001       12.571        0.009      333.650        3.103      865.299
01/02/2014  20:43:00     -100.440      -60.340      -15.331       27.742       26.688       16.183      769.626      712.229      261.875        0.785        0.087      117.171        9.491        0.007      333.676        3.147      865.286
01/02/2014  20:44:00      -20.324      -38.331        5.806       33.372       34.812       24.499     1113.689     1211.902      600.190        0.242        0.146       43.386       20.732        0.228      333.687        3.164      865.267
01/02/2014  20:45:00      -86.988      -51.651       -6.613       45.088       26.954       23.169     2032.884      726.514      536.813        0.679        0.165      101.167       25.861        0.065      333.657        3.117      865.253
01/02/2014  20:46:00      -97.580      -45.998      -15.748       30.266       27.741       20.722      916.053      769.550      429.410        0.700        0.106      107.878        7.869        0.005      333.660        3.121      865.252
01/02/2014  20:47:00      -55.084      -26.766      -10.929       33.198       21.615       22.334     1102.135      467.221      498.808        0.297        0.103       61.242       11.852        0.037      333.660        3.119      865.261
01/02/2014  20:48:00      -95.149      -46.063      -12.295       31.498       37.897       17.360      992.144     1436.201      301.375        0.703        0.136      105.713        9.408        0.008      333.641        3.088      865.269
01/02/2014  20:49:00     -110.503      -38.567      -11.791       50.820       36.036       21.493     2582.691     1298.612      461.969        0.909        0.217      117.040       15.402        0.017      333.623        3.059      865.258
01/02/2014  20:50:00     -160.257      -17.419      -20.982       34.190       35.681       27.767     1168.938     1273.167      771.027        1.482        0.161      161.201       22.775        0.020      333.460        2.788      865.256
01/02/2014  20:51:00     -153.388      -28.620       -9.115       60.195       42.728       30.654     3623.395     1825.717      939.651        1.541        0.319      156.035       33.009        0.045      333.433        2.743      865.251
01/02/2014  20:52:00     -105.787      -24.990      -14.363       41.816       32.037       20.546     1748.594     1026.345      422.120        0.761        0.160      108.698       17.456        0.026      333.462        2.792      865.256
01/02/2014  20:53:00     -129.669      -20.472      -16.707       46.317       46.950       28.092     2145.274     2204.285      789.170        1.132        0.257      131.275       27.124        0.043      333.436        2.749      865.251
01/02/2014  20:54:00     -107.796      -45.124       -4.021       56.317       44.901       26.350     3171.654     2016.106      694.297        0.978        0.294      116.860       29.461        0.064      333.482        2.825      865.232
01/02/2014  20:55:00     -106.186      -32.241      -14.159       37.230       39.298       27.836     1386.046     1544.306      774.828        0.811        0.185      110.973       12.464        0.013      333.477        2.816      865.216
01/02/2014  20:56:00      -71.358      -44.831      -13.003       37.394       26.317       20.799     1398.346      692.590      432.595        0.490        0.126       84.272       16.210        0.037      333.444        2.762      865.202
01/02/2014  20:57:00      -39.454      -14.823       -0.846       41.031       22.302       20.236     1683.532      497.395      409.487        0.218        0.130       42.147       20.351        0.233      333.495        2.847      865.201
01/02/2014  20:58:00      -74.640      -27.964      -12.588       23.848       30.564       19.791      568.727      934.164      391.665        0.420        0.095       79.706       13.116        0.027      333.472        2.808      865.197
01/02/2014  20:59:00      -81.486      -22.863      -12.483       30.113       33.498       20.464      906.815     1122.142      418.763        0.488        0.122       84.633       12.820        0.023      333.471        2.807      865.194
01/02/2014  21:00:00      -63.736      -30.521      -12.629       31.910       24.648       22.809     1018.279      607.522      520.267        0.365        0.107       70.667       15.445        0.048      333.473        2.810      865.206
01/02/2014  21:01:00      -67.725      -35.474      -12.728       33.025       25.013       20.513     1090.670      625.669      420.797        0.407        0.107       76.453       14.386        0.035      333.510        2.872      865.215
01/02/2014  21:02:00      -37.924      -18.992        3.761       38.045       19.357       30.655     1447.404      374.691      939.700        0.229        0.138       42.414       29.843        0.495      333.493        2.844      865.229
01/02/2014  21:03:00        7.576      -41.881        8.323       22.227       34.014       25.971      494.047     1156.971      674.515        0.210        0.116       42.561       16.103        0.143      333.495        2.845      865.228
01/02/2014  21:04:00      -37.340      -31.643       -4.761       34.653       27.376       22.415     1200.840      749.444      502.424        0.243        0.123       48.944       18.369        0.141      333.463        2.794      865.225
01/02/2014  21:05:00      -29.865      -46.876       -4.048       35.142       35.348       30.245     1234.935     1249.501      914.752        0.325        0.170       55.582       24.635        0.196      333.507        2.867      865.225
01/02/2014  21:06:00      -28.284      -48.925      -11.681       29.416       30.967       24.079      865.317      958.950      579.808        0.287        0.120       56.513       17.009        0.091      333.505        2.863      865.232
01/02/2014  21:07:00      -82.492      -20.939      -16.324       37.340       22.433       26.102     1394.299      503.261      681.301        0.504        0.129       85.108       26.421        0.096      333.512        2.874      865.223
01/02/2014  21:08:00      -86.178      -40.044      -16.594       19.766       27.955       13.523      390.692      781.465      182.873        0.533        0.068       95.027        8.260        0.008      333.464        2.794      865.213
01/02/2014  21:09:00      -87.307      -21.756      -19.679       18.571       20.155       17.364      344.892      406.232      301.507        0.477        0.053       89.977        6.090        0.005      333.535        2.912      865.209
01/02/2014  21:10:00      -95.870      -30.942      -21.144       19.428       19.279       13.702      377.443      371.695      187.741        0.577        0.047      100.740        6.904        0.005      333.501        2.854      865.211
01/02/2014  21:11:00      -73.662      -39.209      -20.520       19.747       22.029       14.137      389.946      485.286      199.845        0.423        0.054       83.447        9.152        0.012      333.531        2.905      865.208
01/02/2014  21:12:00      -29.589      -59.944       -2.135       35.700       27.886       17.833     1274.508      777.617      318.010        0.342        0.119       66.849       15.759        0.056      333.507        2.867      865.196
01/02/2014  21:13:00      -69.029      -46.684       -8.300       20.980       24.617       15.868      440.168      605.999      251.805        0.416        0.065       83.333        9.113        0.012      333.517        2.882      865.185
01/02/2014  21:14:00      -80.441      -32.345      -18.465       17.419       21.650       15.946      303.420      468.721      254.273        0.444        0.051       86.701       11.239        0.017      333.549        2.936      865.179
01/02/2014  21:15:00      -70.515      -38.754      -11.303       16.916       18.618       11.206      286.134      346.644      125.581        0.368        0.038       80.463        4.034        0.003      333.564        2.961      865.178
01/02/2014  21:16:00      -75.807      -29.838      -14.823       12.110       13.023        9.930      146.651      169.592       98.597        0.364        0.021       81.468        3.113        0.001      333.533        2.909      865.176
01/02/2014  21:17:00      -85.593      -41.034      -11.640        9.235       13.789        7.605       85.282      190.124       57.835        0.474        0.017       94.921        3.325        0.001      333.535        2.912      865.172
01/02/2014  21:18:00     -100.926      -34.657      -18.474       13.531        9.782        7.969      183.096       95.687       63.513        0.604        0.017      106.711        6.764        0.004      333.540        2.921      865.172
01/02/2014  21:19:00     -124.167      -13.192      -18.319       15.220       10.274        6.634      231.636      105.556       44.015        0.815        0.019      124.865        4.900        0.002      333.557        2.949      865.174
01/02/2014  21:20:00     -115.201      -22.109      -15.183       18.867       12.396       11.993      355.952      153.671      143.831        0.732        0.033      117.303        7.848        0.004      333.558        2.951      865.179
01/02/2014  21:21:00     -105.489      -26.704      -18.092       11.170       12.955       11.457      124.776      167.829      131.258        0.630        0.021      108.816        6.047        0.003      333.590        3.004      865.185
01/02/2014  21:22:00      -80.487      -23.043      -12.938       21.656       14.590       13.534      468.970      212.882      183.159        0.402        0.043       83.720       12.351        0.022      333.617        3.049      865.180
01/02/2014  21:23:00      -75.188      -26.691       -8.691       16.399       14.469       13.175      268.932      209.353      173.594        0.355        0.033       79.786        8.677        0.012      333.669        3.136      865.183
01/02/2014  21:24:00      -83.665      -30.484      -12.473       19.697       18.138       11.406      387.991      328.983      130.098        0.447        0.042       89.045        9.869        0.012      333.697        3.182      865.182
01/02/2014  21:25:00      -93.363      -31.180       -9.584       20.285       18.355       10.112      411.461      336.894      102.251        0.532        0.043       98.432        8.955        0.008      333.643        3.091      865.180
01/02/2014  21:26:00     -110.042      -36.034       -7.195       17.580       15.826       11.892      309.052      250.469      141.411        0.708        0.035      115.791        9.161        0.006      333.576        2.982      865.186
01/02/2014  21:27:00     -109.374      -25.598       -5.914       26.657       15.531       14.592      710.580      241.219      212.918        0.691        0.058      112.330       16.117        0.021      333.550        2.938      865.187
01/02/2014  21:28:00     -116.010      -21.812       -5.838       24.080       20.377       14.620      579.861      415.215      213.750        0.759        0.060      118.042       13.738        0.014      333.469        2.802      865.196
01/02/2014  21:29:00     -119.847      -24.427      -11.189       18.509       16.256       12.571      342.596      264.263      158.041        0.792        0.038      122.311       10.725        0.008      333.464        2.793      865.194
01/02/2014  21:30:00     -115.887      -35.668      -11.825       13.031       13.822       10.652      169.815      191.047      113.469        0.766        0.024      121.252        6.489        0.003      333.460        2.785      865.186
01/02/2014  21:31:00     -108.256      -32.979       -2.579       17.136       13.766        8.548      293.656      189.501       73.060        0.668        0.028      113.168        7.521        0.004      333.506        2.866      865.176
01/02/2014  21:32:00     -103.695      -37.376       -3.641       16.007       17.230       11.104      256.223      296.863      123.299        0.642        0.034      110.225        9.250        0.007      333.449        2.769      865.160
01/02/2014  21:33:00      -94.908      -33.053      -14.178       11.111       10.916        8.762      123.452      119.164       76.772        0.531        0.016      100.499        5.183        0.003      333.457        2.783      865.155
01/02/2014  21:34:00      -80.140      -46.916       -7.894       13.709       12.031       10.201      187.928      144.742      104.055        0.456        0.022       92.863        3.173        0.001      333.469        2.802      865.149
01/02/2014  21:35:00      -88.726      -38.641      -15.974       19.199       13.198       11.901      368.598      174.177      141.645        0.515        0.034       96.775       10.399        0.012      333.410        2.705      865.156
01/02/2014  21:36:00      -96.740      -38.828       -7.909       25.554       18.326       12.807      653.003      335.856      164.020        0.604        0.058      104.241       11.483        0.012      333.380        2.658      865.171
01/02/2014  21:37:00      -80.907      -55.027       -4.394       20.826       20.113       13.767      433.712      404.514      189.530        0.531        0.051       97.846        9.211        0.009      333.417        2.718      865.185
01/02/2014  21:38:00     -112.108      -51.564       -9.772       17.771       14.154       12.536      315.793      200.343      157.154        0.800        0.034      123.398        9.398        0.006      333.376        2.651      865.203
01/02/2014  21:39:00      -85.948      -45.521        1.467       23.185       15.298       14.211      537.564      234.015      201.955        0.522        0.049       97.258       10.264        0.011      333.351        2.609      865.214
01/02/2014  21:40:00      -81.803      -48.719       -1.814       28.828       19.838       18.012      831.041      393.534      324.415        0.531        0.077       95.212       15.426        0.026      333.390        2.672      865.212
01/02/2014  21:41:00      -95.826      -47.384       -8.851       12.042       12.713        8.663      144.998      161.610       75.053        0.594        0.019      106.901        3.358        0.001      333.415        2.715      865.202
01/02/2014  21:42:00      -91.066      -56.726       -6.402       24.068       13.324       12.005      579.246      177.526      144.110        0.623        0.045      107.288       12.556        0.014      333.378        2.656      865.191
01/02/2014  21:43:00      -93.223      -57.841       -4.215       30.779       25.075       17.371      947.342      628.731      301.762        0.697        0.094      109.709        4.621        0.002      333.351        2.608      865.172
01/02/2014  21:44:00      -88.802      -57.604       -4.281       30.608       17.020       14.172      936.833      289.668      200.854        0.632        0.071      105.848        9.740        0.008      333.323        2.563      865.160
01/02/2014  21:45:00      -94.494      -53.673       -2.658       23.560       16.272       15.235      555.059      264.790      232.113        0.643        0.053      108.674       11.851        0.012      333.295        2.515      865.143
01/02/2014  21:46:00     -106.174      -53.403       -9.061       12.590       19.662        9.838      158.499      386.611       96.791        0.742        0.032      118.847        4.466        0.001      333.262        2.461      865.147
01/02/2014  21:47:00      -91.998      -52.700       -8.368       18.531       16.303       11.770      343.398      265.778      138.538        0.603        0.037      106.023        7.295        0.005      333.202        2.362      865.164
01/02/2014  21:48:00     -100.145      -36.073      -10.253       12.583       12.179        8.465      158.343      148.332       71.663        0.591        0.019      106.443        4.484        0.002      333.230        2.407      865.180
01/02/2014  21:49:00     -116.716      -28.874      -11.909       14.743       14.014        9.926      217.343      196.399       98.533        0.756        0.026      120.235        7.372        0.004      333.279        2.489      865.189
01/02/2014  21:50:00      -99.339      -29.330      -12.038       19.051       10.405       11.062      362.955      108.270      122.359        0.573        0.030      103.578        9.681        0.009      333.258        2.454      865.192
01/02/2014  21:51:00      -90.675      -25.361       -5.625       30.411       19.350       17.433      924.859      374.405      303.925        0.525        0.080       94.155       16.593        0.031      333.204        2.364      865.185
01/02/2014  21:52:00      -80.056      -15.223       -8.933       25.568       18.061       14.173      653.737      326.191      200.884        0.395        0.059       81.491       13.215        0.026      333.223        2.396      865.179
01/02/2014  21:53:00      -59.264       -5.824      -11.250       17.946       17.977        9.641      322.059      323.168       92.944        0.221        0.037       59.549        8.960        0.023      333.296        2.517      865.172
01/02/2014  21:54:00      -73.655       -9.127       -9.940       15.538       19.496       14.164      241.435      380.089      200.618        0.321        0.041       74.218       12.242        0.027      333.272        2.477      865.164
01/02/2014  21:55:00      -63.058      -28.029      -17.021       18.577       16.317        9.584      345.101      266.240       91.858        0.288        0.035       69.007        5.238        0.006      333.358        2.619      865.165
01/02/2014  21:56:00      -73.948      -25.647      -11.253       14.072       12.435        8.962      198.023      154.625       80.312        0.334        0.022       78.269        3.943        0.003      333.272        2.478      865.159
01/02/2014  21:57:00      -65.252      -22.024      -15.628       11.505       11.297        9.917      132.368      127.627       98.349        0.267        0.018       68.869        6.401        0.009      333.300        2.524      865.151
01/02/2014  21:58:00      -59.654      -19.556      -10.013       12.980       15.135       13.088      168.481      229.064      171.302        0.230        0.028       62.778        4.984        0.006      333.323        2.562      865.140
01/02/2014  21:59:00      -62.168      -11.401      -11.258       10.967       11.282        5.950      120.271      127.278       35.397        0.220        0.014       63.205        3.421        0.003      333.361        2.625      865.134
01/02/2014  22:00:00      -53.169       -7.289       -9.851        9.521        8.321        8.968       90.657       69.241       80.429        0.161        0.012       53.666        4.662        0.008      333.370        2.641      865.126
01/02/2014  22:01:00      -38.924       -8.696       -3.101       10.869        8.936        7.066      118.139       79.845       49.933        0.092        0.012       39.884        6.770        0.029      333.623        3.058      865.122
01/02/2014  22:02:00      -63.078      -12.073      -11.815       11.855       12.121        7.442      140.538      146.913       55.382        0.230        0.017       64.223        5.557        0.007      333.357        2.619      865.128
01/02/2014  22:03:00      -66.470       -0.409       -8.727       17.918       14.368        9.938      321.072      206.433       98.774        0.256        0.031       66.471        6.056        0.008      333.410        2.705      865.141
01/02/2014  22:04:00      -83.775       -5.737      -20.581        6.828        9.582        8.118       46.627       91.813       65.910        0.384        0.010       83.971        6.967        0.007      333.280        2.491      865.144
01/02/2014  22:05:00      -88.967       -2.200      -20.762       10.476        8.768        8.938      109.743       76.872       79.896        0.431        0.013       88.994        4.602        0.003      333.227        2.404      865.148
01/02/2014  22:06:00      -78.689       -7.341      -17.452        8.544       10.468        7.993       72.994      109.578       63.884        0.340        0.012       79.031        6.022        0.006      333.330        2.574      865.153
01/02/2014  22:07:00      -83.452      -16.923      -19.949       11.115        8.970        8.253      123.550       80.468       68.117        0.396        0.014       85.150        3.577        0.002      333.317        2.552      865.164
01/02/2014  22:08:00      -90.641      -16.225      -19.171       19.798       19.998        9.457      391.958      399.927       89.434        0.486        0.044       92.082        7.676        0.007      333.183        2.332      865.169
01/02/2014  22:09:00      -81.817       -9.728      -11.763       25.785       21.610       16.162      664.881      467.000      261.226        0.416        0.070       82.394       14.351        0.030      333.109        2.208      865.171
01/02/2014  22:10:00      -78.448      -13.238       -9.353       25.361       15.990       12.298      643.193      255.686      151.229        0.373        0.053       79.557        9.763        0.015      333.175        2.317      865.164
01/02/2014  22:11:00     -101.651      -14.149      -17.212       32.334       24.187       18.832     1045.460      585.011      354.659        0.641        0.099      102.631       18.006        0.031      333.144        2.266      865.157
01/02/2014  22:12:00      -89.545       -9.054       -9.199       24.925       18.017       16.455      621.272      324.622      270.768        0.470        0.061       90.002       15.108        0.028      333.229        2.406      865.150
01/02/2014  22:13:00      -83.822      -22.429      -11.304       12.299       13.131        8.548      151.275      172.414       73.068        0.403        0.020       86.770        6.761        0.006      333.298        2.521      865.148
01/02/2014  22:14:00      -83.974      -20.953       -9.210       22.982       15.752       15.764      528.180      248.122      248.508        0.430        0.051       86.548       16.769        0.038      333.295        2.517      865.154
01/02/2014  22:15:00      -97.427      -21.500      -14.173       15.655       12.501        9.000      245.084      156.280       81.008        0.532        0.024       99.771        7.403        0.006      333.313        2.547      865.169
01/02/2014  22:16:00      -83.959      -26.078      -12.330       10.534        9.414        8.852      110.973       88.618       78.366        0.408        0.014       87.916        5.242        0.004      333.241        2.425      865.176
01/02/2014  22:17:00      -89.867      -36.481       -9.964       15.345       11.989       10.429      235.481      143.734      108.757        0.500        0.024       96.989        3.278        0.001      333.278        2.487      865.179
01/02/2014  22:18:00      -81.923      -37.925      -12.601       18.314       13.303       11.425      335.396      176.978      130.526        0.448        0.032       90.276        9.998        0.012      333.277        2.484      865.181
01/02/2014  22:19:00      -97.357      -38.780      -18.027       20.553       11.089       11.268      422.433      122.974      126.971        0.599        0.034      104.796        7.275        0.005      333.190        2.341      865.177
01/02/2014  22:20:00      -80.385      -57.632       -5.867       23.946       17.133       15.200      573.400      293.550      231.036        0.546        0.055       98.910        9.862        0.010      333.095        2.187      865.183
01/02/2014  22:21:00     -100.424      -58.206       -6.937       33.654       19.061       15.154     1132.610      363.307      229.658        0.762        0.086      116.072        7.713        0.004      333.139        2.258      865.194
01/02/2014  22:22:00     -102.738      -64.926       -5.838       23.040       21.279       16.867      530.829      452.801      284.495        0.804        0.063      121.534       11.170        0.008      333.089        2.175      865.196
01/02/2014  22:23:00      -98.516      -49.754        2.602       26.908       24.289       19.004      724.027      589.932      361.143        0.693        0.084      110.367       13.441        0.015      333.044        2.102      865.201
01/02/2014  22:24:00     -103.954      -55.148       -5.355       33.824       21.016       17.220     1144.092      441.671      296.535        0.788        0.094      117.676       17.882        0.023      332.994        2.019      865.208
01/02/2014  22:25:00     -123.609      -58.096       -3.365       16.912       14.719       11.977      286.001      216.652      143.450        0.966        0.032      136.580        7.018        0.003      332.975        1.987      865.218
01/02/2014  22:26:00     -119.715      -36.462      -11.823       18.649       10.994       12.222      347.778      120.870      149.366        0.821        0.031      125.144       10.579        0.007      333.032        2.081      865.230
01/02/2014  22:27:00     -118.510      -39.879       -8.288       15.229       17.540       10.250      231.916      307.653      105.062        0.817        0.032      125.040        8.269        0.004      333.091        2.180      865.248
01/02/2014  22:28:00     -121.665      -32.909       -9.019       19.478       15.358       13.046      379.378      235.873      170.205        0.838        0.039      126.037       11.528        0.008      333.067        2.140      865.261
01/02/2014  22:29:00     -103.408      -30.728       -8.587       15.269       17.896        9.603      233.144      320.266       92.224        0.618        0.032      107.877        8.911        0.007      333.039        2.093      865.257
01/02/2014  22:30:00      -75.125      -19.048      -13.345       15.016        7.310        5.486      225.475       53.442       30.099        0.325        0.015       77.503        3.266        0.002      333.197        2.354      865.261
01/02/2014  22:31:00      -49.433      -40.584       -9.356        9.360       14.154        6.662       87.614      200.332       44.387        0.226        0.017       63.958        5.410        0.007      333.201        2.360      865.253
01/02/2014  22:32:00      -40.754      -32.575      -11.289       20.905       12.036       10.014      437.005      144.877      100.284        0.177        0.034       52.173        7.956        0.023      333.227        2.402      865.244
01/02/2014  22:33:00      -69.444      -33.661      -10.716       10.658       13.065        7.543      113.600      170.696       56.898        0.321        0.017       77.172        4.810        0.004      333.161        2.294      865.231
01/02/2014  22:34:00      -75.941      -37.763      -14.486       23.946       17.840       13.064      573.424      318.275      170.655        0.423        0.053       84.812       12.744        0.023      333.346        2.601      865.231
01/02/2014  22:35:00      -83.135      -35.484      -13.376        9.901       13.151       11.880       98.027      172.953      141.127        0.438        0.021       90.391        8.857        0.010      333.208        2.372      865.227
01/02/2014  22:36:00      -91.241      -29.851      -13.325        9.292       11.306        7.112       86.347      127.825       50.583        0.483        0.013       96.000        5.302        0.003      333.056        2.122      865.229
01/02/2014  22:37:00      -83.875      -38.005       -9.047        8.214        9.575        5.194       67.476       91.674       26.979        0.437        0.009       92.084        3.142        0.001      333.076        2.154      865.230
01/02/2014  22:38:00      -76.247      -32.050      -10.427        8.608        7.687        6.183       74.095       59.090       38.225        0.356        0.009       82.709        1.355        0.000      333.103        2.200      865.225
01/02/2014  22:39:00      -77.659      -27.880       -9.203        8.621        8.219        8.415       74.318       67.547       70.815        0.355        0.011       82.512        3.730        0.002      333.024        2.067      865.223
01/02/2014  22:40:00      -84.122      -32.256      -12.415        7.028        7.173        5.461       49.389       51.450       29.827        0.420        0.007       90.095        3.834        0.002      332.964        1.970      865.221
01/02/2014  22:41:00      -84.088      -46.388      -10.010       11.562        7.997        5.610      133.682       63.951       31.468        0.478        0.011       96.034        3.578        0.001      332.959        1.961      865.213
01/02/2014  22:42:00      -91.717      -57.745       -8.690       22.327       16.259       12.732      498.474      264.362      162.108        0.637        0.046      108.381        9.921        0.008      332.958        1.958      865.206
01/02/2014  22:43:00     -107.750      -56.479       -8.917        9.509       10.903        8.454       90.423      118.865       71.474        0.758        0.014      121.654        4.997        0.002      332.853        1.786      865.197
01/02/2014  22:44:00     -120.174      -37.724      -12.204        7.050        8.909        7.344       49.708       79.378       53.931        0.810        0.009      125.956        4.166        0.001      332.900        1.865      865.190
01/02/2014  22:45:00     -110.880      -35.990      -11.900        7.712       10.668        7.429       59.471      113.805       55.190        0.698        0.011      116.575        5.177        0.002      332.871        1.816      865.193
01/02/2014  22:46:00     -110.655      -18.840      -14.375       13.339        9.815        8.134      177.916       96.344       66.163        0.657        0.017      112.247        6.288        0.003      332.914        1.887      865.199
01/02/2014  22:47:00     -107.923      -28.916      -15.645       14.134       12.381       10.990      199.770      153.294      120.775        0.660        0.024      111.729        6.338        0.003      332.888        1.844      865.208
01/02/2014  22:48:00     -130.506      -42.122      -15.089       13.730       11.592       10.459      188.510      134.378      109.400        0.973        0.022      137.135        6.699        0.002      332.911        1.881      865.212
01/02/2014  22:49:00     -134.906      -39.189      -14.368       14.521       11.821       10.358      210.860      139.741      107.284        1.020        0.023      140.483        7.657        0.003      332.889        1.846      865.218
01/02/2014  22:50:00     -105.969      -44.944      -10.683       17.164       15.221       10.284      294.586      231.692      105.754        0.700        0.032      115.107        9.118        0.006      332.844        1.772      865.211
01/02/2014  22:51:00     -104.867      -47.556       -6.694       13.641       17.046       10.634      186.066      290.560      113.086        0.695        0.029      115.147        8.105        0.005      332.811        1.717      865.193
01/02/2014  22:52:00      -94.103      -43.839      -10.912       10.768        9.054        8.127      115.941       81.971       66.042        0.558        0.013      103.814        4.213        0.002      332.816        1.726      865.184
01/02/2014  22:53:00     -104.277      -37.563      -12.320        8.524        8.694        6.834       72.653       75.579       46.709        0.632        0.010      110.836        4.262        0.001      332.890        1.848      865.175
01/02/2014  22:54:00     -105.086      -44.455      -10.234        8.956       11.942        9.294       80.203      142.615       86.371        0.672        0.015      114.103        3.363        0.001      332.897        1.859      865.168
01/02/2014  22:55:00     -120.099      -35.535      -12.110       10.669       15.312        8.600      113.837      234.463       73.956        0.813        0.021      125.246        7.334        0.003      332.869        1.814      865.161
01/02/2014  22:56:00      -99.789      -43.472      -18.011       13.702       14.016        9.541      187.742      196.450       91.035        0.632        0.024      108.847        8.294        0.006      332.838        1.762      865.156
01/02/2014  22:57:00      -87.965      -21.696       -9.760       16.858       17.312       12.139      284.177      299.698      147.346        0.452        0.037       90.601        9.433        0.011      332.838        1.762      865.152
01/02/2014  22:58:00      -88.167       -9.004      -13.045       23.519       18.552       12.679      553.138      344.179      160.764        0.454        0.053       88.626        6.012        0.005      332.826        1.741      865.137
01/02/2014  22:59:00      -79.948       -7.757      -11.310       17.963       15.292       15.304      322.681      233.843      234.211        0.369        0.040       80.324       12.351        0.024      332.780        1.667      865.119
01/02/2014  23:00:00      -70.526      -27.778      -13.221       14.178       12.711        7.448      201.026      161.560       55.467        0.317        0.021       75.799        6.000        0.006      332.805        1.707      865.112
01/02/2014  23:01:00      -89.756      -19.425      -13.160       16.681       13.567        9.759      278.266      184.061       95.229        0.458        0.028       91.834        3.625        0.002      332.766        1.644      865.111
01/02/2014  23:02:00      -98.527      -12.093      -14.334       21.482       16.019       15.161      461.467      256.606      229.870        0.550        0.047       99.266       10.048        0.010      332.756        1.625      865.111
01/02/2014  23:03:00      -67.919      -20.127       -9.717       33.686       20.808       19.170     1134.774      432.989      367.486        0.352        0.097       70.838       19.651        0.077      332.758        1.630      865.115
01/02/2014  23:04:00      -99.924      -17.881      -19.905       24.508       21.991       19.055      600.657      483.592      363.102        0.607        0.072      101.511       16.585        0.027      332.766        1.642      865.112
01/02/2014  23:05:00     -117.040      -13.718      -15.480       19.581       20.166       15.668      383.417      406.684      245.485        0.758        0.052      117.841        8.457        0.005      332.763        1.637      865.101
01/02/2014  23:06:00     -103.021      -12.195      -18.043       18.901       16.626       13.787      357.236      276.430      190.086        0.596        0.041      103.740        8.146        0.006      332.743        1.605      865.083
01/02/2014  23:07:00      -93.238      -24.308      -16.749       19.135       17.761       14.225      366.160      315.445      202.339        0.522        0.044       96.354       11.492        0.014      332.676        1.494      865.074
01/02/2014  23:08:00     -116.527      -18.067      -14.684        9.913       12.581        7.584       98.265      158.277       57.516        0.722        0.016      117.919        1.731        0.000      332.734        1.589      865.076
01/02/2014  23:09:00     -100.823      -34.976      -12.442       13.051       12.392       10.286      170.318      153.553      105.803        0.599        0.021      106.717        7.723        0.005      332.725        1.576      865.076
01/02/2014  23:10:00     -101.947      -42.922      -11.914       15.970       10.663       10.574      255.051      113.705      111.805        0.643        0.024      110.614        7.782        0.005      332.711        1.550      865.073
01/02/2014  23:11:00     -106.341      -37.614      -10.739       21.253       15.918       14.313      451.680      253.382      204.860        0.687        0.045      112.797       13.776        0.015      332.769        1.647      865.077
01/02/2014  23:12:00      -79.097      -55.439       -3.013       21.979       22.194       13.118      483.067      492.561      172.078        0.524        0.057       96.592       10.003        0.011      332.710        1.550      865.079
01/02/2014  23:13:00      -92.310      -65.430       -5.073       32.471       20.434       18.361     1054.396      417.538      337.139        0.732        0.090      113.147       17.234        0.023      332.689        1.516      865.073
01/02/2014  23:14:00     -104.533      -64.911       -8.879       29.791       17.546       18.482      887.518      307.866      341.589        0.838        0.077      123.047       18.618        0.023      332.588        1.349      865.059
01/02/2014  23:15:00     -104.467      -58.559       -9.151       16.548       20.227       14.706      273.836      409.120      216.265        0.766        0.045      119.761        6.396        0.003      332.542        1.272      865.042
01/02/2014  23:16:00     -108.122      -38.197       -5.046       29.410       23.724       17.531      864.920      562.844      307.349        0.745        0.087      114.671       17.620        0.024      332.492        1.190      865.029
01/02/2014  23:17:00      -84.001      -18.426       -2.768       35.930       23.587       19.643     1290.949      556.339      385.854        0.482        0.112       85.998       18.917        0.048      332.527        1.247      865.006
01/02/2014  23:18:00      -98.280      -22.608       -3.393       28.249       24.516       12.953      798.033      601.046      167.770        0.587        0.078      100.847       13.151        0.017      332.538        1.265      865.002
01/02/2014  23:19:00     -118.068      -45.556       -8.547       20.345       19.393       13.277      413.914      376.070      176.280        0.853        0.048      126.552        7.118        0.003      332.521        1.236      864.999
01/02/2014  23:20:00      -94.568      -28.115       -7.065       29.179       23.862       14.150      851.441      569.405      200.209        0.570        0.081       98.659       13.541        0.019      332.517        1.231      864.992
01/02/2014  23:21:00      -64.103      -53.591       -5.802       35.881       22.590       18.528     1287.421      510.289      343.280        0.458        0.107       83.553       16.468        0.039      332.501        1.204      864.984
01/02/2014  23:22:00     -110.615      -53.710      -15.593       27.067       31.353       15.886      732.607      982.991      252.377        0.867        0.098      122.965       14.030        0.013      332.444        1.110      864.984
01/02/2014  23:23:00     -106.213      -32.241      -14.890       16.036       16.734       15.320      257.161      280.032      234.699        0.666        0.039      110.999       12.011        0.012      332.440        1.104      864.979
01/02/2014  23:24:00     -106.467      -36.093      -12.369       19.884       14.881       12.427      395.385      221.457      154.429        0.678        0.039      112.419       10.492        0.009      332.516        1.229      864.975
01/02/2014  23:25:00     -104.140      -38.293      -12.224       19.509       14.578       14.839      380.582      212.514      220.186        0.664        0.041      110.957       12.624        0.013      332.582        1.337      864.962
01/02/2014  23:26:00     -107.692      -47.154       -9.609       24.029       17.010       12.555      577.396      289.343      157.619        0.747        0.051      117.563       12.105        0.011      332.592        1.355      864.943
01/02/2014  23:27:00     -123.923      -37.090      -13.517       12.611        9.519       11.720      159.049       90.611      137.366        0.865        0.019      129.354        4.564        0.001      332.585        1.343      864.913
01/02/2014  23:28:00      -98.634      -34.330      -19.630       15.977       12.539        9.957      255.274      157.223       99.150        0.590        0.026      104.438        6.204        0.004      332.544        1.274      864.892
01/02/2014  23:29:00      -80.875      -59.513       -5.133       26.424       17.107       14.108      698.210      292.663      199.029        0.565        0.059      100.412       14.241        0.020      332.602        1.370      864.873
01/02/2014  23:30:00     -101.623      -50.216       -6.014       11.733       11.456        9.185      137.675      131.249       84.373        0.662        0.018      113.353        6.923        0.004      332.666        1.478      864.852
01/02/2014  23:31:00     -105.231      -44.579       -7.253       15.410       14.128        8.085      237.477      199.613       65.363        0.681        0.025      114.284        3.597        0.001      332.603        1.373      864.840
01/02/2014  23:32:00     -101.660      -35.362       -5.540       10.235       12.999        7.673      104.753      168.973       58.869        0.597        0.017      107.635        3.475        0.001      332.608        1.382      864.840
01/02/2014  23:33:00     -106.587      -24.078      -11.455       10.504       10.303        8.082      110.336      106.159       65.314        0.618        0.014      109.273        5.553        0.003      332.520        1.234      864.854
01/02/2014  23:34:00     -106.987      -24.042      -12.754       12.369       11.180       11.265      152.990      125.000      126.898        0.630        0.020      109.655        5.602        0.003      332.493        1.192      864.863
01/02/2014  23:35:00     -109.936      -42.872      -10.908       10.368       15.323        8.269      107.486      234.789       68.374        0.723        0.021      118.000        8.011        0.005      332.515        1.226      864.864
01/02/2014  23:36:00     -102.884      -52.406       -9.735       11.444       10.928        7.574      130.975      119.428       57.372        0.687        0.015      115.462        5.578        0.002      332.469        1.150      864.847
01/02/2014  23:37:00     -117.376      -41.945      -11.683       11.150       10.229        7.250      124.321      104.635       52.557        0.798        0.014      124.645        4.454        0.001      332.473        1.157      864.830
01/02/2014  23:38:00     -114.152      -45.213       -9.337        8.381        9.937        7.047       70.239       98.738       49.665        0.769        0.011      122.780        3.998        0.001      332.417        1.067      864.823
01/02/2014  23:39:00     -117.907      -34.812      -11.289       12.054       10.789        8.171      145.310      116.411       66.763        0.778        0.016      122.938        4.036        0.001      332.447        1.116      864.807
01/02/2014  23:40:00     -115.701      -37.912       -5.299       19.988       14.681       13.124      399.538      215.526      172.252        0.782        0.039      121.754       11.263        0.009      332.425        1.078      864.802
01/02/2014  23:41:00     -122.298      -43.288       -5.071       21.537       16.541       13.850      463.833      273.604      191.835        0.889        0.046      129.733       11.933        0.008      332.383        1.011      864.799
01/02/2014  23:42:00     -136.668      -48.702      -10.490       20.148       14.416        8.242      405.924      207.834       67.931        1.092        0.034      145.087        8.367        0.003      332.315        0.895      864.791
01/02/2014  23:43:00     -127.352      -57.030       -9.962       13.178        8.722       11.088      173.653       76.066      122.946        0.997        0.019      139.538        8.519        0.004      332.371        0.990      864.787
01/02/2014  23:44:00     -116.256      -58.653       -9.670       14.716       11.934        9.948      216.558      142.430       98.955        0.875        0.023      130.214        5.836        0.002      332.395        1.029      864.778
01/02/2014  23:45:00     -119.360      -52.620      -12.683        9.993       10.337        8.544       99.854      106.849       73.001        0.873        0.014      130.444        4.993        0.001      332.389        1.019      864.777
01/02/2014  23:46:00     -121.856      -43.979      -11.989       15.123       14.808       11.089      228.705      219.263      122.963        0.875        0.029      129.549        6.924        0.003      332.397        1.032      864.778
01/02/2014  23:47:00     -105.532      -40.193       -6.648       11.478       13.149       10.479      131.738      172.902      109.813        0.661        0.021      112.927        6.474        0.003      332.386        1.014      864.787
01/02/2014  23:48:00      -94.900      -62.484      -11.563       13.338       11.714        8.435      177.913      137.220       71.141        0.672        0.019      113.624        3.367        0.001      332.393        1.027      864.787
01/02/2014  23:49:00      -79.877      -65.639       -4.868       22.882       18.057       19.009      523.591      326.061      361.358        0.596        0.061      103.386       18.226        0.031      332.349        0.954      864.785
01/02/2014  23:50:00      -75.476      -49.258        2.310       34.771       26.033       17.077     1209.044      677.720      291.619        0.515        0.109       90.128       13.313        0.022      332.315        0.898      864.784
01/02/2014  23:51:00      -75.579      -32.625       -3.364       28.742       22.755       19.488      826.131      517.778      379.787        0.426        0.086       82.320       15.877        0.037      332.223        0.746      864.785
01/02/2014  23:52:00      -71.414       -3.607       -5.510       26.620       23.357       16.266      708.649      545.559      264.569        0.333        0.076       71.505       12.851        0.032      332.230        0.760      864.789
01/02/2014  23:53:00      -88.541      -26.463      -14.179       23.827       22.946       12.996      567.737      526.515      168.892        0.500        0.063       92.411       10.863        0.014      332.178        0.673      864.787
01/02/2014  23:54:00      -85.867      -16.944      -15.957       15.378       17.235       11.020      236.470      297.030      121.449        0.428        0.033       87.523        7.497        0.007      332.208        0.721      864.787
01/02/2014  23:55:00      -70.389      -35.731      -15.909       18.687       15.097       14.209      349.199      227.915      201.893        0.363        0.039       78.939        8.779        0.012      332.292        0.860      864.789
01/02/2014  23:56:00      -89.355      -38.157      -12.972       17.062       15.193       16.019      291.106      230.823      256.617        0.519        0.039       97.161        8.739        0.008      332.284        0.846      864.777
01/02/2014  23:57:00      -90.492      -32.428      -21.281       19.532       16.701       11.614      381.485      278.915      134.874        0.524        0.040       96.127       10.931        0.013      332.299        0.870      864.769
01/02/2014  23:58:00      -98.999      -25.550      -18.251       16.618       25.650       14.278      276.172      657.936      203.873        0.596        0.057      102.243        6.651        0.004      332.270        0.824      864.769
01/02/2014  23:59:00     -103.107      -11.188      -12.149       30.332       20.921       17.316      920.025      437.692      299.850        0.628        0.083      103.712       16.556        0.025      332.217        0.736      864.760
